<?xml version="1.0" encoding="UTF-8" standalone="no" ?>
<gpx xmlns="http://www.topografix.com/GPX/1/1" xmlns:xsi="http://www.w3.org/2001/XMLSchema-instance" xsi:schemaLocation="http://www.topografix.com/GPX/1/1 http://www.topografix.com/GPX/1/1/gpx.xsd" version="1.1" creator="VisuGPX - https://www.visugpx.com">
  <metadata>
    <name>bueges</name>
    <desc><![CDATA[belle balade hivernale]]></desc>
  </metadata>
  <trk>
    <name><![CDATA[30-NOV-15 15:50:39]]></name>
    <trkseg>
      <trkpt lat="43.82947" lon="3.61752">
        <ele>148.18</ele>
        <time>2015-11-30T10:13:53Z</time>
      </trkpt>
      <trkpt lat="43.82947" lon="3.61752">
        <ele>147.7</ele>
        <time>2015-11-30T10:14:18Z</time>
      </trkpt>
      <trkpt lat="43.82947" lon="3.61753">
        <ele>148.66</ele>
        <time>2015-11-30T10:14:41Z</time>
      </trkpt>
      <trkpt lat="43.82948" lon="3.61753">
        <ele>148.66</ele>
        <time>2015-11-30T10:15:06Z</time>
      </trkpt>
      <trkpt lat="43.82948" lon="3.61754">
        <ele>149.14</ele>
        <time>2015-11-30T10:15:33Z</time>
      </trkpt>
      <trkpt lat="43.82949" lon="3.61754">
        <ele>149.62</ele>
        <time>2015-11-30T10:15:59Z</time>
      </trkpt>
      <trkpt lat="43.82949" lon="3.61754">
        <ele>149.62</ele>
        <time>2015-11-30T10:16:23Z</time>
      </trkpt>
      <trkpt lat="43.82948" lon="3.61753">
        <ele>150.58</ele>
        <time>2015-11-30T10:16:40Z</time>
      </trkpt>
      <trkpt lat="43.82949" lon="3.61752">
        <ele>150.58</ele>
        <time>2015-11-30T10:16:59Z</time>
      </trkpt>
      <trkpt lat="43.82949" lon="3.61751">
        <ele>150.1</ele>
        <time>2015-11-30T10:17:17Z</time>
      </trkpt>
      <trkpt lat="43.82948" lon="3.61751">
        <ele>150.58</ele>
        <time>2015-11-30T10:17:39Z</time>
      </trkpt>
      <trkpt lat="43.82948" lon="3.6175">
        <ele>150.58</ele>
        <time>2015-11-30T10:17:58Z</time>
      </trkpt>
      <trkpt lat="43.82948" lon="3.6175">
        <ele>150.58</ele>
        <time>2015-11-30T10:18:29Z</time>
      </trkpt>
      <trkpt lat="43.82948" lon="3.61748">
        <ele>151.54</ele>
        <time>2015-11-30T10:18:43Z</time>
      </trkpt>
      <trkpt lat="43.82947" lon="3.6174">
        <ele>151.06</ele>
        <time>2015-11-30T10:18:53Z</time>
      </trkpt>
      <trkpt lat="43.82946" lon="3.61736">
        <ele>151.06</ele>
        <time>2015-11-30T10:18:57Z</time>
      </trkpt>
      <trkpt lat="43.82946" lon="3.61733">
        <ele>151.06</ele>
        <time>2015-11-30T10:18:59Z</time>
      </trkpt>
      <trkpt lat="43.82943" lon="3.6173">
        <ele>151.06</ele>
        <time>2015-11-30T10:19:02Z</time>
      </trkpt>
      <trkpt lat="43.82933" lon="3.61734">
        <ele>151.06</ele>
        <time>2015-11-30T10:19:13Z</time>
      </trkpt>
      <trkpt lat="43.82929" lon="3.61737">
        <ele>150.58</ele>
        <time>2015-11-30T10:19:16Z</time>
      </trkpt>
      <trkpt lat="43.82927" lon="3.61744">
        <ele>150.1</ele>
        <time>2015-11-30T10:19:20Z</time>
      </trkpt>
      <trkpt lat="43.82907" lon="3.61761">
        <ele>149.62</ele>
        <time>2015-11-30T10:19:36Z</time>
      </trkpt>
      <trkpt lat="43.82899" lon="3.61769">
        <ele>149.14</ele>
        <time>2015-11-30T10:19:43Z</time>
      </trkpt>
      <trkpt lat="43.82896" lon="3.61773">
        <ele>149.14</ele>
        <time>2015-11-30T10:19:47Z</time>
      </trkpt>
      <trkpt lat="43.82894" lon="3.61774">
        <ele>149.14</ele>
        <time>2015-11-30T10:19:49Z</time>
      </trkpt>
      <trkpt lat="43.82873" lon="3.61786">
        <ele>148.66</ele>
        <time>2015-11-30T10:20:03Z</time>
      </trkpt>
      <trkpt lat="43.82869" lon="3.61787">
        <ele>148.18</ele>
        <time>2015-11-30T10:20:07Z</time>
      </trkpt>
      <trkpt lat="43.82846" lon="3.61778">
        <ele>148.18</ele>
        <time>2015-11-30T10:20:22Z</time>
      </trkpt>
      <trkpt lat="43.8284" lon="3.61776">
        <ele>148.66</ele>
        <time>2015-11-30T10:20:26Z</time>
      </trkpt>
      <trkpt lat="43.82832" lon="3.61751">
        <ele>148.18</ele>
        <time>2015-11-30T10:20:39Z</time>
      </trkpt>
      <trkpt lat="43.82835" lon="3.61747">
        <ele>148.66</ele>
        <time>2015-11-30T10:20:51Z</time>
      </trkpt>
      <trkpt lat="43.82839" lon="3.61738">
        <ele>148.66</ele>
        <time>2015-11-30T10:21:04Z</time>
      </trkpt>
      <trkpt lat="43.82841" lon="3.61734">
        <ele>149.14</ele>
        <time>2015-11-30T10:21:07Z</time>
      </trkpt>
      <trkpt lat="43.82844" lon="3.61725">
        <ele>149.62</ele>
        <time>2015-11-30T10:21:14Z</time>
      </trkpt>
      <trkpt lat="43.82842" lon="3.61707">
        <ele>150.1</ele>
        <time>2015-11-30T10:21:28Z</time>
      </trkpt>
      <trkpt lat="43.82839" lon="3.61703">
        <ele>150.58</ele>
        <time>2015-11-30T10:21:30Z</time>
      </trkpt>
      <trkpt lat="43.82814" lon="3.61692">
        <ele>150.58</ele>
        <time>2015-11-30T10:21:44Z</time>
      </trkpt>
      <trkpt lat="43.82811" lon="3.61691">
        <ele>151.06</ele>
        <time>2015-11-30T10:21:46Z</time>
      </trkpt>
      <trkpt lat="43.82803" lon="3.61692">
        <ele>151.06</ele>
        <time>2015-11-30T10:21:53Z</time>
      </trkpt>
      <trkpt lat="43.82792" lon="3.61687">
        <ele>151.06</ele>
        <time>2015-11-30T10:22:03Z</time>
      </trkpt>
      <trkpt lat="43.82789" lon="3.61683">
        <ele>150.58</ele>
        <time>2015-11-30T10:22:06Z</time>
      </trkpt>
      <trkpt lat="43.82786" lon="3.61675">
        <ele>151.06</ele>
        <time>2015-11-30T10:22:19Z</time>
      </trkpt>
      <trkpt lat="43.82786" lon="3.61673">
        <ele>151.06</ele>
        <time>2015-11-30T10:22:24Z</time>
      </trkpt>
      <trkpt lat="43.82784" lon="3.61672">
        <ele>151.06</ele>
        <time>2015-11-30T10:22:26Z</time>
      </trkpt>
      <trkpt lat="43.82779" lon="3.61666">
        <ele>151.54</ele>
        <time>2015-11-30T10:22:32Z</time>
      </trkpt>
      <trkpt lat="43.82774" lon="3.61639">
        <ele>152.51</ele>
        <time>2015-11-30T10:22:45Z</time>
      </trkpt>
      <trkpt lat="43.82771" lon="3.61633">
        <ele>152.99</ele>
        <time>2015-11-30T10:22:49Z</time>
      </trkpt>
      <trkpt lat="43.82772" lon="3.61619">
        <ele>153.95</ele>
        <time>2015-11-30T10:22:59Z</time>
      </trkpt>
      <trkpt lat="43.82775" lon="3.61595">
        <ele>155.87</ele>
        <time>2015-11-30T10:23:13Z</time>
      </trkpt>
      <trkpt lat="43.82774" lon="3.61589">
        <ele>156.35</ele>
        <time>2015-11-30T10:23:16Z</time>
      </trkpt>
      <trkpt lat="43.82774" lon="3.61581">
        <ele>156.83</ele>
        <time>2015-11-30T10:23:20Z</time>
      </trkpt>
      <trkpt lat="43.82774" lon="3.61577">
        <ele>156.83</ele>
        <time>2015-11-30T10:23:22Z</time>
      </trkpt>
      <trkpt lat="43.82771" lon="3.61569">
        <ele>158.27</ele>
        <time>2015-11-30T10:23:33Z</time>
      </trkpt>
      <trkpt lat="43.82761" lon="3.61575">
        <ele>160.2</ele>
        <time>2015-11-30T10:23:47Z</time>
      </trkpt>
      <trkpt lat="43.82758" lon="3.61575">
        <ele>160.68</ele>
        <time>2015-11-30T10:23:49Z</time>
      </trkpt>
      <trkpt lat="43.8275" lon="3.61569">
        <ele>162.12</ele>
        <time>2015-11-30T10:23:56Z</time>
      </trkpt>
      <trkpt lat="43.82744" lon="3.61563">
        <ele>162.12</ele>
        <time>2015-11-30T10:24:01Z</time>
      </trkpt>
      <trkpt lat="43.8274" lon="3.61557">
        <ele>162.6</ele>
        <time>2015-11-30T10:24:05Z</time>
      </trkpt>
      <trkpt lat="43.82731" lon="3.61547">
        <ele>163.08</ele>
        <time>2015-11-30T10:24:14Z</time>
      </trkpt>
      <trkpt lat="43.82719" lon="3.61534">
        <ele>163.56</ele>
        <time>2015-11-30T10:24:27Z</time>
      </trkpt>
      <trkpt lat="43.82705" lon="3.6152">
        <ele>163.56</ele>
        <time>2015-11-30T10:24:41Z</time>
      </trkpt>
      <trkpt lat="43.82689" lon="3.61517">
        <ele>164.52</ele>
        <time>2015-11-30T10:24:53Z</time>
      </trkpt>
      <trkpt lat="43.82685" lon="3.6151">
        <ele>164.52</ele>
        <time>2015-11-30T10:24:57Z</time>
      </trkpt>
      <trkpt lat="43.82685" lon="3.61499">
        <ele>165</ele>
        <time>2015-11-30T10:25:02Z</time>
      </trkpt>
      <trkpt lat="43.82684" lon="3.61493">
        <ele>165.48</ele>
        <time>2015-11-30T10:25:06Z</time>
      </trkpt>
      <trkpt lat="43.82682" lon="3.61487">
        <ele>165.96</ele>
        <time>2015-11-30T10:25:12Z</time>
      </trkpt>
      <trkpt lat="43.82679" lon="3.61476">
        <ele>166.93</ele>
        <time>2015-11-30T10:25:19Z</time>
      </trkpt>
      <trkpt lat="43.82672" lon="3.61456">
        <ele>168.85</ele>
        <time>2015-11-30T10:25:32Z</time>
      </trkpt>
      <trkpt lat="43.82671" lon="3.6145">
        <ele>169.33</ele>
        <time>2015-11-30T10:25:35Z</time>
      </trkpt>
      <trkpt lat="43.82666" lon="3.61435">
        <ele>170.29</ele>
        <time>2015-11-30T10:25:45Z</time>
      </trkpt>
      <trkpt lat="43.8266" lon="3.61413">
        <ele>171.73</ele>
        <time>2015-11-30T10:25:59Z</time>
      </trkpt>
      <trkpt lat="43.82649" lon="3.61395">
        <ele>173.17</ele>
        <time>2015-11-30T10:26:13Z</time>
      </trkpt>
      <trkpt lat="43.82646" lon="3.6139">
        <ele>173.66</ele>
        <time>2015-11-30T10:26:17Z</time>
      </trkpt>
      <trkpt lat="43.82634" lon="3.61378">
        <ele>174.62</ele>
        <time>2015-11-30T10:26:29Z</time>
      </trkpt>
      <trkpt lat="43.82629" lon="3.61354">
        <ele>176.54</ele>
        <time>2015-11-30T10:26:43Z</time>
      </trkpt>
      <trkpt lat="43.82629" lon="3.61352">
        <ele>176.54</ele>
        <time>2015-11-30T10:26:44Z</time>
      </trkpt>
      <trkpt lat="43.8263" lon="3.61349">
        <ele>177.02</ele>
        <time>2015-11-30T10:26:46Z</time>
      </trkpt>
      <trkpt lat="43.82632" lon="3.61339">
        <ele>177.98</ele>
        <time>2015-11-30T10:26:54Z</time>
      </trkpt>
      <trkpt lat="43.82633" lon="3.61327">
        <ele>178.94</ele>
        <time>2015-11-30T10:27:00Z</time>
      </trkpt>
      <trkpt lat="43.82634" lon="3.61318">
        <ele>179.42</ele>
        <time>2015-11-30T10:27:05Z</time>
      </trkpt>
      <trkpt lat="43.82637" lon="3.61308">
        <ele>180.38</ele>
        <time>2015-11-30T10:27:15Z</time>
      </trkpt>
      <trkpt lat="43.82639" lon="3.61301">
        <ele>181.35</ele>
        <time>2015-11-30T10:27:20Z</time>
      </trkpt>
      <trkpt lat="43.8264" lon="3.61277">
        <ele>182.79</ele>
        <time>2015-11-30T10:27:32Z</time>
      </trkpt>
      <trkpt lat="43.82641" lon="3.61274">
        <ele>182.79</ele>
        <time>2015-11-30T10:27:34Z</time>
      </trkpt>
      <trkpt lat="43.82642" lon="3.61268">
        <ele>183.27</ele>
        <time>2015-11-30T10:27:38Z</time>
      </trkpt>
      <trkpt lat="43.82642" lon="3.61262">
        <ele>183.75</ele>
        <time>2015-11-30T10:27:41Z</time>
      </trkpt>
      <trkpt lat="43.82645" lon="3.61253">
        <ele>184.71</ele>
        <time>2015-11-30T10:27:48Z</time>
      </trkpt>
      <trkpt lat="43.82645" lon="3.61245">
        <ele>185.67</ele>
        <time>2015-11-30T10:27:53Z</time>
      </trkpt>
      <trkpt lat="43.82647" lon="3.61237">
        <ele>186.15</ele>
        <time>2015-11-30T10:27:58Z</time>
      </trkpt>
      <trkpt lat="43.82653" lon="3.61228">
        <ele>187.11</ele>
        <time>2015-11-30T10:28:06Z</time>
      </trkpt>
      <trkpt lat="43.82656" lon="3.61218">
        <ele>188.08</ele>
        <time>2015-11-30T10:28:13Z</time>
      </trkpt>
      <trkpt lat="43.82655" lon="3.61197">
        <ele>190.48</ele>
        <time>2015-11-30T10:28:28Z</time>
      </trkpt>
      <trkpt lat="43.82655" lon="3.61174">
        <ele>191.44</ele>
        <time>2015-11-30T10:28:41Z</time>
      </trkpt>
      <trkpt lat="43.82652" lon="3.61161">
        <ele>192.88</ele>
        <time>2015-11-30T10:28:50Z</time>
      </trkpt>
      <trkpt lat="43.82644" lon="3.61144">
        <ele>194.32</ele>
        <time>2015-11-30T10:29:04Z</time>
      </trkpt>
      <trkpt lat="43.82636" lon="3.61133">
        <ele>196.25</ele>
        <time>2015-11-30T10:29:16Z</time>
      </trkpt>
      <trkpt lat="43.8263" lon="3.6112">
        <ele>198.17</ele>
        <time>2015-11-30T10:29:28Z</time>
      </trkpt>
      <trkpt lat="43.8263" lon="3.61116">
        <ele>198.65</ele>
        <time>2015-11-30T10:29:39Z</time>
      </trkpt>
      <trkpt lat="43.8263" lon="3.61116">
        <ele>199.61</ele>
        <time>2015-11-30T10:29:57Z</time>
      </trkpt>
      <trkpt lat="43.8263" lon="3.61115">
        <ele>198.65</ele>
        <time>2015-11-30T10:30:13Z</time>
      </trkpt>
      <trkpt lat="43.82629" lon="3.61111">
        <ele>199.13</ele>
        <time>2015-11-30T10:30:19Z</time>
      </trkpt>
      <trkpt lat="43.82631" lon="3.61105">
        <ele>200.09</ele>
        <time>2015-11-30T10:30:30Z</time>
      </trkpt>
      <trkpt lat="43.82631" lon="3.61084">
        <ele>201.53</ele>
        <time>2015-11-30T10:30:44Z</time>
      </trkpt>
      <trkpt lat="43.82632" lon="3.6108">
        <ele>202.01</ele>
        <time>2015-11-30T10:30:48Z</time>
      </trkpt>
      <trkpt lat="43.82635" lon="3.61077">
        <ele>202.01</ele>
        <time>2015-11-30T10:30:51Z</time>
      </trkpt>
      <trkpt lat="43.82636" lon="3.61075">
        <ele>202.49</ele>
        <time>2015-11-30T10:30:53Z</time>
      </trkpt>
      <trkpt lat="43.82643" lon="3.61064">
        <ele>203.94</ele>
        <time>2015-11-30T10:31:04Z</time>
      </trkpt>
      <trkpt lat="43.82649" lon="3.61051">
        <ele>205.38</ele>
        <time>2015-11-30T10:31:17Z</time>
      </trkpt>
      <trkpt lat="43.82653" lon="3.61043">
        <ele>206.82</ele>
        <time>2015-11-30T10:31:27Z</time>
      </trkpt>
      <trkpt lat="43.82656" lon="3.61039">
        <ele>207.78</ele>
        <time>2015-11-30T10:31:38Z</time>
      </trkpt>
      <trkpt lat="43.82658" lon="3.61039">
        <ele>207.78</ele>
        <time>2015-11-30T10:32:01Z</time>
      </trkpt>
      <trkpt lat="43.82658" lon="3.61039">
        <ele>208.26</ele>
        <time>2015-11-30T10:32:23Z</time>
      </trkpt>
      <trkpt lat="43.82659" lon="3.61037">
        <ele>208.26</ele>
        <time>2015-11-30T10:32:24Z</time>
      </trkpt>
      <trkpt lat="43.82661" lon="3.6103">
        <ele>209.22</ele>
        <time>2015-11-30T10:32:35Z</time>
      </trkpt>
      <trkpt lat="43.82661" lon="3.6103">
        <ele>209.7</ele>
        <time>2015-11-30T10:32:53Z</time>
      </trkpt>
      <trkpt lat="43.82661" lon="3.6103">
        <ele>209.7</ele>
        <time>2015-11-30T10:33:11Z</time>
      </trkpt>
      <trkpt lat="43.82662" lon="3.6103">
        <ele>209.7</ele>
        <time>2015-11-30T10:33:29Z</time>
      </trkpt>
      <trkpt lat="43.82661" lon="3.61031">
        <ele>210.19</ele>
        <time>2015-11-30T10:33:51Z</time>
      </trkpt>
      <trkpt lat="43.82661" lon="3.61031">
        <ele>210.19</ele>
        <time>2015-11-30T10:34:15Z</time>
      </trkpt>
      <trkpt lat="43.82662" lon="3.61026">
        <ele>210.67</ele>
        <time>2015-11-30T10:34:42Z</time>
      </trkpt>
      <trkpt lat="43.82663" lon="3.61015">
        <ele>212.11</ele>
        <time>2015-11-30T10:34:51Z</time>
      </trkpt>
      <trkpt lat="43.82666" lon="3.61001">
        <ele>214.51</ele>
        <time>2015-11-30T10:35:03Z</time>
      </trkpt>
      <trkpt lat="43.82667" lon="3.60998">
        <ele>214.99</ele>
        <time>2015-11-30T10:35:05Z</time>
      </trkpt>
      <trkpt lat="43.82674" lon="3.60984">
        <ele>217.4</ele>
        <time>2015-11-30T10:35:19Z</time>
      </trkpt>
      <trkpt lat="43.82676" lon="3.60969">
        <ele>220.28</ele>
        <time>2015-11-30T10:35:34Z</time>
      </trkpt>
      <trkpt lat="43.82679" lon="3.6096">
        <ele>223.16</ele>
        <time>2015-11-30T10:35:47Z</time>
      </trkpt>
      <trkpt lat="43.82679" lon="3.60951">
        <ele>226.53</ele>
        <time>2015-11-30T10:35:57Z</time>
      </trkpt>
      <trkpt lat="43.82677" lon="3.60941">
        <ele>227.01</ele>
        <time>2015-11-30T10:36:07Z</time>
      </trkpt>
      <trkpt lat="43.82676" lon="3.60929">
        <ele>228.93</ele>
        <time>2015-11-30T10:36:19Z</time>
      </trkpt>
      <trkpt lat="43.82676" lon="3.60927">
        <ele>229.41</ele>
        <time>2015-11-30T10:36:22Z</time>
      </trkpt>
      <trkpt lat="43.82674" lon="3.60915">
        <ele>231.81</ele>
        <time>2015-11-30T10:36:34Z</time>
      </trkpt>
      <trkpt lat="43.82671" lon="3.60904">
        <ele>233.74</ele>
        <time>2015-11-30T10:36:45Z</time>
      </trkpt>
      <trkpt lat="43.82669" lon="3.609">
        <ele>234.7</ele>
        <time>2015-11-30T10:36:50Z</time>
      </trkpt>
      <trkpt lat="43.82665" lon="3.60886">
        <ele>236.14</ele>
        <time>2015-11-30T10:37:03Z</time>
      </trkpt>
      <trkpt lat="43.82659" lon="3.60877">
        <ele>239.02</ele>
        <time>2015-11-30T10:37:16Z</time>
      </trkpt>
      <trkpt lat="43.82654" lon="3.60866">
        <ele>240.47</ele>
        <time>2015-11-30T10:37:29Z</time>
      </trkpt>
      <trkpt lat="43.8265" lon="3.60854">
        <ele>241.91</ele>
        <time>2015-11-30T10:37:39Z</time>
      </trkpt>
      <trkpt lat="43.82643" lon="3.60836">
        <ele>243.35</ele>
        <time>2015-11-30T10:37:53Z</time>
      </trkpt>
      <trkpt lat="43.82638" lon="3.60819">
        <ele>244.79</ele>
        <time>2015-11-30T10:38:07Z</time>
      </trkpt>
      <trkpt lat="43.82638" lon="3.60819">
        <ele>244.79</ele>
        <time>2015-11-30T10:38:08Z</time>
      </trkpt>
      <trkpt lat="43.82638" lon="3.60806">
        <ele>246.72</ele>
        <time>2015-11-30T10:38:20Z</time>
      </trkpt>
      <trkpt lat="43.82644" lon="3.60794">
        <ele>249.12</ele>
        <time>2015-11-30T10:38:32Z</time>
      </trkpt>
      <trkpt lat="43.82649" lon="3.60785">
        <ele>251.52</ele>
        <time>2015-11-30T10:38:44Z</time>
      </trkpt>
      <trkpt lat="43.82654" lon="3.60778">
        <ele>253.93</ele>
        <time>2015-11-30T10:38:56Z</time>
      </trkpt>
      <trkpt lat="43.82656" lon="3.60777">
        <ele>254.89</ele>
        <time>2015-11-30T10:38:59Z</time>
      </trkpt>
      <trkpt lat="43.82662" lon="3.60771">
        <ele>255.85</ele>
        <time>2015-11-30T10:39:11Z</time>
      </trkpt>
      <trkpt lat="43.82672" lon="3.60766">
        <ele>257.77</ele>
        <time>2015-11-30T10:39:24Z</time>
      </trkpt>
      <trkpt lat="43.82675" lon="3.60766">
        <ele>258.25</ele>
        <time>2015-11-30T10:39:28Z</time>
      </trkpt>
      <trkpt lat="43.82684" lon="3.60761">
        <ele>260.65</ele>
        <time>2015-11-30T10:39:40Z</time>
      </trkpt>
      <trkpt lat="43.82693" lon="3.60757">
        <ele>263.06</ele>
        <time>2015-11-30T10:39:54Z</time>
      </trkpt>
      <trkpt lat="43.82694" lon="3.60753">
        <ele>265.46</ele>
        <time>2015-11-30T10:40:09Z</time>
      </trkpt>
      <trkpt lat="43.82691" lon="3.60753">
        <ele>266.42</ele>
        <time>2015-11-30T10:40:13Z</time>
      </trkpt>
      <trkpt lat="43.82685" lon="3.60744">
        <ele>268.35</ele>
        <time>2015-11-30T10:40:26Z</time>
      </trkpt>
      <trkpt lat="43.82685" lon="3.60727">
        <ele>271.23</ele>
        <time>2015-11-30T10:40:41Z</time>
      </trkpt>
      <trkpt lat="43.82682" lon="3.60716">
        <ele>273.63</ele>
        <time>2015-11-30T10:40:54Z</time>
      </trkpt>
      <trkpt lat="43.82681" lon="3.60714">
        <ele>274.11</ele>
        <time>2015-11-30T10:40:56Z</time>
      </trkpt>
      <trkpt lat="43.82677" lon="3.60703">
        <ele>276.04</ele>
        <time>2015-11-30T10:41:09Z</time>
      </trkpt>
      <trkpt lat="43.82676" lon="3.60691">
        <ele>277.48</ele>
        <time>2015-11-30T10:41:20Z</time>
      </trkpt>
      <trkpt lat="43.82673" lon="3.6068">
        <ele>279.4</ele>
        <time>2015-11-30T10:41:32Z</time>
      </trkpt>
      <trkpt lat="43.82671" lon="3.60668">
        <ele>282.28</ele>
        <time>2015-11-30T10:41:45Z</time>
      </trkpt>
      <trkpt lat="43.8267" lon="3.60657">
        <ele>283.73</ele>
        <time>2015-11-30T10:41:55Z</time>
      </trkpt>
      <trkpt lat="43.82668" lon="3.60642">
        <ele>286.61</ele>
        <time>2015-11-30T10:42:10Z</time>
      </trkpt>
      <trkpt lat="43.82663" lon="3.60636">
        <ele>288.53</ele>
        <time>2015-11-30T10:42:23Z</time>
      </trkpt>
      <trkpt lat="43.8266" lon="3.60627">
        <ele>290.46</ele>
        <time>2015-11-30T10:42:33Z</time>
      </trkpt>
      <trkpt lat="43.82656" lon="3.60609">
        <ele>292.86</ele>
        <time>2015-11-30T10:42:48Z</time>
      </trkpt>
      <trkpt lat="43.82654" lon="3.60597">
        <ele>294.78</ele>
        <time>2015-11-30T10:43:00Z</time>
      </trkpt>
      <trkpt lat="43.82654" lon="3.60585">
        <ele>296.22</ele>
        <time>2015-11-30T10:43:11Z</time>
      </trkpt>
      <trkpt lat="43.8265" lon="3.60571">
        <ele>299.11</ele>
        <time>2015-11-30T10:43:26Z</time>
      </trkpt>
      <trkpt lat="43.82651" lon="3.60562">
        <ele>300.07</ele>
        <time>2015-11-30T10:43:39Z</time>
      </trkpt>
      <trkpt lat="43.8265" lon="3.60554">
        <ele>302.47</ele>
        <time>2015-11-30T10:43:51Z</time>
      </trkpt>
      <trkpt lat="43.82647" lon="3.60542">
        <ele>304.88</ele>
        <time>2015-11-30T10:44:04Z</time>
      </trkpt>
      <trkpt lat="43.82643" lon="3.6053">
        <ele>307.76</ele>
        <time>2015-11-30T10:44:18Z</time>
      </trkpt>
      <trkpt lat="43.82641" lon="3.60523">
        <ele>310.16</ele>
        <time>2015-11-30T10:44:32Z</time>
      </trkpt>
      <trkpt lat="43.82638" lon="3.60511">
        <ele>313.05</ele>
        <time>2015-11-30T10:44:45Z</time>
      </trkpt>
      <trkpt lat="43.82635" lon="3.60504">
        <ele>315.45</ele>
        <time>2015-11-30T10:44:56Z</time>
      </trkpt>
      <trkpt lat="43.82631" lon="3.60495">
        <ele>317.85</ele>
        <time>2015-11-30T10:45:09Z</time>
      </trkpt>
      <trkpt lat="43.82626" lon="3.60488">
        <ele>319.78</ele>
        <time>2015-11-30T10:45:22Z</time>
      </trkpt>
      <trkpt lat="43.82618" lon="3.60482">
        <ele>321.7</ele>
        <time>2015-11-30T10:45:34Z</time>
      </trkpt>
      <trkpt lat="43.82613" lon="3.60472">
        <ele>323.62</ele>
        <time>2015-11-30T10:45:47Z</time>
      </trkpt>
      <trkpt lat="43.82606" lon="3.60462">
        <ele>326.02</ele>
        <time>2015-11-30T10:46:00Z</time>
      </trkpt>
      <trkpt lat="43.82599" lon="3.60456">
        <ele>328.43</ele>
        <time>2015-11-30T10:46:13Z</time>
      </trkpt>
      <trkpt lat="43.82595" lon="3.60447">
        <ele>331.31</ele>
        <time>2015-11-30T10:46:27Z</time>
      </trkpt>
      <trkpt lat="43.82592" lon="3.60434">
        <ele>333.23</ele>
        <time>2015-11-30T10:46:41Z</time>
      </trkpt>
      <trkpt lat="43.8259" lon="3.60421">
        <ele>335.64</ele>
        <time>2015-11-30T10:46:53Z</time>
      </trkpt>
      <trkpt lat="43.82589" lon="3.6041">
        <ele>337.08</ele>
        <time>2015-11-30T10:47:05Z</time>
      </trkpt>
      <trkpt lat="43.82589" lon="3.60402">
        <ele>339</ele>
        <time>2015-11-30T10:47:19Z</time>
      </trkpt>
      <trkpt lat="43.82588" lon="3.60384">
        <ele>339.48</ele>
        <time>2015-11-30T10:47:31Z</time>
      </trkpt>
      <trkpt lat="43.82588" lon="3.60368">
        <ele>340.92</ele>
        <time>2015-11-30T10:47:43Z</time>
      </trkpt>
      <trkpt lat="43.82592" lon="3.60352">
        <ele>342.85</ele>
        <time>2015-11-30T10:47:56Z</time>
      </trkpt>
      <trkpt lat="43.82596" lon="3.60335">
        <ele>344.77</ele>
        <time>2015-11-30T10:48:09Z</time>
      </trkpt>
      <trkpt lat="43.82601" lon="3.60318">
        <ele>346.21</ele>
        <time>2015-11-30T10:48:24Z</time>
      </trkpt>
      <trkpt lat="43.82603" lon="3.60311">
        <ele>347.17</ele>
        <time>2015-11-30T10:48:30Z</time>
      </trkpt>
      <trkpt lat="43.82605" lon="3.60302">
        <ele>348.13</ele>
        <time>2015-11-30T10:48:37Z</time>
      </trkpt>
      <trkpt lat="43.82606" lon="3.60282">
        <ele>349.58</ele>
        <time>2015-11-30T10:48:51Z</time>
      </trkpt>
      <trkpt lat="43.82611" lon="3.60268">
        <ele>351.5</ele>
        <time>2015-11-30T10:49:04Z</time>
      </trkpt>
      <trkpt lat="43.82612" lon="3.6026">
        <ele>352.46</ele>
        <time>2015-11-30T10:49:11Z</time>
      </trkpt>
      <trkpt lat="43.82613" lon="3.60246">
        <ele>354.38</ele>
        <time>2015-11-30T10:49:24Z</time>
      </trkpt>
      <trkpt lat="43.82613" lon="3.60231">
        <ele>356.31</ele>
        <time>2015-11-30T10:49:38Z</time>
      </trkpt>
      <trkpt lat="43.82611" lon="3.60217">
        <ele>357.75</ele>
        <time>2015-11-30T10:49:49Z</time>
      </trkpt>
      <trkpt lat="43.82613" lon="3.60199">
        <ele>360.15</ele>
        <time>2015-11-30T10:50:02Z</time>
      </trkpt>
      <trkpt lat="43.82615" lon="3.60184">
        <ele>362.55</ele>
        <time>2015-11-30T10:50:16Z</time>
      </trkpt>
      <trkpt lat="43.82615" lon="3.60179">
        <ele>363.04</ele>
        <time>2015-11-30T10:50:32Z</time>
      </trkpt>
      <trkpt lat="43.82616" lon="3.60175">
        <ele>363.04</ele>
        <time>2015-11-30T10:50:53Z</time>
      </trkpt>
      <trkpt lat="43.82616" lon="3.60158">
        <ele>364.96</ele>
        <time>2015-11-30T10:51:07Z</time>
      </trkpt>
      <trkpt lat="43.82616" lon="3.60142">
        <ele>367.36</ele>
        <time>2015-11-30T10:51:21Z</time>
      </trkpt>
      <trkpt lat="43.82615" lon="3.60128">
        <ele>369.28</ele>
        <time>2015-11-30T10:51:33Z</time>
      </trkpt>
      <trkpt lat="43.82618" lon="3.60117">
        <ele>371.21</ele>
        <time>2015-11-30T10:51:46Z</time>
      </trkpt>
      <trkpt lat="43.82624" lon="3.60113">
        <ele>373.13</ele>
        <time>2015-11-30T10:52:00Z</time>
      </trkpt>
      <trkpt lat="43.82635" lon="3.60126">
        <ele>375.05</ele>
        <time>2015-11-30T10:52:14Z</time>
      </trkpt>
      <trkpt lat="43.82643" lon="3.60138">
        <ele>376.97</ele>
        <time>2015-11-30T10:52:26Z</time>
      </trkpt>
      <trkpt lat="43.82648" lon="3.60149">
        <ele>377.94</ele>
        <time>2015-11-30T10:52:35Z</time>
      </trkpt>
      <trkpt lat="43.82655" lon="3.60158">
        <ele>380.34</ele>
        <time>2015-11-30T10:52:48Z</time>
      </trkpt>
      <trkpt lat="43.82662" lon="3.60174">
        <ele>381.78</ele>
        <time>2015-11-30T10:53:00Z</time>
      </trkpt>
      <trkpt lat="43.82664" lon="3.60166">
        <ele>384.18</ele>
        <time>2015-11-30T10:53:12Z</time>
      </trkpt>
      <trkpt lat="43.82666" lon="3.60156">
        <ele>386.11</ele>
        <time>2015-11-30T10:53:23Z</time>
      </trkpt>
      <trkpt lat="43.82668" lon="3.6014">
        <ele>388.51</ele>
        <time>2015-11-30T10:53:37Z</time>
      </trkpt>
      <trkpt lat="43.82667" lon="3.60125">
        <ele>390.91</ele>
        <time>2015-11-30T10:53:50Z</time>
      </trkpt>
      <trkpt lat="43.82669" lon="3.60112">
        <ele>392.36</ele>
        <time>2015-11-30T10:54:02Z</time>
      </trkpt>
      <trkpt lat="43.82678" lon="3.60121">
        <ele>394.76</ele>
        <time>2015-11-30T10:54:16Z</time>
      </trkpt>
      <trkpt lat="43.82679" lon="3.60122">
        <ele>395.24</ele>
        <time>2015-11-30T10:54:18Z</time>
      </trkpt>
      <trkpt lat="43.82681" lon="3.60124">
        <ele>395.72</ele>
        <time>2015-11-30T10:54:20Z</time>
      </trkpt>
      <trkpt lat="43.82684" lon="3.60128">
        <ele>396.2</ele>
        <time>2015-11-30T10:54:25Z</time>
      </trkpt>
      <trkpt lat="43.82694" lon="3.60133">
        <ele>398.6</ele>
        <time>2015-11-30T10:54:39Z</time>
      </trkpt>
      <trkpt lat="43.82702" lon="3.60144">
        <ele>400.53</ele>
        <time>2015-11-30T10:54:51Z</time>
      </trkpt>
      <trkpt lat="43.82711" lon="3.60155">
        <ele>402.93</ele>
        <time>2015-11-30T10:55:05Z</time>
      </trkpt>
      <trkpt lat="43.82716" lon="3.6016">
        <ele>404.37</ele>
        <time>2015-11-30T10:55:13Z</time>
      </trkpt>
      <trkpt lat="43.82723" lon="3.60169">
        <ele>406.29</ele>
        <time>2015-11-30T10:55:26Z</time>
      </trkpt>
      <trkpt lat="43.82731" lon="3.60177">
        <ele>408.7</ele>
        <time>2015-11-30T10:55:39Z</time>
      </trkpt>
      <trkpt lat="43.82734" lon="3.60178">
        <ele>409.18</ele>
        <time>2015-11-30T10:55:43Z</time>
      </trkpt>
      <trkpt lat="43.82744" lon="3.60185">
        <ele>411.1</ele>
        <time>2015-11-30T10:55:56Z</time>
      </trkpt>
      <trkpt lat="43.82754" lon="3.60189">
        <ele>413.02</ele>
        <time>2015-11-30T10:56:09Z</time>
      </trkpt>
      <trkpt lat="43.82762" lon="3.60198">
        <ele>414.47</ele>
        <time>2015-11-30T10:56:20Z</time>
      </trkpt>
      <trkpt lat="43.8277" lon="3.60202">
        <ele>416.39</ele>
        <time>2015-11-30T10:56:30Z</time>
      </trkpt>
      <trkpt lat="43.82779" lon="3.6021">
        <ele>417.83</ele>
        <time>2015-11-30T10:56:41Z</time>
      </trkpt>
      <trkpt lat="43.82787" lon="3.60216">
        <ele>418.79</ele>
        <time>2015-11-30T10:56:55Z</time>
      </trkpt>
      <trkpt lat="43.82794" lon="3.6022">
        <ele>419.27</ele>
        <time>2015-11-30T10:57:05Z</time>
      </trkpt>
      <trkpt lat="43.82796" lon="3.60216">
        <ele>421.19</ele>
        <time>2015-11-30T10:57:19Z</time>
      </trkpt>
      <trkpt lat="43.82795" lon="3.60216">
        <ele>421.19</ele>
        <time>2015-11-30T10:57:20Z</time>
      </trkpt>
      <trkpt lat="43.82792" lon="3.60212">
        <ele>421.68</ele>
        <time>2015-11-30T10:57:26Z</time>
      </trkpt>
      <trkpt lat="43.82786" lon="3.60201">
        <ele>423.6</ele>
        <time>2015-11-30T10:57:40Z</time>
      </trkpt>
      <trkpt lat="43.82784" lon="3.60195">
        <ele>425.52</ele>
        <time>2015-11-30T10:57:54Z</time>
      </trkpt>
      <trkpt lat="43.8278" lon="3.60184">
        <ele>426.96</ele>
        <time>2015-11-30T10:58:04Z</time>
      </trkpt>
      <trkpt lat="43.82774" lon="3.60171">
        <ele>428.4</ele>
        <time>2015-11-30T10:58:16Z</time>
      </trkpt>
      <trkpt lat="43.8277" lon="3.60156">
        <ele>430.33</ele>
        <time>2015-11-30T10:58:29Z</time>
      </trkpt>
      <trkpt lat="43.82769" lon="3.60142">
        <ele>431.77</ele>
        <time>2015-11-30T10:58:41Z</time>
      </trkpt>
      <trkpt lat="43.82771" lon="3.60125">
        <ele>434.65</ele>
        <time>2015-11-30T10:58:56Z</time>
      </trkpt>
      <trkpt lat="43.82769" lon="3.60111">
        <ele>436.1</ele>
        <time>2015-11-30T10:59:08Z</time>
      </trkpt>
      <trkpt lat="43.82773" lon="3.60106">
        <ele>438.02</ele>
        <time>2015-11-30T10:59:20Z</time>
      </trkpt>
      <trkpt lat="43.82774" lon="3.60106">
        <ele>438.02</ele>
        <time>2015-11-30T10:59:21Z</time>
      </trkpt>
      <trkpt lat="43.82778" lon="3.60111">
        <ele>439.46</ele>
        <time>2015-11-30T10:59:32Z</time>
      </trkpt>
      <trkpt lat="43.82784" lon="3.60121">
        <ele>440.9</ele>
        <time>2015-11-30T10:59:43Z</time>
      </trkpt>
      <trkpt lat="43.82792" lon="3.60129">
        <ele>442.82</ele>
        <time>2015-11-30T10:59:57Z</time>
      </trkpt>
      <trkpt lat="43.82794" lon="3.60132">
        <ele>444.27</ele>
        <time>2015-11-30T11:00:00Z</time>
      </trkpt>
      <trkpt lat="43.82803" lon="3.60142">
        <ele>444.75</ele>
        <time>2015-11-30T11:00:13Z</time>
      </trkpt>
      <trkpt lat="43.82812" lon="3.60146">
        <ele>447.15</ele>
        <time>2015-11-30T11:00:27Z</time>
      </trkpt>
      <trkpt lat="43.82813" lon="3.60141">
        <ele>448.11</ele>
        <time>2015-11-30T11:00:41Z</time>
      </trkpt>
      <trkpt lat="43.82813" lon="3.60142">
        <ele>448.11</ele>
        <time>2015-11-30T11:01:00Z</time>
      </trkpt>
      <trkpt lat="43.82812" lon="3.60141">
        <ele>448.59</ele>
        <time>2015-11-30T11:01:28Z</time>
      </trkpt>
      <trkpt lat="43.82811" lon="3.6014">
        <ele>449.07</ele>
        <time>2015-11-30T11:01:33Z</time>
      </trkpt>
      <trkpt lat="43.82807" lon="3.60132">
        <ele>450.52</ele>
        <time>2015-11-30T11:01:42Z</time>
      </trkpt>
      <trkpt lat="43.82807" lon="3.60126">
        <ele>451.96</ele>
        <time>2015-11-30T11:01:50Z</time>
      </trkpt>
      <trkpt lat="43.8281" lon="3.60124">
        <ele>453.88</ele>
        <time>2015-11-30T11:02:02Z</time>
      </trkpt>
      <trkpt lat="43.82818" lon="3.60132">
        <ele>456.28</ele>
        <time>2015-11-30T11:02:18Z</time>
      </trkpt>
      <trkpt lat="43.8282" lon="3.60123">
        <ele>458.21</ele>
        <time>2015-11-30T11:02:29Z</time>
      </trkpt>
      <trkpt lat="43.82819" lon="3.60119">
        <ele>460.61</ele>
        <time>2015-11-30T11:02:42Z</time>
      </trkpt>
      <trkpt lat="43.82815" lon="3.60109">
        <ele>463.01</ele>
        <time>2015-11-30T11:02:54Z</time>
      </trkpt>
      <trkpt lat="43.82815" lon="3.60103">
        <ele>463.49</ele>
        <time>2015-11-30T11:02:58Z</time>
      </trkpt>
      <trkpt lat="43.82819" lon="3.60098">
        <ele>464.93</ele>
        <time>2015-11-30T11:03:08Z</time>
      </trkpt>
      <trkpt lat="43.82821" lon="3.60086">
        <ele>466.86</ele>
        <time>2015-11-30T11:03:21Z</time>
      </trkpt>
      <trkpt lat="43.82822" lon="3.60077">
        <ele>468.3</ele>
        <time>2015-11-30T11:03:31Z</time>
      </trkpt>
      <trkpt lat="43.82824" lon="3.60072">
        <ele>470.22</ele>
        <time>2015-11-30T11:03:41Z</time>
      </trkpt>
      <trkpt lat="43.82831" lon="3.60075">
        <ele>472.14</ele>
        <time>2015-11-30T11:03:55Z</time>
      </trkpt>
      <trkpt lat="43.82834" lon="3.60068">
        <ele>474.55</ele>
        <time>2015-11-30T11:04:09Z</time>
      </trkpt>
      <trkpt lat="43.82837" lon="3.60065">
        <ele>475.99</ele>
        <time>2015-11-30T11:04:20Z</time>
      </trkpt>
      <trkpt lat="43.82842" lon="3.60071">
        <ele>477.43</ele>
        <time>2015-11-30T11:04:30Z</time>
      </trkpt>
      <trkpt lat="43.82848" lon="3.60081">
        <ele>479.84</ele>
        <time>2015-11-30T11:04:44Z</time>
      </trkpt>
      <trkpt lat="43.82849" lon="3.60082">
        <ele>480.8</ele>
        <time>2015-11-30T11:04:51Z</time>
      </trkpt>
      <trkpt lat="43.82848" lon="3.60072">
        <ele>482.24</ele>
        <time>2015-11-30T11:05:02Z</time>
      </trkpt>
      <trkpt lat="43.82853" lon="3.60065">
        <ele>484.16</ele>
        <time>2015-11-30T11:05:14Z</time>
      </trkpt>
      <trkpt lat="43.82857" lon="3.60073">
        <ele>486.08</ele>
        <time>2015-11-30T11:05:26Z</time>
      </trkpt>
      <trkpt lat="43.82858" lon="3.60072">
        <ele>486.56</ele>
        <time>2015-11-30T11:05:31Z</time>
      </trkpt>
      <trkpt lat="43.82861" lon="3.60062">
        <ele>488.97</ele>
        <time>2015-11-30T11:05:45Z</time>
      </trkpt>
      <trkpt lat="43.82859" lon="3.60054">
        <ele>490.89</ele>
        <time>2015-11-30T11:05:57Z</time>
      </trkpt>
      <trkpt lat="43.82856" lon="3.6005">
        <ele>492.81</ele>
        <time>2015-11-30T11:06:07Z</time>
      </trkpt>
      <trkpt lat="43.82865" lon="3.60052">
        <ele>495.22</ele>
        <time>2015-11-30T11:06:22Z</time>
      </trkpt>
      <trkpt lat="43.82872" lon="3.60062">
        <ele>496.66</ele>
        <time>2015-11-30T11:06:34Z</time>
      </trkpt>
      <trkpt lat="43.82879" lon="3.60073">
        <ele>499.06</ele>
        <time>2015-11-30T11:06:47Z</time>
      </trkpt>
      <trkpt lat="43.82884" lon="3.60082">
        <ele>500.98</ele>
        <time>2015-11-30T11:07:01Z</time>
      </trkpt>
      <trkpt lat="43.82891" lon="3.60088">
        <ele>502.91</ele>
        <time>2015-11-30T11:07:14Z</time>
      </trkpt>
      <trkpt lat="43.829" lon="3.60095">
        <ele>504.35</ele>
        <time>2015-11-30T11:07:27Z</time>
      </trkpt>
      <trkpt lat="43.82903" lon="3.60099">
        <ele>505.79</ele>
        <time>2015-11-30T11:07:39Z</time>
      </trkpt>
      <trkpt lat="43.82904" lon="3.60099">
        <ele>506.75</ele>
        <time>2015-11-30T11:08:01Z</time>
      </trkpt>
      <trkpt lat="43.82904" lon="3.60101">
        <ele>505.79</ele>
        <time>2015-11-30T11:08:23Z</time>
      </trkpt>
      <trkpt lat="43.82902" lon="3.60097">
        <ele>506.27</ele>
        <time>2015-11-30T11:08:40Z</time>
      </trkpt>
      <trkpt lat="43.82896" lon="3.60087">
        <ele>508.67</ele>
        <time>2015-11-30T11:08:55Z</time>
      </trkpt>
      <trkpt lat="43.82892" lon="3.6008">
        <ele>510.12</ele>
        <time>2015-11-30T11:09:09Z</time>
      </trkpt>
      <trkpt lat="43.82892" lon="3.60078">
        <ele>510.12</ele>
        <time>2015-11-30T11:09:31Z</time>
      </trkpt>
      <trkpt lat="43.82892" lon="3.60077">
        <ele>510.6</ele>
        <time>2015-11-30T11:09:52Z</time>
      </trkpt>
      <trkpt lat="43.82892" lon="3.60074">
        <ele>511.08</ele>
        <time>2015-11-30T11:10:10Z</time>
      </trkpt>
      <trkpt lat="43.82892" lon="3.60057">
        <ele>512.52</ele>
        <time>2015-11-30T11:10:23Z</time>
      </trkpt>
      <trkpt lat="43.82893" lon="3.60046">
        <ele>514.92</ele>
        <time>2015-11-30T11:10:37Z</time>
      </trkpt>
      <trkpt lat="43.82892" lon="3.60034">
        <ele>516.85</ele>
        <time>2015-11-30T11:10:49Z</time>
      </trkpt>
      <trkpt lat="43.82888" lon="3.60028">
        <ele>519.25</ele>
        <time>2015-11-30T11:11:01Z</time>
      </trkpt>
      <trkpt lat="43.82895" lon="3.60026">
        <ele>521.17</ele>
        <time>2015-11-30T11:11:13Z</time>
      </trkpt>
      <trkpt lat="43.82903" lon="3.6003">
        <ele>522.61</ele>
        <time>2015-11-30T11:11:25Z</time>
      </trkpt>
      <trkpt lat="43.82912" lon="3.60042">
        <ele>524.54</ele>
        <time>2015-11-30T11:11:37Z</time>
      </trkpt>
      <trkpt lat="43.82918" lon="3.60055">
        <ele>526.46</ele>
        <time>2015-11-30T11:11:50Z</time>
      </trkpt>
      <trkpt lat="43.82923" lon="3.60067">
        <ele>526.94</ele>
        <time>2015-11-30T11:12:02Z</time>
      </trkpt>
      <trkpt lat="43.82928" lon="3.6008">
        <ele>528.38</ele>
        <time>2015-11-30T11:12:14Z</time>
      </trkpt>
      <trkpt lat="43.82935" lon="3.60086">
        <ele>529.82</ele>
        <time>2015-11-30T11:12:28Z</time>
      </trkpt>
      <trkpt lat="43.82932" lon="3.60082">
        <ele>530.79</ele>
        <time>2015-11-30T11:12:38Z</time>
      </trkpt>
      <trkpt lat="43.82929" lon="3.60072">
        <ele>533.19</ele>
        <time>2015-11-30T11:12:51Z</time>
      </trkpt>
      <trkpt lat="43.82927" lon="3.60061">
        <ele>534.63</ele>
        <time>2015-11-30T11:13:03Z</time>
      </trkpt>
      <trkpt lat="43.82932" lon="3.60063">
        <ele>536.07</ele>
        <time>2015-11-30T11:13:14Z</time>
      </trkpt>
      <trkpt lat="43.82939" lon="3.60074">
        <ele>537.99</ele>
        <time>2015-11-30T11:13:28Z</time>
      </trkpt>
      <trkpt lat="43.8294" lon="3.60072">
        <ele>539.92</ele>
        <time>2015-11-30T11:13:41Z</time>
      </trkpt>
      <trkpt lat="43.82937" lon="3.6006">
        <ele>542.32</ele>
        <time>2015-11-30T11:13:55Z</time>
      </trkpt>
      <trkpt lat="43.82937" lon="3.6005">
        <ele>543.76</ele>
        <time>2015-11-30T11:14:06Z</time>
      </trkpt>
      <trkpt lat="43.82936" lon="3.60037">
        <ele>545.69</ele>
        <time>2015-11-30T11:14:19Z</time>
      </trkpt>
      <trkpt lat="43.82935" lon="3.60024">
        <ele>547.61</ele>
        <time>2015-11-30T11:14:32Z</time>
      </trkpt>
      <trkpt lat="43.82935" lon="3.60008">
        <ele>550.49</ele>
        <time>2015-11-30T11:14:47Z</time>
      </trkpt>
      <trkpt lat="43.82934" lon="3.60004">
        <ele>550.97</ele>
        <time>2015-11-30T11:14:50Z</time>
      </trkpt>
      <trkpt lat="43.82928" lon="3.59994">
        <ele>552.9</ele>
        <time>2015-11-30T11:15:03Z</time>
      </trkpt>
      <trkpt lat="43.82927" lon="3.59993">
        <ele>552.9</ele>
        <time>2015-11-30T11:15:05Z</time>
      </trkpt>
      <trkpt lat="43.82922" lon="3.59991">
        <ele>554.34</ele>
        <time>2015-11-30T11:15:11Z</time>
      </trkpt>
      <trkpt lat="43.82921" lon="3.59982">
        <ele>555.78</ele>
        <time>2015-11-30T11:15:23Z</time>
      </trkpt>
      <trkpt lat="43.82926" lon="3.59978">
        <ele>557.7</ele>
        <time>2015-11-30T11:15:35Z</time>
      </trkpt>
      <trkpt lat="43.82924" lon="3.59976">
        <ele>558.18</ele>
        <time>2015-11-30T11:15:39Z</time>
      </trkpt>
      <trkpt lat="43.82921" lon="3.59976">
        <ele>559.14</ele>
        <time>2015-11-30T11:15:44Z</time>
      </trkpt>
      <trkpt lat="43.8292" lon="3.59975">
        <ele>559.14</ele>
        <time>2015-11-30T11:15:46Z</time>
      </trkpt>
      <trkpt lat="43.82909" lon="3.59971">
        <ele>560.59</ele>
        <time>2015-11-30T11:15:59Z</time>
      </trkpt>
      <trkpt lat="43.82912" lon="3.59963">
        <ele>560.59</ele>
        <time>2015-11-30T11:16:16Z</time>
      </trkpt>
      <trkpt lat="43.82914" lon="3.59961">
        <ele>561.07</ele>
        <time>2015-11-30T11:16:36Z</time>
      </trkpt>
      <trkpt lat="43.82914" lon="3.59959">
        <ele>561.07</ele>
        <time>2015-11-30T11:16:53Z</time>
      </trkpt>
      <trkpt lat="43.82914" lon="3.59959">
        <ele>561.07</ele>
        <time>2015-11-30T11:16:54Z</time>
      </trkpt>
      <trkpt lat="43.82915" lon="3.59955">
        <ele>561.07</ele>
        <time>2015-11-30T11:16:57Z</time>
      </trkpt>
      <trkpt lat="43.82917" lon="3.59948">
        <ele>560.59</ele>
        <time>2015-11-30T11:17:02Z</time>
      </trkpt>
      <trkpt lat="43.82917" lon="3.59936">
        <ele>559.62</ele>
        <time>2015-11-30T11:17:10Z</time>
      </trkpt>
      <trkpt lat="43.82919" lon="3.5993">
        <ele>558.66</ele>
        <time>2015-11-30T11:17:14Z</time>
      </trkpt>
      <trkpt lat="43.82919" lon="3.59908">
        <ele>557.7</ele>
        <time>2015-11-30T11:17:27Z</time>
      </trkpt>
      <trkpt lat="43.8292" lon="3.59904">
        <ele>558.18</ele>
        <time>2015-11-30T11:17:31Z</time>
      </trkpt>
      <trkpt lat="43.82919" lon="3.59891">
        <ele>558.18</ele>
        <time>2015-11-30T11:17:38Z</time>
      </trkpt>
      <trkpt lat="43.82921" lon="3.59882">
        <ele>557.7</ele>
        <time>2015-11-30T11:17:44Z</time>
      </trkpt>
      <trkpt lat="43.82919" lon="3.59865">
        <ele>556.26</ele>
        <time>2015-11-30T11:17:56Z</time>
      </trkpt>
      <trkpt lat="43.82919" lon="3.59853">
        <ele>554.82</ele>
        <time>2015-11-30T11:18:05Z</time>
      </trkpt>
      <trkpt lat="43.82919" lon="3.59838">
        <ele>553.38</ele>
        <time>2015-11-30T11:18:14Z</time>
      </trkpt>
      <trkpt lat="43.8292" lon="3.5983">
        <ele>552.9</ele>
        <time>2015-11-30T11:18:19Z</time>
      </trkpt>
      <trkpt lat="43.82922" lon="3.59819">
        <ele>551.93</ele>
        <time>2015-11-30T11:18:28Z</time>
      </trkpt>
      <trkpt lat="43.8292" lon="3.598">
        <ele>551.93</ele>
        <time>2015-11-30T11:18:39Z</time>
      </trkpt>
      <trkpt lat="43.82918" lon="3.59796">
        <ele>551.93</ele>
        <time>2015-11-30T11:18:44Z</time>
      </trkpt>
      <trkpt lat="43.82917" lon="3.59792">
        <ele>551.93</ele>
        <time>2015-11-30T11:18:47Z</time>
      </trkpt>
      <trkpt lat="43.82913" lon="3.59788">
        <ele>552.41</ele>
        <time>2015-11-30T11:18:53Z</time>
      </trkpt>
      <trkpt lat="43.82909" lon="3.59787">
        <ele>552.9</ele>
        <time>2015-11-30T11:18:57Z</time>
      </trkpt>
      <trkpt lat="43.82905" lon="3.59783">
        <ele>552.9</ele>
        <time>2015-11-30T11:19:02Z</time>
      </trkpt>
      <trkpt lat="43.82904" lon="3.5978">
        <ele>553.86</ele>
        <time>2015-11-30T11:19:05Z</time>
      </trkpt>
      <trkpt lat="43.82894" lon="3.59769">
        <ele>554.82</ele>
        <time>2015-11-30T11:19:19Z</time>
      </trkpt>
      <trkpt lat="43.82882" lon="3.59759">
        <ele>556.26</ele>
        <time>2015-11-30T11:19:33Z</time>
      </trkpt>
      <trkpt lat="43.82875" lon="3.59754">
        <ele>557.22</ele>
        <time>2015-11-30T11:19:41Z</time>
      </trkpt>
      <trkpt lat="43.82872" lon="3.5975">
        <ele>557.7</ele>
        <time>2015-11-30T11:19:46Z</time>
      </trkpt>
      <trkpt lat="43.82866" lon="3.59737">
        <ele>559.62</ele>
        <time>2015-11-30T11:19:59Z</time>
      </trkpt>
      <trkpt lat="43.82865" lon="3.59731">
        <ele>560.59</ele>
        <time>2015-11-30T11:20:06Z</time>
      </trkpt>
      <trkpt lat="43.82864" lon="3.59725">
        <ele>561.07</ele>
        <time>2015-11-30T11:20:10Z</time>
      </trkpt>
      <trkpt lat="43.8286" lon="3.59715">
        <ele>563.47</ele>
        <time>2015-11-30T11:20:23Z</time>
      </trkpt>
      <trkpt lat="43.82853" lon="3.59709">
        <ele>564.91</ele>
        <time>2015-11-30T11:20:33Z</time>
      </trkpt>
      <trkpt lat="43.82845" lon="3.59704">
        <ele>566.35</ele>
        <time>2015-11-30T11:20:44Z</time>
      </trkpt>
      <trkpt lat="43.82844" lon="3.59701">
        <ele>566.83</ele>
        <time>2015-11-30T11:20:46Z</time>
      </trkpt>
      <trkpt lat="43.82836" lon="3.59688">
        <ele>568.28</ele>
        <time>2015-11-30T11:21:00Z</time>
      </trkpt>
      <trkpt lat="43.82828" lon="3.5968">
        <ele>570.2</ele>
        <time>2015-11-30T11:21:14Z</time>
      </trkpt>
      <trkpt lat="43.82824" lon="3.59664">
        <ele>572.6</ele>
        <time>2015-11-30T11:21:28Z</time>
      </trkpt>
      <trkpt lat="43.8283" lon="3.5966">
        <ele>574.04</ele>
        <time>2015-11-30T11:21:40Z</time>
      </trkpt>
      <trkpt lat="43.82838" lon="3.5966">
        <ele>575.97</ele>
        <time>2015-11-30T11:21:52Z</time>
      </trkpt>
      <trkpt lat="43.82841" lon="3.59656">
        <ele>577.89</ele>
        <time>2015-11-30T11:22:05Z</time>
      </trkpt>
      <trkpt lat="43.82843" lon="3.59645">
        <ele>579.81</ele>
        <time>2015-11-30T11:22:18Z</time>
      </trkpt>
      <trkpt lat="43.82851" lon="3.59636">
        <ele>582.22</ele>
        <time>2015-11-30T11:22:31Z</time>
      </trkpt>
      <trkpt lat="43.82857" lon="3.59646">
        <ele>583.66</ele>
        <time>2015-11-30T11:22:43Z</time>
      </trkpt>
      <trkpt lat="43.82863" lon="3.59648">
        <ele>585.1</ele>
        <time>2015-11-30T11:22:53Z</time>
      </trkpt>
      <trkpt lat="43.82872" lon="3.5965">
        <ele>587.02</ele>
        <time>2015-11-30T11:23:05Z</time>
      </trkpt>
      <trkpt lat="43.82878" lon="3.59652">
        <ele>588.46</ele>
        <time>2015-11-30T11:23:17Z</time>
      </trkpt>
      <trkpt lat="43.82877" lon="3.59651">
        <ele>588.46</ele>
        <time>2015-11-30T11:23:19Z</time>
      </trkpt>
      <trkpt lat="43.82869" lon="3.59642">
        <ele>591.35</ele>
        <time>2015-11-30T11:23:34Z</time>
      </trkpt>
      <trkpt lat="43.82872" lon="3.59631">
        <ele>592.79</ele>
        <time>2015-11-30T11:23:44Z</time>
      </trkpt>
      <trkpt lat="43.82872" lon="3.59628">
        <ele>593.27</ele>
        <time>2015-11-30T11:23:47Z</time>
      </trkpt>
      <trkpt lat="43.82878" lon="3.59611">
        <ele>594.71</ele>
        <time>2015-11-30T11:24:03Z</time>
      </trkpt>
      <trkpt lat="43.82886" lon="3.59603">
        <ele>595.67</ele>
        <time>2015-11-30T11:24:14Z</time>
      </trkpt>
      <trkpt lat="43.82892" lon="3.59594">
        <ele>597.6</ele>
        <time>2015-11-30T11:24:25Z</time>
      </trkpt>
      <trkpt lat="43.82898" lon="3.59593">
        <ele>598.08</ele>
        <time>2015-11-30T11:24:31Z</time>
      </trkpt>
      <trkpt lat="43.829" lon="3.59591">
        <ele>598.56</ele>
        <time>2015-11-30T11:24:34Z</time>
      </trkpt>
      <trkpt lat="43.82906" lon="3.5958">
        <ele>600.48</ele>
        <time>2015-11-30T11:24:46Z</time>
      </trkpt>
      <trkpt lat="43.82912" lon="3.59569">
        <ele>603.36</ele>
        <time>2015-11-30T11:25:01Z</time>
      </trkpt>
      <trkpt lat="43.82916" lon="3.59556">
        <ele>605.77</ele>
        <time>2015-11-30T11:25:15Z</time>
      </trkpt>
      <trkpt lat="43.82921" lon="3.59546">
        <ele>608.17</ele>
        <time>2015-11-30T11:25:27Z</time>
      </trkpt>
      <trkpt lat="43.82926" lon="3.59537">
        <ele>610.09</ele>
        <time>2015-11-30T11:25:38Z</time>
      </trkpt>
      <trkpt lat="43.82924" lon="3.59533">
        <ele>612.5</ele>
        <time>2015-11-30T11:25:49Z</time>
      </trkpt>
      <trkpt lat="43.82923" lon="3.59519">
        <ele>613.46</ele>
        <time>2015-11-30T11:26:01Z</time>
      </trkpt>
      <trkpt lat="43.82929" lon="3.59512">
        <ele>615.86</ele>
        <time>2015-11-30T11:26:15Z</time>
      </trkpt>
      <trkpt lat="43.82937" lon="3.59513">
        <ele>617.3</ele>
        <time>2015-11-30T11:26:27Z</time>
      </trkpt>
      <trkpt lat="43.82942" lon="3.59516">
        <ele>619.23</ele>
        <time>2015-11-30T11:26:37Z</time>
      </trkpt>
      <trkpt lat="43.82942" lon="3.59512">
        <ele>620.67</ele>
        <time>2015-11-30T11:26:48Z</time>
      </trkpt>
      <trkpt lat="43.82942" lon="3.59503">
        <ele>623.07</ele>
        <time>2015-11-30T11:27:01Z</time>
      </trkpt>
      <trkpt lat="43.82948" lon="3.59503">
        <ele>624.51</ele>
        <time>2015-11-30T11:27:13Z</time>
      </trkpt>
      <trkpt lat="43.82956" lon="3.5951">
        <ele>626.44</ele>
        <time>2015-11-30T11:27:26Z</time>
      </trkpt>
      <trkpt lat="43.8296" lon="3.59517">
        <ele>627.4</ele>
        <time>2015-11-30T11:27:35Z</time>
      </trkpt>
      <trkpt lat="43.82964" lon="3.59526">
        <ele>627.88</ele>
        <time>2015-11-30T11:27:45Z</time>
      </trkpt>
      <trkpt lat="43.82966" lon="3.5954">
        <ele>628.84</ele>
        <time>2015-11-30T11:27:54Z</time>
      </trkpt>
      <trkpt lat="43.82966" lon="3.59559">
        <ele>629.8</ele>
        <time>2015-11-30T11:28:06Z</time>
      </trkpt>
      <trkpt lat="43.82967" lon="3.59573">
        <ele>631.24</ele>
        <time>2015-11-30T11:28:19Z</time>
      </trkpt>
      <trkpt lat="43.82969" lon="3.59582">
        <ele>632.2</ele>
        <time>2015-11-30T11:28:28Z</time>
      </trkpt>
      <trkpt lat="43.82969" lon="3.59593">
        <ele>634.61</ele>
        <time>2015-11-30T11:28:40Z</time>
      </trkpt>
      <trkpt lat="43.82966" lon="3.59588">
        <ele>636.05</ele>
        <time>2015-11-30T11:28:50Z</time>
      </trkpt>
      <trkpt lat="43.82968" lon="3.59584">
        <ele>637.49</ele>
        <time>2015-11-30T11:29:00Z</time>
      </trkpt>
      <trkpt lat="43.82969" lon="3.5957">
        <ele>639.41</ele>
        <time>2015-11-30T11:29:14Z</time>
      </trkpt>
      <trkpt lat="43.82972" lon="3.5956">
        <ele>641.82</ele>
        <time>2015-11-30T11:29:26Z</time>
      </trkpt>
      <trkpt lat="43.82973" lon="3.59551">
        <ele>644.22</ele>
        <time>2015-11-30T11:29:37Z</time>
      </trkpt>
      <trkpt lat="43.82975" lon="3.59542">
        <ele>646.14</ele>
        <time>2015-11-30T11:29:48Z</time>
      </trkpt>
      <trkpt lat="43.82978" lon="3.5953">
        <ele>648.55</ele>
        <time>2015-11-30T11:30:01Z</time>
      </trkpt>
      <trkpt lat="43.82981" lon="3.59514">
        <ele>650.95</ele>
        <time>2015-11-30T11:30:15Z</time>
      </trkpt>
      <trkpt lat="43.82984" lon="3.595">
        <ele>653.35</ele>
        <time>2015-11-30T11:30:29Z</time>
      </trkpt>
      <trkpt lat="43.82984" lon="3.59493">
        <ele>656.24</ele>
        <time>2015-11-30T11:30:43Z</time>
      </trkpt>
      <trkpt lat="43.82988" lon="3.59483">
        <ele>658.16</ele>
        <time>2015-11-30T11:30:55Z</time>
      </trkpt>
      <trkpt lat="43.8299" lon="3.59475">
        <ele>660.56</ele>
        <time>2015-11-30T11:31:07Z</time>
      </trkpt>
      <trkpt lat="43.82988" lon="3.59464">
        <ele>662.01</ele>
        <time>2015-11-30T11:31:20Z</time>
      </trkpt>
      <trkpt lat="43.82982" lon="3.59457">
        <ele>663.93</ele>
        <time>2015-11-30T11:31:31Z</time>
      </trkpt>
      <trkpt lat="43.82983" lon="3.5944">
        <ele>665.37</ele>
        <time>2015-11-30T11:31:45Z</time>
      </trkpt>
      <trkpt lat="43.82984" lon="3.59428">
        <ele>666.81</ele>
        <time>2015-11-30T11:31:57Z</time>
      </trkpt>
      <trkpt lat="43.82984" lon="3.59414">
        <ele>668.25</ele>
        <time>2015-11-30T11:32:09Z</time>
      </trkpt>
      <trkpt lat="43.8298" lon="3.59399">
        <ele>670.18</ele>
        <time>2015-11-30T11:32:23Z</time>
      </trkpt>
      <trkpt lat="43.82981" lon="3.594">
        <ele>670.18</ele>
        <time>2015-11-30T11:32:29Z</time>
      </trkpt>
      <trkpt lat="43.82976" lon="3.594">
        <ele>670.18</ele>
        <time>2015-11-30T11:32:43Z</time>
      </trkpt>
      <trkpt lat="43.82977" lon="3.59399">
        <ele>670.66</ele>
        <time>2015-11-30T11:33:14Z</time>
      </trkpt>
      <trkpt lat="43.82978" lon="3.59398">
        <ele>670.66</ele>
        <time>2015-11-30T11:33:31Z</time>
      </trkpt>
      <trkpt lat="43.8298" lon="3.59395">
        <ele>670.66</ele>
        <time>2015-11-30T11:33:45Z</time>
      </trkpt>
      <trkpt lat="43.8298" lon="3.59395">
        <ele>670.66</ele>
        <time>2015-11-30T11:34:08Z</time>
      </trkpt>
      <trkpt lat="43.8298" lon="3.59395">
        <ele>670.66</ele>
        <time>2015-11-30T11:34:25Z</time>
      </trkpt>
      <trkpt lat="43.82979" lon="3.59395">
        <ele>670.18</ele>
        <time>2015-11-30T11:34:42Z</time>
      </trkpt>
      <trkpt lat="43.82979" lon="3.59395">
        <ele>671.14</ele>
        <time>2015-11-30T11:35:02Z</time>
      </trkpt>
      <trkpt lat="43.82979" lon="3.59395">
        <ele>670.66</ele>
        <time>2015-11-30T11:35:06Z</time>
      </trkpt>
      <trkpt lat="43.82981" lon="3.59391">
        <ele>670.66</ele>
        <time>2015-11-30T11:35:10Z</time>
      </trkpt>
      <trkpt lat="43.82984" lon="3.59388">
        <ele>670.66</ele>
        <time>2015-11-30T11:35:14Z</time>
      </trkpt>
      <trkpt lat="43.82988" lon="3.59384">
        <ele>671.14</ele>
        <time>2015-11-30T11:35:18Z</time>
      </trkpt>
      <trkpt lat="43.82989" lon="3.59379">
        <ele>671.14</ele>
        <time>2015-11-30T11:35:21Z</time>
      </trkpt>
      <trkpt lat="43.82988" lon="3.59365">
        <ele>671.14</ele>
        <time>2015-11-30T11:35:27Z</time>
      </trkpt>
      <trkpt lat="43.82991" lon="3.59338">
        <ele>672.1</ele>
        <time>2015-11-30T11:35:41Z</time>
      </trkpt>
      <trkpt lat="43.82992" lon="3.59325">
        <ele>672.58</ele>
        <time>2015-11-30T11:35:50Z</time>
      </trkpt>
      <trkpt lat="43.82995" lon="3.59308">
        <ele>673.06</ele>
        <time>2015-11-30T11:36:03Z</time>
      </trkpt>
      <trkpt lat="43.82999" lon="3.59306">
        <ele>673.54</ele>
        <time>2015-11-30T11:36:07Z</time>
      </trkpt>
      <trkpt lat="43.83" lon="3.59303">
        <ele>673.06</ele>
        <time>2015-11-30T11:36:10Z</time>
      </trkpt>
      <trkpt lat="43.82998" lon="3.59277">
        <ele>673.54</ele>
        <time>2015-11-30T11:36:26Z</time>
      </trkpt>
      <trkpt lat="43.82998" lon="3.59266">
        <ele>673.54</ele>
        <time>2015-11-30T11:36:33Z</time>
      </trkpt>
      <trkpt lat="43.83003" lon="3.59256">
        <ele>673.54</ele>
        <time>2015-11-30T11:36:40Z</time>
      </trkpt>
      <trkpt lat="43.83005" lon="3.59256">
        <ele>673.54</ele>
        <time>2015-11-30T11:36:42Z</time>
      </trkpt>
      <trkpt lat="43.8301" lon="3.5925">
        <ele>674.02</ele>
        <time>2015-11-30T11:36:48Z</time>
      </trkpt>
      <trkpt lat="43.83016" lon="3.59236">
        <ele>674.02</ele>
        <time>2015-11-30T11:36:58Z</time>
      </trkpt>
      <trkpt lat="43.83018" lon="3.59231">
        <ele>674.5</ele>
        <time>2015-11-30T11:37:02Z</time>
      </trkpt>
      <trkpt lat="43.83022" lon="3.59214">
        <ele>674.98</ele>
        <time>2015-11-30T11:37:14Z</time>
      </trkpt>
      <trkpt lat="43.83024" lon="3.59205">
        <ele>674.98</ele>
        <time>2015-11-30T11:37:23Z</time>
      </trkpt>
      <trkpt lat="43.83026" lon="3.59202">
        <ele>674.98</ele>
        <time>2015-11-30T11:37:26Z</time>
      </trkpt>
      <trkpt lat="43.83029" lon="3.59183">
        <ele>675.94</ele>
        <time>2015-11-30T11:37:39Z</time>
      </trkpt>
      <trkpt lat="43.83029" lon="3.59177">
        <ele>676.42</ele>
        <time>2015-11-30T11:37:43Z</time>
      </trkpt>
      <trkpt lat="43.83029" lon="3.59166">
        <ele>677.39</ele>
        <time>2015-11-30T11:37:58Z</time>
      </trkpt>
      <trkpt lat="43.83029" lon="3.59164">
        <ele>676.91</ele>
        <time>2015-11-30T11:38:16Z</time>
      </trkpt>
      <trkpt lat="43.8303" lon="3.59162">
        <ele>677.39</ele>
        <time>2015-11-30T11:38:44Z</time>
      </trkpt>
      <trkpt lat="43.8303" lon="3.5916">
        <ele>677.39</ele>
        <time>2015-11-30T11:39:08Z</time>
      </trkpt>
      <trkpt lat="43.83038" lon="3.5915">
        <ele>678.35</ele>
        <time>2015-11-30T11:39:21Z</time>
      </trkpt>
      <trkpt lat="43.83041" lon="3.59149">
        <ele>678.35</ele>
        <time>2015-11-30T11:39:24Z</time>
      </trkpt>
      <trkpt lat="43.83053" lon="3.59145">
        <ele>678.35</ele>
        <time>2015-11-30T11:39:40Z</time>
      </trkpt>
      <trkpt lat="43.83061" lon="3.59137">
        <ele>679.31</ele>
        <time>2015-11-30T11:39:55Z</time>
      </trkpt>
      <trkpt lat="43.83067" lon="3.59132">
        <ele>679.31</ele>
        <time>2015-11-30T11:40:01Z</time>
      </trkpt>
      <trkpt lat="43.8307" lon="3.59129">
        <ele>679.31</ele>
        <time>2015-11-30T11:40:04Z</time>
      </trkpt>
      <trkpt lat="43.83073" lon="3.59128">
        <ele>679.31</ele>
        <time>2015-11-30T11:40:07Z</time>
      </trkpt>
      <trkpt lat="43.83079" lon="3.5912">
        <ele>679.79</ele>
        <time>2015-11-30T11:40:14Z</time>
      </trkpt>
      <trkpt lat="43.83083" lon="3.59118">
        <ele>679.79</ele>
        <time>2015-11-30T11:40:17Z</time>
      </trkpt>
      <trkpt lat="43.83094" lon="3.59103">
        <ele>680.27</ele>
        <time>2015-11-30T11:40:30Z</time>
      </trkpt>
      <trkpt lat="43.831" lon="3.59098">
        <ele>680.27</ele>
        <time>2015-11-30T11:40:36Z</time>
      </trkpt>
      <trkpt lat="43.83106" lon="3.5909">
        <ele>681.23</ele>
        <time>2015-11-30T11:40:43Z</time>
      </trkpt>
      <trkpt lat="43.83112" lon="3.59084">
        <ele>681.71</ele>
        <time>2015-11-30T11:40:49Z</time>
      </trkpt>
      <trkpt lat="43.8312" lon="3.59068">
        <ele>683.15</ele>
        <time>2015-11-30T11:41:02Z</time>
      </trkpt>
      <trkpt lat="43.83124" lon="3.59061">
        <ele>683.15</ele>
        <time>2015-11-30T11:41:08Z</time>
      </trkpt>
      <trkpt lat="43.83131" lon="3.59052">
        <ele>684.12</ele>
        <time>2015-11-30T11:41:17Z</time>
      </trkpt>
      <trkpt lat="43.83133" lon="3.59049">
        <ele>684.6</ele>
        <time>2015-11-30T11:41:20Z</time>
      </trkpt>
      <trkpt lat="43.83136" lon="3.59039">
        <ele>685.56</ele>
        <time>2015-11-30T11:41:37Z</time>
      </trkpt>
      <trkpt lat="43.83137" lon="3.59041">
        <ele>685.08</ele>
        <time>2015-11-30T11:41:56Z</time>
      </trkpt>
      <trkpt lat="43.83136" lon="3.5904">
        <ele>685.56</ele>
        <time>2015-11-30T11:41:58Z</time>
      </trkpt>
      <trkpt lat="43.83133" lon="3.59037">
        <ele>685.56</ele>
        <time>2015-11-30T11:42:02Z</time>
      </trkpt>
      <trkpt lat="43.83121" lon="3.59025">
        <ele>687</ele>
        <time>2015-11-30T11:42:17Z</time>
      </trkpt>
      <trkpt lat="43.83119" lon="3.59019">
        <ele>687.48</ele>
        <time>2015-11-30T11:42:21Z</time>
      </trkpt>
      <trkpt lat="43.83117" lon="3.59012">
        <ele>688.44</ele>
        <time>2015-11-30T11:42:26Z</time>
      </trkpt>
      <trkpt lat="43.83113" lon="3.59004">
        <ele>689.4</ele>
        <time>2015-11-30T11:42:33Z</time>
      </trkpt>
      <trkpt lat="43.83112" lon="3.58995">
        <ele>689.88</ele>
        <time>2015-11-30T11:42:38Z</time>
      </trkpt>
      <trkpt lat="43.83112" lon="3.58977">
        <ele>691.81</ele>
        <time>2015-11-30T11:42:54Z</time>
      </trkpt>
      <trkpt lat="43.83111" lon="3.58975">
        <ele>691.81</ele>
        <time>2015-11-30T11:43:05Z</time>
      </trkpt>
      <trkpt lat="43.83109" lon="3.58972">
        <ele>692.29</ele>
        <time>2015-11-30T11:43:08Z</time>
      </trkpt>
      <trkpt lat="43.83102" lon="3.5896">
        <ele>694.21</ele>
        <time>2015-11-30T11:43:23Z</time>
      </trkpt>
      <trkpt lat="43.83096" lon="3.58957">
        <ele>695.17</ele>
        <time>2015-11-30T11:43:31Z</time>
      </trkpt>
      <trkpt lat="43.83089" lon="3.58954">
        <ele>695.65</ele>
        <time>2015-11-30T11:43:37Z</time>
      </trkpt>
      <trkpt lat="43.83083" lon="3.58951">
        <ele>696.13</ele>
        <time>2015-11-30T11:43:45Z</time>
      </trkpt>
      <trkpt lat="43.83073" lon="3.58942">
        <ele>697.09</ele>
        <time>2015-11-30T11:43:58Z</time>
      </trkpt>
      <trkpt lat="43.83066" lon="3.58932">
        <ele>697.09</ele>
        <time>2015-11-30T11:44:09Z</time>
      </trkpt>
      <trkpt lat="43.83064" lon="3.58932">
        <ele>697.09</ele>
        <time>2015-11-30T11:44:11Z</time>
      </trkpt>
      <trkpt lat="43.8306" lon="3.5893">
        <ele>696.61</ele>
        <time>2015-11-30T11:44:15Z</time>
      </trkpt>
      <trkpt lat="43.83054" lon="3.58911">
        <ele>697.57</ele>
        <time>2015-11-30T11:44:30Z</time>
      </trkpt>
      <trkpt lat="43.83052" lon="3.58899">
        <ele>699.5</ele>
        <time>2015-11-30T11:44:44Z</time>
      </trkpt>
      <trkpt lat="43.83061" lon="3.58882">
        <ele>701.9</ele>
        <time>2015-11-30T11:44:56Z</time>
      </trkpt>
      <trkpt lat="43.83062" lon="3.58868">
        <ele>703.34</ele>
        <time>2015-11-30T11:45:07Z</time>
      </trkpt>
      <trkpt lat="43.83061" lon="3.58857">
        <ele>705.26</ele>
        <time>2015-11-30T11:45:18Z</time>
      </trkpt>
      <trkpt lat="43.83061" lon="3.58844">
        <ele>707.19</ele>
        <time>2015-11-30T11:45:30Z</time>
      </trkpt>
      <trkpt lat="43.83058" lon="3.58833">
        <ele>709.11</ele>
        <time>2015-11-30T11:45:42Z</time>
      </trkpt>
      <trkpt lat="43.83057" lon="3.58824">
        <ele>710.55</ele>
        <time>2015-11-30T11:45:54Z</time>
      </trkpt>
      <trkpt lat="43.83056" lon="3.58823">
        <ele>710.55</ele>
        <time>2015-11-30T11:45:58Z</time>
      </trkpt>
      <trkpt lat="43.83053" lon="3.5882">
        <ele>711.03</ele>
        <time>2015-11-30T11:46:02Z</time>
      </trkpt>
      <trkpt lat="43.83045" lon="3.58811">
        <ele>712.47</ele>
        <time>2015-11-30T11:46:15Z</time>
      </trkpt>
      <trkpt lat="43.83039" lon="3.58809">
        <ele>712.95</ele>
        <time>2015-11-30T11:46:22Z</time>
      </trkpt>
      <trkpt lat="43.8303" lon="3.58798">
        <ele>715.36</ele>
        <time>2015-11-30T11:46:37Z</time>
      </trkpt>
      <trkpt lat="43.83026" lon="3.58792">
        <ele>716.8</ele>
        <time>2015-11-30T11:46:44Z</time>
      </trkpt>
      <trkpt lat="43.83022" lon="3.58786">
        <ele>717.76</ele>
        <time>2015-11-30T11:46:52Z</time>
      </trkpt>
      <trkpt lat="43.83022" lon="3.58774">
        <ele>719.2</ele>
        <time>2015-11-30T11:47:06Z</time>
      </trkpt>
      <trkpt lat="43.83022" lon="3.58771">
        <ele>719.68</ele>
        <time>2015-11-30T11:47:22Z</time>
      </trkpt>
      <trkpt lat="43.83019" lon="3.58761">
        <ele>721.61</ele>
        <time>2015-11-30T11:47:33Z</time>
      </trkpt>
      <trkpt lat="43.83017" lon="3.5876">
        <ele>722.09</ele>
        <time>2015-11-30T11:47:36Z</time>
      </trkpt>
      <trkpt lat="43.83015" lon="3.58758">
        <ele>723.05</ele>
        <time>2015-11-30T11:47:39Z</time>
      </trkpt>
      <trkpt lat="43.83009" lon="3.58752">
        <ele>724.97</ele>
        <time>2015-11-30T11:47:50Z</time>
      </trkpt>
      <trkpt lat="43.83001" lon="3.58751">
        <ele>726.89</ele>
        <time>2015-11-30T11:48:01Z</time>
      </trkpt>
      <trkpt lat="43.82998" lon="3.5874">
        <ele>728.82</ele>
        <time>2015-11-30T11:48:13Z</time>
      </trkpt>
      <trkpt lat="43.82991" lon="3.58736">
        <ele>730.74</ele>
        <time>2015-11-30T11:48:24Z</time>
      </trkpt>
      <trkpt lat="43.82989" lon="3.58723">
        <ele>733.62</ele>
        <time>2015-11-30T11:48:36Z</time>
      </trkpt>
      <trkpt lat="43.82983" lon="3.58714">
        <ele>736.03</ele>
        <time>2015-11-30T11:48:50Z</time>
      </trkpt>
      <trkpt lat="43.82983" lon="3.58702">
        <ele>738.43</ele>
        <time>2015-11-30T11:49:03Z</time>
      </trkpt>
      <trkpt lat="43.8298" lon="3.58692">
        <ele>741.79</ele>
        <time>2015-11-30T11:49:16Z</time>
      </trkpt>
      <trkpt lat="43.82979" lon="3.58681">
        <ele>743.72</ele>
        <time>2015-11-30T11:49:28Z</time>
      </trkpt>
      <trkpt lat="43.82978" lon="3.58669">
        <ele>746.6</ele>
        <time>2015-11-30T11:49:40Z</time>
      </trkpt>
      <trkpt lat="43.82976" lon="3.58658">
        <ele>748.52</ele>
        <time>2015-11-30T11:49:51Z</time>
      </trkpt>
      <trkpt lat="43.82971" lon="3.58647">
        <ele>750.45</ele>
        <time>2015-11-30T11:50:03Z</time>
      </trkpt>
      <trkpt lat="43.82968" lon="3.58642">
        <ele>751.41</ele>
        <time>2015-11-30T11:50:09Z</time>
      </trkpt>
      <trkpt lat="43.82968" lon="3.58631">
        <ele>753.33</ele>
        <time>2015-11-30T11:50:25Z</time>
      </trkpt>
      <trkpt lat="43.82969" lon="3.58629">
        <ele>752.85</ele>
        <time>2015-11-30T11:50:50Z</time>
      </trkpt>
      <trkpt lat="43.82969" lon="3.58629">
        <ele>752.85</ele>
        <time>2015-11-30T11:51:15Z</time>
      </trkpt>
      <trkpt lat="43.82969" lon="3.58628">
        <ele>752.85</ele>
        <time>2015-11-30T11:51:48Z</time>
      </trkpt>
      <trkpt lat="43.82968" lon="3.58625">
        <ele>753.33</ele>
        <time>2015-11-30T11:51:58Z</time>
      </trkpt>
      <trkpt lat="43.82961" lon="3.58619">
        <ele>756.21</ele>
        <time>2015-11-30T11:52:10Z</time>
      </trkpt>
      <trkpt lat="43.82955" lon="3.58607">
        <ele>758.14</ele>
        <time>2015-11-30T11:52:23Z</time>
      </trkpt>
      <trkpt lat="43.82956" lon="3.58605">
        <ele>758.14</ele>
        <time>2015-11-30T11:52:44Z</time>
      </trkpt>
      <trkpt lat="43.82956" lon="3.58605">
        <ele>758.14</ele>
        <time>2015-11-30T11:52:57Z</time>
      </trkpt>
      <trkpt lat="43.82955" lon="3.58604">
        <ele>759.1</ele>
        <time>2015-11-30T11:53:06Z</time>
      </trkpt>
      <trkpt lat="43.82952" lon="3.58597">
        <ele>759.58</ele>
        <time>2015-11-30T11:53:12Z</time>
      </trkpt>
      <trkpt lat="43.8295" lon="3.58593">
        <ele>760.06</ele>
        <time>2015-11-30T11:53:15Z</time>
      </trkpt>
      <trkpt lat="43.82948" lon="3.58585">
        <ele>760.06</ele>
        <time>2015-11-30T11:53:21Z</time>
      </trkpt>
      <trkpt lat="43.82944" lon="3.58573">
        <ele>761.02</ele>
        <time>2015-11-30T11:53:31Z</time>
      </trkpt>
      <trkpt lat="43.82943" lon="3.58567">
        <ele>761.02</ele>
        <time>2015-11-30T11:53:36Z</time>
      </trkpt>
      <trkpt lat="43.82941" lon="3.58559">
        <ele>759.1</ele>
        <time>2015-11-30T11:53:42Z</time>
      </trkpt>
      <trkpt lat="43.82937" lon="3.58555">
        <ele>759.1</ele>
        <time>2015-11-30T11:53:47Z</time>
      </trkpt>
      <trkpt lat="43.82933" lon="3.58549">
        <ele>759.1</ele>
        <time>2015-11-30T11:53:55Z</time>
      </trkpt>
      <trkpt lat="43.8293" lon="3.58547">
        <ele>759.1</ele>
        <time>2015-11-30T11:53:58Z</time>
      </trkpt>
      <trkpt lat="43.82927" lon="3.58542">
        <ele>759.1</ele>
        <time>2015-11-30T11:54:02Z</time>
      </trkpt>
      <trkpt lat="43.82925" lon="3.5854">
        <ele>759.1</ele>
        <time>2015-11-30T11:54:04Z</time>
      </trkpt>
      <trkpt lat="43.82914" lon="3.58532">
        <ele>759.1</ele>
        <time>2015-11-30T11:54:15Z</time>
      </trkpt>
      <trkpt lat="43.82905" lon="3.58525">
        <ele>759.1</ele>
        <time>2015-11-30T11:54:24Z</time>
      </trkpt>
      <trkpt lat="43.82899" lon="3.5852">
        <ele>759.1</ele>
        <time>2015-11-30T11:54:31Z</time>
      </trkpt>
      <trkpt lat="43.82895" lon="3.58518">
        <ele>760.06</ele>
        <time>2015-11-30T11:54:35Z</time>
      </trkpt>
      <trkpt lat="43.82888" lon="3.58514">
        <ele>760.06</ele>
        <time>2015-11-30T11:54:42Z</time>
      </trkpt>
      <trkpt lat="43.82879" lon="3.58518">
        <ele>761.02</ele>
        <time>2015-11-30T11:54:52Z</time>
      </trkpt>
      <trkpt lat="43.82871" lon="3.5852">
        <ele>761.5</ele>
        <time>2015-11-30T11:55:00Z</time>
      </trkpt>
      <trkpt lat="43.82868" lon="3.58519">
        <ele>761.02</ele>
        <time>2015-11-30T11:55:05Z</time>
      </trkpt>
      <trkpt lat="43.82867" lon="3.58519">
        <ele>761.5</ele>
        <time>2015-11-30T11:55:07Z</time>
      </trkpt>
      <trkpt lat="43.82861" lon="3.58522">
        <ele>761.02</ele>
        <time>2015-11-30T11:55:12Z</time>
      </trkpt>
      <trkpt lat="43.82851" lon="3.58523">
        <ele>760.06</ele>
        <time>2015-11-30T11:55:22Z</time>
      </trkpt>
      <trkpt lat="43.82843" lon="3.58527">
        <ele>760.06</ele>
        <time>2015-11-30T11:55:29Z</time>
      </trkpt>
      <trkpt lat="43.82829" lon="3.58525">
        <ele>757.66</ele>
        <time>2015-11-30T11:55:41Z</time>
      </trkpt>
      <trkpt lat="43.82823" lon="3.58521">
        <ele>755.73</ele>
        <time>2015-11-30T11:55:51Z</time>
      </trkpt>
      <trkpt lat="43.8282" lon="3.58519">
        <ele>754.77</ele>
        <time>2015-11-30T11:55:55Z</time>
      </trkpt>
      <trkpt lat="43.82817" lon="3.58519">
        <ele>754.77</ele>
        <time>2015-11-30T11:55:58Z</time>
      </trkpt>
      <trkpt lat="43.82814" lon="3.58521">
        <ele>754.29</ele>
        <time>2015-11-30T11:56:01Z</time>
      </trkpt>
      <trkpt lat="43.82804" lon="3.58527">
        <ele>753.81</ele>
        <time>2015-11-30T11:56:11Z</time>
      </trkpt>
      <trkpt lat="43.82798" lon="3.58532">
        <ele>753.81</ele>
        <time>2015-11-30T11:56:17Z</time>
      </trkpt>
      <trkpt lat="43.82796" lon="3.58534">
        <ele>754.29</ele>
        <time>2015-11-30T11:56:20Z</time>
      </trkpt>
      <trkpt lat="43.82792" lon="3.58536">
        <ele>753.81</ele>
        <time>2015-11-30T11:56:24Z</time>
      </trkpt>
      <trkpt lat="43.82786" lon="3.58542">
        <ele>754.29</ele>
        <time>2015-11-30T11:56:33Z</time>
      </trkpt>
      <trkpt lat="43.8278" lon="3.58544">
        <ele>753.33</ele>
        <time>2015-11-30T11:56:39Z</time>
      </trkpt>
      <trkpt lat="43.82773" lon="3.58547">
        <ele>752.37</ele>
        <time>2015-11-30T11:56:46Z</time>
      </trkpt>
      <trkpt lat="43.8277" lon="3.58549">
        <ele>751.89</ele>
        <time>2015-11-30T11:56:49Z</time>
      </trkpt>
      <trkpt lat="43.82766" lon="3.5855">
        <ele>751.41</ele>
        <time>2015-11-30T11:56:53Z</time>
      </trkpt>
      <trkpt lat="43.82762" lon="3.58554">
        <ele>750.93</ele>
        <time>2015-11-30T11:56:58Z</time>
      </trkpt>
      <trkpt lat="43.82751" lon="3.58555">
        <ele>748.52</ele>
        <time>2015-11-30T11:57:08Z</time>
      </trkpt>
      <trkpt lat="43.82748" lon="3.58558">
        <ele>748.52</ele>
        <time>2015-11-30T11:57:11Z</time>
      </trkpt>
      <trkpt lat="43.82744" lon="3.58561">
        <ele>748.04</ele>
        <time>2015-11-30T11:57:16Z</time>
      </trkpt>
      <trkpt lat="43.82741" lon="3.58565">
        <ele>748.52</ele>
        <time>2015-11-30T11:57:20Z</time>
      </trkpt>
      <trkpt lat="43.82734" lon="3.58568">
        <ele>748.04</ele>
        <time>2015-11-30T11:57:27Z</time>
      </trkpt>
      <trkpt lat="43.82722" lon="3.5858">
        <ele>747.56</ele>
        <time>2015-11-30T11:57:40Z</time>
      </trkpt>
      <trkpt lat="43.82708" lon="3.58587">
        <ele>747.56</ele>
        <time>2015-11-30T11:57:53Z</time>
      </trkpt>
      <trkpt lat="43.82702" lon="3.58585">
        <ele>745.64</ele>
        <time>2015-11-30T11:57:59Z</time>
      </trkpt>
      <trkpt lat="43.827" lon="3.58584">
        <ele>745.64</ele>
        <time>2015-11-30T11:58:01Z</time>
      </trkpt>
      <trkpt lat="43.82696" lon="3.58581">
        <ele>745.16</ele>
        <time>2015-11-30T11:58:06Z</time>
      </trkpt>
      <trkpt lat="43.82693" lon="3.58579">
        <ele>744.68</ele>
        <time>2015-11-30T11:58:10Z</time>
      </trkpt>
      <trkpt lat="43.82689" lon="3.58577">
        <ele>744.2</ele>
        <time>2015-11-30T11:58:14Z</time>
      </trkpt>
      <trkpt lat="43.82681" lon="3.58568">
        <ele>744.2</ele>
        <time>2015-11-30T11:58:24Z</time>
      </trkpt>
      <trkpt lat="43.8268" lon="3.58568">
        <ele>743.72</ele>
        <time>2015-11-30T11:58:25Z</time>
      </trkpt>
      <trkpt lat="43.8267" lon="3.58564">
        <ele>743.72</ele>
        <time>2015-11-30T11:58:36Z</time>
      </trkpt>
      <trkpt lat="43.82669" lon="3.58563">
        <ele>743.24</ele>
        <time>2015-11-30T11:58:43Z</time>
      </trkpt>
      <trkpt lat="43.82664" lon="3.58562">
        <ele>743.24</ele>
        <time>2015-11-30T11:58:47Z</time>
      </trkpt>
      <trkpt lat="43.82657" lon="3.58564">
        <ele>743.24</ele>
        <time>2015-11-30T11:58:53Z</time>
      </trkpt>
      <trkpt lat="43.82651" lon="3.58564">
        <ele>743.24</ele>
        <time>2015-11-30T11:58:58Z</time>
      </trkpt>
      <trkpt lat="43.82642" lon="3.58573">
        <ele>743.24</ele>
        <time>2015-11-30T11:59:08Z</time>
      </trkpt>
      <trkpt lat="43.82638" lon="3.58561">
        <ele>744.2</ele>
        <time>2015-11-30T11:59:18Z</time>
      </trkpt>
      <trkpt lat="43.82637" lon="3.58552">
        <ele>745.16</ele>
        <time>2015-11-30T11:59:25Z</time>
      </trkpt>
      <trkpt lat="43.82632" lon="3.58543">
        <ele>746.12</ele>
        <time>2015-11-30T11:59:36Z</time>
      </trkpt>
      <trkpt lat="43.8263" lon="3.58541">
        <ele>746.6</ele>
        <time>2015-11-30T11:59:39Z</time>
      </trkpt>
      <trkpt lat="43.82629" lon="3.58534">
        <ele>746.6</ele>
        <time>2015-11-30T11:59:45Z</time>
      </trkpt>
      <trkpt lat="43.8263" lon="3.58524">
        <ele>746.6</ele>
        <time>2015-11-30T11:59:52Z</time>
      </trkpt>
      <trkpt lat="43.82624" lon="3.58512">
        <ele>748.04</ele>
        <time>2015-11-30T12:00:04Z</time>
      </trkpt>
      <trkpt lat="43.82625" lon="3.58501">
        <ele>748.52</ele>
        <time>2015-11-30T12:00:12Z</time>
      </trkpt>
      <trkpt lat="43.82624" lon="3.58499">
        <ele>748.52</ele>
        <time>2015-11-30T12:00:14Z</time>
      </trkpt>
      <trkpt lat="43.82622" lon="3.58487">
        <ele>749.49</ele>
        <time>2015-11-30T12:00:27Z</time>
      </trkpt>
      <trkpt lat="43.82618" lon="3.58478">
        <ele>750.93</ele>
        <time>2015-11-30T12:00:37Z</time>
      </trkpt>
      <trkpt lat="43.82615" lon="3.58476">
        <ele>751.41</ele>
        <time>2015-11-30T12:00:42Z</time>
      </trkpt>
      <trkpt lat="43.82614" lon="3.58461">
        <ele>752.37</ele>
        <time>2015-11-30T12:00:57Z</time>
      </trkpt>
      <trkpt lat="43.82614" lon="3.5846">
        <ele>752.37</ele>
        <time>2015-11-30T12:01:00Z</time>
      </trkpt>
      <trkpt lat="43.82614" lon="3.58458">
        <ele>752.37</ele>
        <time>2015-11-30T12:01:02Z</time>
      </trkpt>
      <trkpt lat="43.82611" lon="3.58442">
        <ele>753.81</ele>
        <time>2015-11-30T12:01:14Z</time>
      </trkpt>
      <trkpt lat="43.82606" lon="3.58427">
        <ele>755.25</ele>
        <time>2015-11-30T12:01:26Z</time>
      </trkpt>
      <trkpt lat="43.82605" lon="3.58423">
        <ele>755.73</ele>
        <time>2015-11-30T12:01:29Z</time>
      </trkpt>
      <trkpt lat="43.82605" lon="3.58418">
        <ele>756.21</ele>
        <time>2015-11-30T12:01:33Z</time>
      </trkpt>
      <trkpt lat="43.82605" lon="3.58412">
        <ele>756.21</ele>
        <time>2015-11-30T12:01:38Z</time>
      </trkpt>
      <trkpt lat="43.82606" lon="3.58408">
        <ele>756.69</ele>
        <time>2015-11-30T12:01:41Z</time>
      </trkpt>
      <trkpt lat="43.82607" lon="3.58402">
        <ele>756.69</ele>
        <time>2015-11-30T12:01:45Z</time>
      </trkpt>
      <trkpt lat="43.82608" lon="3.58398">
        <ele>756.69</ele>
        <time>2015-11-30T12:01:48Z</time>
      </trkpt>
      <trkpt lat="43.82608" lon="3.58388">
        <ele>756.21</ele>
        <time>2015-11-30T12:01:54Z</time>
      </trkpt>
      <trkpt lat="43.82603" lon="3.58375">
        <ele>757.18</ele>
        <time>2015-11-30T12:02:05Z</time>
      </trkpt>
      <trkpt lat="43.82602" lon="3.58375">
        <ele>757.66</ele>
        <time>2015-11-30T12:02:07Z</time>
      </trkpt>
      <trkpt lat="43.826" lon="3.58376">
        <ele>758.62</ele>
        <time>2015-11-30T12:02:10Z</time>
      </trkpt>
      <trkpt lat="43.82592" lon="3.58377">
        <ele>761.98</ele>
        <time>2015-11-30T12:02:22Z</time>
      </trkpt>
      <trkpt lat="43.82585" lon="3.5838">
        <ele>764.87</ele>
        <time>2015-11-30T12:02:34Z</time>
      </trkpt>
      <trkpt lat="43.82583" lon="3.5838">
        <ele>764.87</ele>
        <time>2015-11-30T12:02:36Z</time>
      </trkpt>
      <trkpt lat="43.8258" lon="3.58373">
        <ele>766.79</ele>
        <time>2015-11-30T12:02:47Z</time>
      </trkpt>
      <trkpt lat="43.82575" lon="3.58369">
        <ele>767.75</ele>
        <time>2015-11-30T12:02:54Z</time>
      </trkpt>
      <trkpt lat="43.82567" lon="3.58357">
        <ele>769.19</ele>
        <time>2015-11-30T12:03:05Z</time>
      </trkpt>
      <trkpt lat="43.82566" lon="3.58356">
        <ele>769.67</ele>
        <time>2015-11-30T12:03:07Z</time>
      </trkpt>
      <trkpt lat="43.8256" lon="3.58354">
        <ele>770.63</ele>
        <time>2015-11-30T12:03:19Z</time>
      </trkpt>
      <trkpt lat="43.82555" lon="3.58354">
        <ele>771.6</ele>
        <time>2015-11-30T12:03:26Z</time>
      </trkpt>
      <trkpt lat="43.82551" lon="3.58355">
        <ele>773.04</ele>
        <time>2015-11-30T12:03:30Z</time>
      </trkpt>
      <trkpt lat="43.82543" lon="3.5835">
        <ele>774.96</ele>
        <time>2015-11-30T12:03:40Z</time>
      </trkpt>
      <trkpt lat="43.82541" lon="3.58349">
        <ele>774.96</ele>
        <time>2015-11-30T12:03:43Z</time>
      </trkpt>
      <trkpt lat="43.8254" lon="3.58344">
        <ele>775.44</ele>
        <time>2015-11-30T12:03:46Z</time>
      </trkpt>
      <trkpt lat="43.82533" lon="3.58337">
        <ele>776.88</ele>
        <time>2015-11-30T12:03:55Z</time>
      </trkpt>
      <trkpt lat="43.8253" lon="3.58331">
        <ele>777.36</ele>
        <time>2015-11-30T12:04:00Z</time>
      </trkpt>
      <trkpt lat="43.82526" lon="3.58327">
        <ele>777.84</ele>
        <time>2015-11-30T12:04:05Z</time>
      </trkpt>
      <trkpt lat="43.82527" lon="3.58319">
        <ele>778.81</ele>
        <time>2015-11-30T12:04:21Z</time>
      </trkpt>
      <trkpt lat="43.82527" lon="3.58318">
        <ele>778.81</ele>
        <time>2015-11-30T12:04:42Z</time>
      </trkpt>
      <trkpt lat="43.82527" lon="3.58317">
        <ele>779.29</ele>
        <time>2015-11-30T12:05:01Z</time>
      </trkpt>
      <trkpt lat="43.82528" lon="3.58313">
        <ele>778.81</ele>
        <time>2015-11-30T12:05:04Z</time>
      </trkpt>
      <trkpt lat="43.82529" lon="3.58307">
        <ele>779.77</ele>
        <time>2015-11-30T12:05:08Z</time>
      </trkpt>
      <trkpt lat="43.82529" lon="3.58293">
        <ele>778.32</ele>
        <time>2015-11-30T12:05:18Z</time>
      </trkpt>
      <trkpt lat="43.8253" lon="3.58273">
        <ele>776.88</ele>
        <time>2015-11-30T12:05:32Z</time>
      </trkpt>
      <trkpt lat="43.82532" lon="3.58267">
        <ele>776.88</ele>
        <time>2015-11-30T12:05:37Z</time>
      </trkpt>
      <trkpt lat="43.82536" lon="3.58259">
        <ele>775.92</ele>
        <time>2015-11-30T12:05:45Z</time>
      </trkpt>
      <trkpt lat="43.82531" lon="3.58244">
        <ele>777.36</ele>
        <time>2015-11-30T12:05:57Z</time>
      </trkpt>
      <trkpt lat="43.82527" lon="3.58234">
        <ele>774.96</ele>
        <time>2015-11-30T12:06:06Z</time>
      </trkpt>
      <trkpt lat="43.82528" lon="3.58232">
        <ele>773.04</ele>
        <time>2015-11-30T12:06:10Z</time>
      </trkpt>
      <trkpt lat="43.82528" lon="3.58231">
        <ele>772.56</ele>
        <time>2015-11-30T12:06:11Z</time>
      </trkpt>
      <trkpt lat="43.82527" lon="3.58223">
        <ele>769.67</ele>
        <time>2015-11-30T12:06:19Z</time>
      </trkpt>
      <trkpt lat="43.82527" lon="3.58222">
        <ele>770.15</ele>
        <time>2015-11-30T12:06:20Z</time>
      </trkpt>
      <trkpt lat="43.82527" lon="3.58217">
        <ele>768.71</ele>
        <time>2015-11-30T12:06:32Z</time>
      </trkpt>
      <trkpt lat="43.82527" lon="3.58208">
        <ele>766.79</ele>
        <time>2015-11-30T12:06:44Z</time>
      </trkpt>
      <trkpt lat="43.82528" lon="3.58204">
        <ele>765.83</ele>
        <time>2015-11-30T12:06:57Z</time>
      </trkpt>
      <trkpt lat="43.82529" lon="3.582">
        <ele>764.39</ele>
        <time>2015-11-30T12:07:01Z</time>
      </trkpt>
      <trkpt lat="43.82531" lon="3.58195">
        <ele>763.9</ele>
        <time>2015-11-30T12:07:05Z</time>
      </trkpt>
      <trkpt lat="43.82535" lon="3.5819">
        <ele>762.46</ele>
        <time>2015-11-30T12:07:12Z</time>
      </trkpt>
      <trkpt lat="43.82535" lon="3.58188">
        <ele>761.5</ele>
        <time>2015-11-30T12:07:22Z</time>
      </trkpt>
      <trkpt lat="43.82536" lon="3.58181">
        <ele>760.54</ele>
        <time>2015-11-30T12:07:34Z</time>
      </trkpt>
      <trkpt lat="43.8253" lon="3.58177">
        <ele>759.1</ele>
        <time>2015-11-30T12:07:42Z</time>
      </trkpt>
      <trkpt lat="43.82527" lon="3.58175">
        <ele>758.62</ele>
        <time>2015-11-30T12:07:54Z</time>
      </trkpt>
      <trkpt lat="43.82528" lon="3.58173">
        <ele>758.14</ele>
        <time>2015-11-30T12:07:59Z</time>
      </trkpt>
      <trkpt lat="43.82531" lon="3.58173">
        <ele>759.1</ele>
        <time>2015-11-30T12:08:07Z</time>
      </trkpt>
      <trkpt lat="43.82531" lon="3.58171">
        <ele>758.62</ele>
        <time>2015-11-30T12:08:09Z</time>
      </trkpt>
      <trkpt lat="43.82533" lon="3.58169">
        <ele>758.14</ele>
        <time>2015-11-30T12:08:12Z</time>
      </trkpt>
      <trkpt lat="43.82534" lon="3.58167">
        <ele>758.14</ele>
        <time>2015-11-30T12:08:14Z</time>
      </trkpt>
      <trkpt lat="43.82536" lon="3.58162">
        <ele>757.66</ele>
        <time>2015-11-30T12:08:18Z</time>
      </trkpt>
      <trkpt lat="43.82539" lon="3.58151">
        <ele>755.73</ele>
        <time>2015-11-30T12:08:30Z</time>
      </trkpt>
      <trkpt lat="43.82533" lon="3.5815">
        <ele>754.77</ele>
        <time>2015-11-30T12:08:38Z</time>
      </trkpt>
      <trkpt lat="43.8253" lon="3.58149">
        <ele>754.29</ele>
        <time>2015-11-30T12:08:41Z</time>
      </trkpt>
      <trkpt lat="43.82526" lon="3.5815">
        <ele>753.81</ele>
        <time>2015-11-30T12:08:45Z</time>
      </trkpt>
      <trkpt lat="43.82525" lon="3.58149">
        <ele>753.33</ele>
        <time>2015-11-30T12:08:47Z</time>
      </trkpt>
      <trkpt lat="43.82519" lon="3.58146">
        <ele>751.41</ele>
        <time>2015-11-30T12:08:55Z</time>
      </trkpt>
      <trkpt lat="43.82514" lon="3.58147">
        <ele>749</ele>
        <time>2015-11-30T12:09:00Z</time>
      </trkpt>
      <trkpt lat="43.82512" lon="3.58144">
        <ele>748.04</ele>
        <time>2015-11-30T12:09:04Z</time>
      </trkpt>
      <trkpt lat="43.82512" lon="3.5814">
        <ele>747.56</ele>
        <time>2015-11-30T12:09:07Z</time>
      </trkpt>
      <trkpt lat="43.82508" lon="3.58133">
        <ele>744.2</ele>
        <time>2015-11-30T12:09:17Z</time>
      </trkpt>
      <trkpt lat="43.82508" lon="3.58128">
        <ele>743.72</ele>
        <time>2015-11-30T12:09:22Z</time>
      </trkpt>
      <trkpt lat="43.82508" lon="3.58114">
        <ele>740.83</ele>
        <time>2015-11-30T12:09:34Z</time>
      </trkpt>
      <trkpt lat="43.82505" lon="3.58111">
        <ele>739.87</ele>
        <time>2015-11-30T12:09:46Z</time>
      </trkpt>
      <trkpt lat="43.82505" lon="3.58103">
        <ele>737.47</ele>
        <time>2015-11-30T12:09:58Z</time>
      </trkpt>
      <trkpt lat="43.82501" lon="3.58096">
        <ele>736.03</ele>
        <time>2015-11-30T12:10:05Z</time>
      </trkpt>
      <trkpt lat="43.82497" lon="3.58091">
        <ele>733.62</ele>
        <time>2015-11-30T12:10:12Z</time>
      </trkpt>
      <trkpt lat="43.82496" lon="3.58079">
        <ele>731.7</ele>
        <time>2015-11-30T12:10:23Z</time>
      </trkpt>
      <trkpt lat="43.82494" lon="3.58064">
        <ele>729.78</ele>
        <time>2015-11-30T12:10:36Z</time>
      </trkpt>
      <trkpt lat="43.82492" lon="3.58059">
        <ele>729.78</ele>
        <time>2015-11-30T12:10:50Z</time>
      </trkpt>
      <trkpt lat="43.82491" lon="3.5805">
        <ele>727.86</ele>
        <time>2015-11-30T12:10:56Z</time>
      </trkpt>
      <trkpt lat="43.82493" lon="3.58047">
        <ele>728.34</ele>
        <time>2015-11-30T12:10:58Z</time>
      </trkpt>
      <trkpt lat="43.82493" lon="3.58043">
        <ele>727.86</ele>
        <time>2015-11-30T12:11:01Z</time>
      </trkpt>
      <trkpt lat="43.8249" lon="3.58037">
        <ele>726.89</ele>
        <time>2015-11-30T12:11:06Z</time>
      </trkpt>
      <trkpt lat="43.82487" lon="3.58036">
        <ele>725.93</ele>
        <time>2015-11-30T12:11:09Z</time>
      </trkpt>
      <trkpt lat="43.82486" lon="3.58023">
        <ele>723.53</ele>
        <time>2015-11-30T12:11:20Z</time>
      </trkpt>
      <trkpt lat="43.82486" lon="3.58021">
        <ele>724.01</ele>
        <time>2015-11-30T12:11:22Z</time>
      </trkpt>
      <trkpt lat="43.82484" lon="3.58015">
        <ele>722.57</ele>
        <time>2015-11-30T12:11:28Z</time>
      </trkpt>
      <trkpt lat="43.82481" lon="3.5801">
        <ele>721.61</ele>
        <time>2015-11-30T12:11:33Z</time>
      </trkpt>
      <trkpt lat="43.82478" lon="3.58001">
        <ele>720.16</ele>
        <time>2015-11-30T12:11:43Z</time>
      </trkpt>
      <trkpt lat="43.8248" lon="3.57994">
        <ele>719.68</ele>
        <time>2015-11-30T12:11:49Z</time>
      </trkpt>
      <trkpt lat="43.8248" lon="3.57985">
        <ele>719.2</ele>
        <time>2015-11-30T12:11:55Z</time>
      </trkpt>
      <trkpt lat="43.8248" lon="3.57976">
        <ele>716.32</ele>
        <time>2015-11-30T12:12:09Z</time>
      </trkpt>
      <trkpt lat="43.8248" lon="3.57975">
        <ele>719.2</ele>
        <time>2015-11-30T12:12:19Z</time>
      </trkpt>
      <trkpt lat="43.82479" lon="3.57968">
        <ele>716.32</ele>
        <time>2015-11-30T12:12:26Z</time>
      </trkpt>
      <trkpt lat="43.82479" lon="3.57962">
        <ele>713.92</ele>
        <time>2015-11-30T12:12:34Z</time>
      </trkpt>
      <trkpt lat="43.82478" lon="3.57952">
        <ele>712.95</ele>
        <time>2015-11-30T12:12:41Z</time>
      </trkpt>
      <trkpt lat="43.82473" lon="3.57943">
        <ele>711.51</ele>
        <time>2015-11-30T12:12:49Z</time>
      </trkpt>
      <trkpt lat="43.82469" lon="3.57941">
        <ele>711.03</ele>
        <time>2015-11-30T12:12:52Z</time>
      </trkpt>
      <trkpt lat="43.82467" lon="3.57938">
        <ele>711.03</ele>
        <time>2015-11-30T12:12:55Z</time>
      </trkpt>
      <trkpt lat="43.82466" lon="3.57931">
        <ele>710.07</ele>
        <time>2015-11-30T12:12:59Z</time>
      </trkpt>
      <trkpt lat="43.82463" lon="3.57928">
        <ele>709.59</ele>
        <time>2015-11-30T12:13:02Z</time>
      </trkpt>
      <trkpt lat="43.82455" lon="3.57922">
        <ele>709.11</ele>
        <time>2015-11-30T12:13:11Z</time>
      </trkpt>
      <trkpt lat="43.82454" lon="3.57914">
        <ele>709.11</ele>
        <time>2015-11-30T12:13:17Z</time>
      </trkpt>
      <trkpt lat="43.82454" lon="3.5791">
        <ele>708.63</ele>
        <time>2015-11-30T12:13:20Z</time>
      </trkpt>
      <trkpt lat="43.82451" lon="3.57897">
        <ele>708.63</ele>
        <time>2015-11-30T12:13:29Z</time>
      </trkpt>
      <trkpt lat="43.82449" lon="3.5789">
        <ele>708.63</ele>
        <time>2015-11-30T12:13:37Z</time>
      </trkpt>
      <trkpt lat="43.82449" lon="3.57879">
        <ele>707.67</ele>
        <time>2015-11-30T12:13:48Z</time>
      </trkpt>
      <trkpt lat="43.82446" lon="3.57878">
        <ele>707.19</ele>
        <time>2015-11-30T12:13:50Z</time>
      </trkpt>
      <trkpt lat="43.82439" lon="3.5787">
        <ele>706.23</ele>
        <time>2015-11-30T12:14:01Z</time>
      </trkpt>
      <trkpt lat="43.82431" lon="3.57868">
        <ele>706.23</ele>
        <time>2015-11-30T12:14:11Z</time>
      </trkpt>
      <trkpt lat="43.8243" lon="3.57866">
        <ele>706.71</ele>
        <time>2015-11-30T12:14:13Z</time>
      </trkpt>
      <trkpt lat="43.82425" lon="3.5786">
        <ele>705.75</ele>
        <time>2015-11-30T12:14:21Z</time>
      </trkpt>
      <trkpt lat="43.82424" lon="3.57861">
        <ele>706.23</ele>
        <time>2015-11-30T12:14:24Z</time>
      </trkpt>
      <trkpt lat="43.82421" lon="3.57864">
        <ele>706.23</ele>
        <time>2015-11-30T12:14:28Z</time>
      </trkpt>
      <trkpt lat="43.8242" lon="3.5787">
        <ele>706.23</ele>
        <time>2015-11-30T12:14:41Z</time>
      </trkpt>
      <trkpt lat="43.82421" lon="3.57869">
        <ele>705.75</ele>
        <time>2015-11-30T12:14:57Z</time>
      </trkpt>
      <trkpt lat="43.82421" lon="3.5787">
        <ele>705.75</ele>
        <time>2015-11-30T12:15:10Z</time>
      </trkpt>
      <trkpt lat="43.82421" lon="3.5787">
        <ele>705.75</ele>
        <time>2015-11-30T12:15:25Z</time>
      </trkpt>
      <trkpt lat="43.82421" lon="3.5787">
        <ele>705.26</ele>
        <time>2015-11-30T12:15:40Z</time>
      </trkpt>
      <trkpt lat="43.82421" lon="3.5787">
        <ele>705.26</ele>
        <time>2015-11-30T12:16:14Z</time>
      </trkpt>
      <trkpt lat="43.82421" lon="3.57869">
        <ele>705.26</ele>
        <time>2015-11-30T12:16:31Z</time>
      </trkpt>
      <trkpt lat="43.82421" lon="3.57869">
        <ele>705.26</ele>
        <time>2015-11-30T12:16:48Z</time>
      </trkpt>
      <trkpt lat="43.82422" lon="3.57869">
        <ele>705.26</ele>
        <time>2015-11-30T12:17:23Z</time>
      </trkpt>
      <trkpt lat="43.82422" lon="3.57869">
        <ele>705.26</ele>
        <time>2015-11-30T12:17:56Z</time>
      </trkpt>
      <trkpt lat="43.82421" lon="3.57869">
        <ele>705.75</ele>
        <time>2015-11-30T12:18:33Z</time>
      </trkpt>
      <trkpt lat="43.82422" lon="3.57868">
        <ele>706.23</ele>
        <time>2015-11-30T12:19:07Z</time>
      </trkpt>
      <trkpt lat="43.82422" lon="3.57869">
        <ele>705.26</ele>
        <time>2015-11-30T12:19:41Z</time>
      </trkpt>
      <trkpt lat="43.82422" lon="3.57869">
        <ele>705.26</ele>
        <time>2015-11-30T12:20:16Z</time>
      </trkpt>
      <trkpt lat="43.82422" lon="3.57869">
        <ele>705.75</ele>
        <time>2015-11-30T12:20:48Z</time>
      </trkpt>
      <trkpt lat="43.82422" lon="3.57868">
        <ele>705.26</ele>
        <time>2015-11-30T12:21:21Z</time>
      </trkpt>
      <trkpt lat="43.82421" lon="3.57868">
        <ele>705.26</ele>
        <time>2015-11-30T12:21:58Z</time>
      </trkpt>
      <trkpt lat="43.82421" lon="3.57869">
        <ele>705.26</ele>
        <time>2015-11-30T12:22:35Z</time>
      </trkpt>
      <trkpt lat="43.82422" lon="3.57869">
        <ele>704.78</ele>
        <time>2015-11-30T12:23:10Z</time>
      </trkpt>
      <trkpt lat="43.82421" lon="3.57868">
        <ele>705.75</ele>
        <time>2015-11-30T12:23:48Z</time>
      </trkpt>
      <trkpt lat="43.82421" lon="3.57868">
        <ele>704.78</ele>
        <time>2015-11-30T12:24:28Z</time>
      </trkpt>
      <trkpt lat="43.82421" lon="3.57868">
        <ele>705.26</ele>
        <time>2015-11-30T12:25:01Z</time>
      </trkpt>
      <trkpt lat="43.82421" lon="3.57868">
        <ele>705.26</ele>
        <time>2015-11-30T12:25:42Z</time>
      </trkpt>
      <trkpt lat="43.82422" lon="3.57868">
        <ele>705.26</ele>
        <time>2015-11-30T12:26:23Z</time>
      </trkpt>
      <trkpt lat="43.82422" lon="3.57869">
        <ele>704.78</ele>
        <time>2015-11-30T12:26:55Z</time>
      </trkpt>
      <trkpt lat="43.82422" lon="3.57869">
        <ele>705.26</ele>
        <time>2015-11-30T12:27:29Z</time>
      </trkpt>
      <trkpt lat="43.82422" lon="3.57869">
        <ele>705.75</ele>
        <time>2015-11-30T12:28:06Z</time>
      </trkpt>
      <trkpt lat="43.82422" lon="3.57869">
        <ele>705.26</ele>
        <time>2015-11-30T12:28:41Z</time>
      </trkpt>
      <trkpt lat="43.82422" lon="3.57869">
        <ele>704.78</ele>
        <time>2015-11-30T12:29:14Z</time>
      </trkpt>
      <trkpt lat="43.82422" lon="3.57869">
        <ele>705.26</ele>
        <time>2015-11-30T12:29:51Z</time>
      </trkpt>
      <trkpt lat="43.82421" lon="3.57869">
        <ele>705.26</ele>
        <time>2015-11-30T12:30:28Z</time>
      </trkpt>
      <trkpt lat="43.82421" lon="3.57868">
        <ele>705.75</ele>
        <time>2015-11-30T12:31:07Z</time>
      </trkpt>
      <trkpt lat="43.82421" lon="3.57869">
        <ele>705.26</ele>
        <time>2015-11-30T12:31:42Z</time>
      </trkpt>
      <trkpt lat="43.82422" lon="3.57869">
        <ele>704.78</ele>
        <time>2015-11-30T12:32:21Z</time>
      </trkpt>
      <trkpt lat="43.82422" lon="3.57869">
        <ele>705.75</ele>
        <time>2015-11-30T12:32:55Z</time>
      </trkpt>
      <trkpt lat="43.82421" lon="3.57869">
        <ele>705.75</ele>
        <time>2015-11-30T12:33:27Z</time>
      </trkpt>
      <trkpt lat="43.82421" lon="3.57869">
        <ele>705.75</ele>
        <time>2015-11-30T12:34:02Z</time>
      </trkpt>
      <trkpt lat="43.82421" lon="3.57869">
        <ele>705.26</ele>
        <time>2015-11-30T12:34:40Z</time>
      </trkpt>
      <trkpt lat="43.82422" lon="3.57869">
        <ele>705.26</ele>
        <time>2015-11-30T12:35:15Z</time>
      </trkpt>
      <trkpt lat="43.82422" lon="3.57869">
        <ele>705.75</ele>
        <time>2015-11-30T12:35:58Z</time>
      </trkpt>
      <trkpt lat="43.82422" lon="3.57869">
        <ele>705.75</ele>
        <time>2015-11-30T12:36:33Z</time>
      </trkpt>
      <trkpt lat="43.82422" lon="3.57869">
        <ele>706.23</ele>
        <time>2015-11-30T12:37:05Z</time>
      </trkpt>
      <trkpt lat="43.82422" lon="3.5787">
        <ele>706.23</ele>
        <time>2015-11-30T12:37:42Z</time>
      </trkpt>
      <trkpt lat="43.82422" lon="3.57869">
        <ele>705.75</ele>
        <time>2015-11-30T12:38:09Z</time>
      </trkpt>
      <trkpt lat="43.82422" lon="3.57869">
        <ele>705.75</ele>
        <time>2015-11-30T12:38:45Z</time>
      </trkpt>
      <trkpt lat="43.82422" lon="3.57869">
        <ele>706.23</ele>
        <time>2015-11-30T12:39:24Z</time>
      </trkpt>
      <trkpt lat="43.82422" lon="3.57869">
        <ele>706.71</ele>
        <time>2015-11-30T12:40:02Z</time>
      </trkpt>
      <trkpt lat="43.82422" lon="3.57869">
        <ele>706.23</ele>
        <time>2015-11-30T12:40:38Z</time>
      </trkpt>
      <trkpt lat="43.82422" lon="3.5787">
        <ele>706.23</ele>
        <time>2015-11-30T12:41:12Z</time>
      </trkpt>
      <trkpt lat="43.82423" lon="3.5787">
        <ele>706.23</ele>
        <time>2015-11-30T12:41:44Z</time>
      </trkpt>
      <trkpt lat="43.82423" lon="3.5787">
        <ele>706.23</ele>
        <time>2015-11-30T12:42:15Z</time>
      </trkpt>
      <trkpt lat="43.82423" lon="3.5787">
        <ele>706.23</ele>
        <time>2015-11-30T12:42:47Z</time>
      </trkpt>
      <trkpt lat="43.82423" lon="3.5787">
        <ele>706.71</ele>
        <time>2015-11-30T12:43:17Z</time>
      </trkpt>
      <trkpt lat="43.82423" lon="3.57869">
        <ele>706.23</ele>
        <time>2015-11-30T12:43:50Z</time>
      </trkpt>
      <trkpt lat="43.82423" lon="3.5787">
        <ele>706.23</ele>
        <time>2015-11-30T12:44:22Z</time>
      </trkpt>
      <trkpt lat="43.82423" lon="3.57869">
        <ele>706.23</ele>
        <time>2015-11-30T12:44:49Z</time>
      </trkpt>
      <trkpt lat="43.82423" lon="3.57869">
        <ele>706.71</ele>
        <time>2015-11-30T12:45:24Z</time>
      </trkpt>
      <trkpt lat="43.82423" lon="3.57869">
        <ele>706.23</ele>
        <time>2015-11-30T12:45:54Z</time>
      </trkpt>
      <trkpt lat="43.82423" lon="3.57869">
        <ele>706.71</ele>
        <time>2015-11-30T12:46:26Z</time>
      </trkpt>
      <trkpt lat="43.82422" lon="3.57869">
        <ele>706.23</ele>
        <time>2015-11-30T12:47:02Z</time>
      </trkpt>
      <trkpt lat="43.82422" lon="3.57868">
        <ele>705.75</ele>
        <time>2015-11-30T12:47:34Z</time>
      </trkpt>
      <trkpt lat="43.82422" lon="3.57868">
        <ele>705.75</ele>
        <time>2015-11-30T12:48:12Z</time>
      </trkpt>
      <trkpt lat="43.82422" lon="3.57869">
        <ele>706.23</ele>
        <time>2015-11-30T12:48:44Z</time>
      </trkpt>
      <trkpt lat="43.82422" lon="3.57869">
        <ele>706.23</ele>
        <time>2015-11-30T12:49:23Z</time>
      </trkpt>
      <trkpt lat="43.82422" lon="3.5787">
        <ele>705.75</ele>
        <time>2015-11-30T12:50:01Z</time>
      </trkpt>
      <trkpt lat="43.82423" lon="3.5787">
        <ele>705.75</ele>
        <time>2015-11-30T12:50:36Z</time>
      </trkpt>
      <trkpt lat="43.82423" lon="3.5787">
        <ele>706.23</ele>
        <time>2015-11-30T12:51:07Z</time>
      </trkpt>
      <trkpt lat="43.82423" lon="3.57869">
        <ele>705.75</ele>
        <time>2015-11-30T12:51:34Z</time>
      </trkpt>
      <trkpt lat="43.82423" lon="3.57869">
        <ele>705.26</ele>
        <time>2015-11-30T12:52:11Z</time>
      </trkpt>
      <trkpt lat="43.82422" lon="3.57869">
        <ele>705.26</ele>
        <time>2015-11-30T12:52:46Z</time>
      </trkpt>
      <trkpt lat="43.82422" lon="3.57869">
        <ele>706.23</ele>
        <time>2015-11-30T12:53:13Z</time>
      </trkpt>
      <trkpt lat="43.82422" lon="3.57868">
        <ele>706.71</ele>
        <time>2015-11-30T12:53:30Z</time>
      </trkpt>
      <trkpt lat="43.82422" lon="3.57868">
        <ele>706.23</ele>
        <time>2015-11-30T12:53:52Z</time>
      </trkpt>
      <trkpt lat="43.82422" lon="3.57866">
        <ele>706.71</ele>
        <time>2015-11-30T12:54:05Z</time>
      </trkpt>
      <trkpt lat="43.82426" lon="3.57856">
        <ele>706.23</ele>
        <time>2015-11-30T12:54:17Z</time>
      </trkpt>
      <trkpt lat="43.82428" lon="3.57852">
        <ele>706.23</ele>
        <time>2015-11-30T12:54:21Z</time>
      </trkpt>
      <trkpt lat="43.82419" lon="3.57842">
        <ele>705.26</ele>
        <time>2015-11-30T12:54:34Z</time>
      </trkpt>
      <trkpt lat="43.82421" lon="3.57837">
        <ele>704.78</ele>
        <time>2015-11-30T12:54:39Z</time>
      </trkpt>
      <trkpt lat="43.8242" lon="3.57826">
        <ele>703.34</ele>
        <time>2015-11-30T12:54:50Z</time>
      </trkpt>
      <trkpt lat="43.8242" lon="3.57818">
        <ele>702.86</ele>
        <time>2015-11-30T12:54:58Z</time>
      </trkpt>
      <trkpt lat="43.8242" lon="3.57812">
        <ele>702.86</ele>
        <time>2015-11-30T12:55:02Z</time>
      </trkpt>
      <trkpt lat="43.82415" lon="3.57803">
        <ele>701.9</ele>
        <time>2015-11-30T12:55:12Z</time>
      </trkpt>
      <trkpt lat="43.82416" lon="3.57793">
        <ele>701.42</ele>
        <time>2015-11-30T12:55:25Z</time>
      </trkpt>
      <trkpt lat="43.82415" lon="3.57791">
        <ele>701.9</ele>
        <time>2015-11-30T12:55:29Z</time>
      </trkpt>
      <trkpt lat="43.82413" lon="3.57785">
        <ele>701.42</ele>
        <time>2015-11-30T12:55:40Z</time>
      </trkpt>
      <trkpt lat="43.82412" lon="3.57783">
        <ele>700.94</ele>
        <time>2015-11-30T12:55:42Z</time>
      </trkpt>
      <trkpt lat="43.8241" lon="3.57772">
        <ele>701.42</ele>
        <time>2015-11-30T12:55:55Z</time>
      </trkpt>
      <trkpt lat="43.8241" lon="3.57758">
        <ele>700.94</ele>
        <time>2015-11-30T12:56:09Z</time>
      </trkpt>
      <trkpt lat="43.8241" lon="3.57756">
        <ele>700.46</ele>
        <time>2015-11-30T12:56:16Z</time>
      </trkpt>
      <trkpt lat="43.82405" lon="3.57749">
        <ele>700.46</ele>
        <time>2015-11-30T12:56:25Z</time>
      </trkpt>
      <trkpt lat="43.82396" lon="3.57744">
        <ele>700.94</ele>
        <time>2015-11-30T12:56:37Z</time>
      </trkpt>
      <trkpt lat="43.82393" lon="3.5774">
        <ele>699.98</ele>
        <time>2015-11-30T12:56:48Z</time>
      </trkpt>
      <trkpt lat="43.82393" lon="3.57737">
        <ele>699.02</ele>
        <time>2015-11-30T12:57:03Z</time>
      </trkpt>
      <trkpt lat="43.824" lon="3.5774">
        <ele>699.02</ele>
        <time>2015-11-30T12:57:15Z</time>
      </trkpt>
      <trkpt lat="43.82401" lon="3.57739">
        <ele>700.46</ele>
        <time>2015-11-30T12:57:18Z</time>
      </trkpt>
      <trkpt lat="43.82404" lon="3.57733">
        <ele>698.53</ele>
        <time>2015-11-30T12:57:28Z</time>
      </trkpt>
      <trkpt lat="43.82408" lon="3.57727">
        <ele>695.65</ele>
        <time>2015-11-30T12:57:42Z</time>
      </trkpt>
      <trkpt lat="43.82411" lon="3.57724">
        <ele>694.69</ele>
        <time>2015-11-30T12:57:53Z</time>
      </trkpt>
      <trkpt lat="43.82413" lon="3.57721">
        <ele>693.73</ele>
        <time>2015-11-30T12:57:56Z</time>
      </trkpt>
      <trkpt lat="43.82413" lon="3.57714">
        <ele>692.77</ele>
        <time>2015-11-30T12:58:07Z</time>
      </trkpt>
      <trkpt lat="43.82413" lon="3.57705">
        <ele>691.33</ele>
        <time>2015-11-30T12:58:16Z</time>
      </trkpt>
      <trkpt lat="43.82412" lon="3.57702">
        <ele>690.36</ele>
        <time>2015-11-30T12:58:19Z</time>
      </trkpt>
      <trkpt lat="43.82412" lon="3.57698">
        <ele>690.36</ele>
        <time>2015-11-30T12:58:22Z</time>
      </trkpt>
      <trkpt lat="43.82409" lon="3.57689">
        <ele>689.4</ele>
        <time>2015-11-30T12:58:28Z</time>
      </trkpt>
      <trkpt lat="43.82408" lon="3.57686">
        <ele>688.92</ele>
        <time>2015-11-30T12:58:30Z</time>
      </trkpt>
      <trkpt lat="43.82406" lon="3.57676">
        <ele>687.96</ele>
        <time>2015-11-30T12:58:39Z</time>
      </trkpt>
      <trkpt lat="43.82404" lon="3.5767">
        <ele>687.48</ele>
        <time>2015-11-30T12:58:44Z</time>
      </trkpt>
      <trkpt lat="43.82403" lon="3.57667">
        <ele>686.52</ele>
        <time>2015-11-30T12:58:47Z</time>
      </trkpt>
      <trkpt lat="43.82401" lon="3.57665">
        <ele>686.52</ele>
        <time>2015-11-30T12:58:49Z</time>
      </trkpt>
      <trkpt lat="43.82401" lon="3.57653">
        <ele>686.52</ele>
        <time>2015-11-30T12:59:00Z</time>
      </trkpt>
      <trkpt lat="43.82408" lon="3.57646">
        <ele>685.08</ele>
        <time>2015-11-30T12:59:11Z</time>
      </trkpt>
      <trkpt lat="43.82409" lon="3.57637">
        <ele>683.15</ele>
        <time>2015-11-30T12:59:22Z</time>
      </trkpt>
      <trkpt lat="43.82401" lon="3.57632">
        <ele>682.19</ele>
        <time>2015-11-30T12:59:34Z</time>
      </trkpt>
      <trkpt lat="43.82401" lon="3.57629">
        <ele>681.71</ele>
        <time>2015-11-30T12:59:37Z</time>
      </trkpt>
      <trkpt lat="43.82399" lon="3.57627">
        <ele>681.71</ele>
        <time>2015-11-30T12:59:39Z</time>
      </trkpt>
      <trkpt lat="43.82397" lon="3.57616">
        <ele>680.27</ele>
        <time>2015-11-30T12:59:48Z</time>
      </trkpt>
      <trkpt lat="43.82392" lon="3.5761">
        <ele>679.79</ele>
        <time>2015-11-30T12:59:54Z</time>
      </trkpt>
      <trkpt lat="43.82384" lon="3.57607">
        <ele>679.31</ele>
        <time>2015-11-30T13:00:02Z</time>
      </trkpt>
      <trkpt lat="43.82377" lon="3.57602">
        <ele>677.87</ele>
        <time>2015-11-30T13:00:08Z</time>
      </trkpt>
      <trkpt lat="43.82365" lon="3.576">
        <ele>677.39</ele>
        <time>2015-11-30T13:00:19Z</time>
      </trkpt>
      <trkpt lat="43.82362" lon="3.57598">
        <ele>676.91</ele>
        <time>2015-11-30T13:00:22Z</time>
      </trkpt>
      <trkpt lat="43.82353" lon="3.57592">
        <ele>675.46</ele>
        <time>2015-11-30T13:00:31Z</time>
      </trkpt>
      <trkpt lat="43.82346" lon="3.57583">
        <ele>674.5</ele>
        <time>2015-11-30T13:00:39Z</time>
      </trkpt>
      <trkpt lat="43.82339" lon="3.57572">
        <ele>673.06</ele>
        <time>2015-11-30T13:00:48Z</time>
      </trkpt>
      <trkpt lat="43.82336" lon="3.57566">
        <ele>672.58</ele>
        <time>2015-11-30T13:00:52Z</time>
      </trkpt>
      <trkpt lat="43.82333" lon="3.5756">
        <ele>672.1</ele>
        <time>2015-11-30T13:00:56Z</time>
      </trkpt>
      <trkpt lat="43.82328" lon="3.57553">
        <ele>670.66</ele>
        <time>2015-11-30T13:01:02Z</time>
      </trkpt>
      <trkpt lat="43.82322" lon="3.57549">
        <ele>670.18</ele>
        <time>2015-11-30T13:01:08Z</time>
      </trkpt>
      <trkpt lat="43.82321" lon="3.57542">
        <ele>669.22</ele>
        <time>2015-11-30T13:01:12Z</time>
      </trkpt>
      <trkpt lat="43.82319" lon="3.57537">
        <ele>668.73</ele>
        <time>2015-11-30T13:01:16Z</time>
      </trkpt>
      <trkpt lat="43.82309" lon="3.57534">
        <ele>668.25</ele>
        <time>2015-11-30T13:01:24Z</time>
      </trkpt>
      <trkpt lat="43.823" lon="3.57529">
        <ele>669.22</ele>
        <time>2015-11-30T13:01:32Z</time>
      </trkpt>
      <trkpt lat="43.82299" lon="3.57526">
        <ele>669.22</ele>
        <time>2015-11-30T13:01:34Z</time>
      </trkpt>
      <trkpt lat="43.82293" lon="3.57522">
        <ele>668.73</ele>
        <time>2015-11-30T13:01:39Z</time>
      </trkpt>
      <trkpt lat="43.82291" lon="3.57516">
        <ele>668.73</ele>
        <time>2015-11-30T13:01:43Z</time>
      </trkpt>
      <trkpt lat="43.82286" lon="3.57507">
        <ele>668.25</ele>
        <time>2015-11-30T13:01:50Z</time>
      </trkpt>
      <trkpt lat="43.82276" lon="3.57497">
        <ele>668.73</ele>
        <time>2015-11-30T13:02:01Z</time>
      </trkpt>
      <trkpt lat="43.82276" lon="3.57497">
        <ele>669.22</ele>
        <time>2015-11-30T13:02:02Z</time>
      </trkpt>
      <trkpt lat="43.82267" lon="3.57491">
        <ele>670.18</ele>
        <time>2015-11-30T13:02:11Z</time>
      </trkpt>
      <trkpt lat="43.82265" lon="3.57488">
        <ele>670.18</ele>
        <time>2015-11-30T13:02:14Z</time>
      </trkpt>
      <trkpt lat="43.82261" lon="3.57486">
        <ele>671.14</ele>
        <time>2015-11-30T13:02:18Z</time>
      </trkpt>
      <trkpt lat="43.82259" lon="3.5748">
        <ele>671.14</ele>
        <time>2015-11-30T13:02:22Z</time>
      </trkpt>
      <trkpt lat="43.82256" lon="3.57474">
        <ele>670.66</ele>
        <time>2015-11-30T13:02:26Z</time>
      </trkpt>
      <trkpt lat="43.8225" lon="3.57464">
        <ele>671.14</ele>
        <time>2015-11-30T13:02:35Z</time>
      </trkpt>
      <trkpt lat="43.82241" lon="3.57452">
        <ele>671.14</ele>
        <time>2015-11-30T13:02:46Z</time>
      </trkpt>
      <trkpt lat="43.82236" lon="3.57445">
        <ele>671.14</ele>
        <time>2015-11-30T13:02:52Z</time>
      </trkpt>
      <trkpt lat="43.82232" lon="3.57435">
        <ele>671.14</ele>
        <time>2015-11-30T13:03:00Z</time>
      </trkpt>
      <trkpt lat="43.82231" lon="3.57432">
        <ele>671.14</ele>
        <time>2015-11-30T13:03:04Z</time>
      </trkpt>
      <trkpt lat="43.8223" lon="3.57429">
        <ele>670.66</ele>
        <time>2015-11-30T13:03:06Z</time>
      </trkpt>
      <trkpt lat="43.82228" lon="3.57414">
        <ele>668.25</ele>
        <time>2015-11-30T13:03:20Z</time>
      </trkpt>
      <trkpt lat="43.82228" lon="3.57412">
        <ele>668.25</ele>
        <time>2015-11-30T13:03:22Z</time>
      </trkpt>
      <trkpt lat="43.82221" lon="3.57399">
        <ele>666.81</ele>
        <time>2015-11-30T13:03:32Z</time>
      </trkpt>
      <trkpt lat="43.82221" lon="3.57387">
        <ele>666.33</ele>
        <time>2015-11-30T13:03:44Z</time>
      </trkpt>
      <trkpt lat="43.8222" lon="3.57386">
        <ele>665.85</ele>
        <time>2015-11-30T13:03:54Z</time>
      </trkpt>
      <trkpt lat="43.82216" lon="3.57376">
        <ele>664.89</ele>
        <time>2015-11-30T13:04:06Z</time>
      </trkpt>
      <trkpt lat="43.82216" lon="3.57376">
        <ele>665.37</ele>
        <time>2015-11-30T13:04:24Z</time>
      </trkpt>
      <trkpt lat="43.82215" lon="3.57375">
        <ele>664.89</ele>
        <time>2015-11-30T13:04:48Z</time>
      </trkpt>
      <trkpt lat="43.82215" lon="3.57375">
        <ele>665.37</ele>
        <time>2015-11-30T13:05:13Z</time>
      </trkpt>
      <trkpt lat="43.82215" lon="3.57374">
        <ele>665.37</ele>
        <time>2015-11-30T13:05:35Z</time>
      </trkpt>
      <trkpt lat="43.8221" lon="3.57372">
        <ele>664.41</ele>
        <time>2015-11-30T13:05:49Z</time>
      </trkpt>
      <trkpt lat="43.82209" lon="3.57372">
        <ele>663.93</ele>
        <time>2015-11-30T13:05:50Z</time>
      </trkpt>
      <trkpt lat="43.82204" lon="3.57368">
        <ele>662.49</ele>
        <time>2015-11-30T13:05:57Z</time>
      </trkpt>
      <trkpt lat="43.82201" lon="3.57363">
        <ele>661.04</ele>
        <time>2015-11-30T13:06:02Z</time>
      </trkpt>
      <trkpt lat="43.82197" lon="3.57357">
        <ele>659.6</ele>
        <time>2015-11-30T13:06:08Z</time>
      </trkpt>
      <trkpt lat="43.82189" lon="3.57355">
        <ele>657.68</ele>
        <time>2015-11-30T13:06:21Z</time>
      </trkpt>
      <trkpt lat="43.82185" lon="3.57359">
        <ele>655.76</ele>
        <time>2015-11-30T13:06:27Z</time>
      </trkpt>
      <trkpt lat="43.82183" lon="3.57364">
        <ele>653.83</ele>
        <time>2015-11-30T13:06:31Z</time>
      </trkpt>
      <trkpt lat="43.82175" lon="3.57375">
        <ele>650.47</ele>
        <time>2015-11-30T13:06:44Z</time>
      </trkpt>
      <trkpt lat="43.82172" lon="3.57378">
        <ele>649.51</ele>
        <time>2015-11-30T13:06:47Z</time>
      </trkpt>
      <trkpt lat="43.82169" lon="3.57386">
        <ele>648.55</ele>
        <time>2015-11-30T13:06:54Z</time>
      </trkpt>
      <trkpt lat="43.82166" lon="3.57386">
        <ele>647.1</ele>
        <time>2015-11-30T13:06:57Z</time>
      </trkpt>
      <trkpt lat="43.82164" lon="3.57385">
        <ele>646.62</ele>
        <time>2015-11-30T13:06:59Z</time>
      </trkpt>
      <trkpt lat="43.82159" lon="3.57387">
        <ele>645.18</ele>
        <time>2015-11-30T13:07:04Z</time>
      </trkpt>
      <trkpt lat="43.82158" lon="3.57392">
        <ele>644.7</ele>
        <time>2015-11-30T13:07:08Z</time>
      </trkpt>
      <trkpt lat="43.82161" lon="3.57402">
        <ele>644.22</ele>
        <time>2015-11-30T13:07:17Z</time>
      </trkpt>
      <trkpt lat="43.8217" lon="3.57414">
        <ele>641.82</ele>
        <time>2015-11-30T13:07:31Z</time>
      </trkpt>
      <trkpt lat="43.82172" lon="3.57416">
        <ele>641.34</ele>
        <time>2015-11-30T13:07:33Z</time>
      </trkpt>
      <trkpt lat="43.82175" lon="3.57425">
        <ele>641.34</ele>
        <time>2015-11-30T13:07:41Z</time>
      </trkpt>
      <trkpt lat="43.82171" lon="3.57427">
        <ele>638.93</ele>
        <time>2015-11-30T13:07:47Z</time>
      </trkpt>
      <trkpt lat="43.82162" lon="3.5742">
        <ele>637.97</ele>
        <time>2015-11-30T13:08:01Z</time>
      </trkpt>
      <trkpt lat="43.8216" lon="3.5742">
        <ele>636.53</ele>
        <time>2015-11-30T13:08:04Z</time>
      </trkpt>
      <trkpt lat="43.82156" lon="3.57422">
        <ele>635.09</ele>
        <time>2015-11-30T13:08:08Z</time>
      </trkpt>
      <trkpt lat="43.82162" lon="3.57429">
        <ele>633.65</ele>
        <time>2015-11-30T13:08:20Z</time>
      </trkpt>
      <trkpt lat="43.82164" lon="3.57433">
        <ele>632.68</ele>
        <time>2015-11-30T13:08:25Z</time>
      </trkpt>
      <trkpt lat="43.82166" lon="3.57444">
        <ele>631.24</ele>
        <time>2015-11-30T13:08:35Z</time>
      </trkpt>
      <trkpt lat="43.82169" lon="3.57452">
        <ele>630.28</ele>
        <time>2015-11-30T13:08:42Z</time>
      </trkpt>
      <trkpt lat="43.82164" lon="3.57451">
        <ele>627.88</ele>
        <time>2015-11-30T13:08:54Z</time>
      </trkpt>
      <trkpt lat="43.82162" lon="3.5745">
        <ele>627.4</ele>
        <time>2015-11-30T13:08:58Z</time>
      </trkpt>
      <trkpt lat="43.8216" lon="3.57448">
        <ele>625.47</ele>
        <time>2015-11-30T13:09:00Z</time>
      </trkpt>
      <trkpt lat="43.82159" lon="3.57453">
        <ele>623.55</ele>
        <time>2015-11-30T13:09:10Z</time>
      </trkpt>
      <trkpt lat="43.8216" lon="3.57459">
        <ele>623.07</ele>
        <time>2015-11-30T13:09:15Z</time>
      </trkpt>
      <trkpt lat="43.8216" lon="3.57462">
        <ele>622.59</ele>
        <time>2015-11-30T13:09:17Z</time>
      </trkpt>
      <trkpt lat="43.82164" lon="3.57474">
        <ele>619.23</ele>
        <time>2015-11-30T13:09:28Z</time>
      </trkpt>
      <trkpt lat="43.82165" lon="3.57477">
        <ele>619.23</ele>
        <time>2015-11-30T13:09:31Z</time>
      </trkpt>
      <trkpt lat="43.82161" lon="3.57484">
        <ele>617.3</ele>
        <time>2015-11-30T13:09:39Z</time>
      </trkpt>
      <trkpt lat="43.82159" lon="3.57479">
        <ele>615.38</ele>
        <time>2015-11-30T13:09:44Z</time>
      </trkpt>
      <trkpt lat="43.82155" lon="3.57475">
        <ele>614.9</ele>
        <time>2015-11-30T13:09:48Z</time>
      </trkpt>
      <trkpt lat="43.82147" lon="3.57472">
        <ele>611.54</ele>
        <time>2015-11-30T13:10:01Z</time>
      </trkpt>
      <trkpt lat="43.82149" lon="3.57477">
        <ele>610.57</ele>
        <time>2015-11-30T13:10:07Z</time>
      </trkpt>
      <trkpt lat="43.82151" lon="3.57493">
        <ele>608.17</ele>
        <time>2015-11-30T13:10:18Z</time>
      </trkpt>
      <trkpt lat="43.82155" lon="3.57504">
        <ele>608.17</ele>
        <time>2015-11-30T13:10:27Z</time>
      </trkpt>
      <trkpt lat="43.82154" lon="3.5751">
        <ele>606.73</ele>
        <time>2015-11-30T13:10:32Z</time>
      </trkpt>
      <trkpt lat="43.82152" lon="3.57508">
        <ele>605.77</ele>
        <time>2015-11-30T13:10:35Z</time>
      </trkpt>
      <trkpt lat="43.82147" lon="3.57506">
        <ele>605.29</ele>
        <time>2015-11-30T13:10:40Z</time>
      </trkpt>
      <trkpt lat="43.82145" lon="3.57505">
        <ele>604.81</ele>
        <time>2015-11-30T13:10:42Z</time>
      </trkpt>
      <trkpt lat="43.82139" lon="3.57499">
        <ele>603.85</ele>
        <time>2015-11-30T13:10:48Z</time>
      </trkpt>
      <trkpt lat="43.82132" lon="3.57481">
        <ele>602.4</ele>
        <time>2015-11-30T13:11:02Z</time>
      </trkpt>
      <trkpt lat="43.8213" lon="3.5748">
        <ele>602.88</ele>
        <time>2015-11-30T13:11:04Z</time>
      </trkpt>
      <trkpt lat="43.82125" lon="3.57476">
        <ele>601.92</ele>
        <time>2015-11-30T13:11:10Z</time>
      </trkpt>
      <trkpt lat="43.82115" lon="3.57467">
        <ele>600.48</ele>
        <time>2015-11-30T13:11:24Z</time>
      </trkpt>
      <trkpt lat="43.82113" lon="3.57465">
        <ele>600</ele>
        <time>2015-11-30T13:11:27Z</time>
      </trkpt>
      <trkpt lat="43.82105" lon="3.57456">
        <ele>597.6</ele>
        <time>2015-11-30T13:11:38Z</time>
      </trkpt>
      <trkpt lat="43.82101" lon="3.5745">
        <ele>596.64</ele>
        <time>2015-11-30T13:11:43Z</time>
      </trkpt>
      <trkpt lat="43.82099" lon="3.57452">
        <ele>596.15</ele>
        <time>2015-11-30T13:11:48Z</time>
      </trkpt>
      <trkpt lat="43.821" lon="3.57455">
        <ele>596.15</ele>
        <time>2015-11-30T13:11:51Z</time>
      </trkpt>
      <trkpt lat="43.82103" lon="3.57464">
        <ele>594.23</ele>
        <time>2015-11-30T13:11:58Z</time>
      </trkpt>
      <trkpt lat="43.82107" lon="3.5747">
        <ele>592.79</ele>
        <time>2015-11-30T13:12:03Z</time>
      </trkpt>
      <trkpt lat="43.82108" lon="3.57476">
        <ele>592.79</ele>
        <time>2015-11-30T13:12:09Z</time>
      </trkpt>
      <trkpt lat="43.82106" lon="3.57476">
        <ele>592.31</ele>
        <time>2015-11-30T13:12:11Z</time>
      </trkpt>
      <trkpt lat="43.821" lon="3.57472">
        <ele>590.39</ele>
        <time>2015-11-30T13:12:18Z</time>
      </trkpt>
      <trkpt lat="43.82099" lon="3.5747">
        <ele>589.91</ele>
        <time>2015-11-30T13:12:20Z</time>
      </trkpt>
      <trkpt lat="43.82096" lon="3.57467">
        <ele>588.95</ele>
        <time>2015-11-30T13:12:24Z</time>
      </trkpt>
      <trkpt lat="43.82087" lon="3.57459">
        <ele>587.02</ele>
        <time>2015-11-30T13:12:34Z</time>
      </trkpt>
      <trkpt lat="43.82085" lon="3.57456">
        <ele>587.02</ele>
        <time>2015-11-30T13:12:37Z</time>
      </trkpt>
      <trkpt lat="43.8207" lon="3.57448">
        <ele>584.62</ele>
        <time>2015-11-30T13:12:51Z</time>
      </trkpt>
      <trkpt lat="43.82069" lon="3.57447">
        <ele>584.62</ele>
        <time>2015-11-30T13:12:52Z</time>
      </trkpt>
      <trkpt lat="43.82059" lon="3.5744">
        <ele>584.14</ele>
        <time>2015-11-30T13:13:00Z</time>
      </trkpt>
      <trkpt lat="43.82053" lon="3.57439">
        <ele>583.18</ele>
        <time>2015-11-30T13:13:05Z</time>
      </trkpt>
      <trkpt lat="43.82051" lon="3.57435">
        <ele>582.7</ele>
        <time>2015-11-30T13:13:08Z</time>
      </trkpt>
      <trkpt lat="43.82044" lon="3.57424">
        <ele>579.81</ele>
        <time>2015-11-30T13:13:20Z</time>
      </trkpt>
      <trkpt lat="43.82034" lon="3.57427">
        <ele>576.45</ele>
        <time>2015-11-30T13:13:31Z</time>
      </trkpt>
      <trkpt lat="43.82027" lon="3.57434">
        <ele>573.08</ele>
        <time>2015-11-30T13:13:41Z</time>
      </trkpt>
      <trkpt lat="43.82022" lon="3.57434">
        <ele>572.12</ele>
        <time>2015-11-30T13:13:47Z</time>
      </trkpt>
      <trkpt lat="43.82017" lon="3.57434">
        <ele>571.16</ele>
        <time>2015-11-30T13:13:52Z</time>
      </trkpt>
      <trkpt lat="43.82011" lon="3.57436">
        <ele>570.2</ele>
        <time>2015-11-30T13:13:57Z</time>
      </trkpt>
      <trkpt lat="43.81999" lon="3.57445">
        <ele>567.8</ele>
        <time>2015-11-30T13:14:09Z</time>
      </trkpt>
      <trkpt lat="43.81988" lon="3.5745">
        <ele>565.87</ele>
        <time>2015-11-30T13:14:20Z</time>
      </trkpt>
      <trkpt lat="43.8198" lon="3.57455">
        <ele>565.39</ele>
        <time>2015-11-30T13:14:28Z</time>
      </trkpt>
      <trkpt lat="43.81976" lon="3.57458">
        <ele>564.43</ele>
        <time>2015-11-30T13:14:32Z</time>
      </trkpt>
      <trkpt lat="43.8197" lon="3.57463">
        <ele>563.95</ele>
        <time>2015-11-30T13:14:38Z</time>
      </trkpt>
      <trkpt lat="43.81962" lon="3.57468">
        <ele>562.99</ele>
        <time>2015-11-30T13:14:51Z</time>
      </trkpt>
      <trkpt lat="43.81959" lon="3.57468">
        <ele>562.51</ele>
        <time>2015-11-30T13:14:54Z</time>
      </trkpt>
      <trkpt lat="43.81947" lon="3.57471">
        <ele>561.07</ele>
        <time>2015-11-30T13:15:04Z</time>
      </trkpt>
      <trkpt lat="43.81941" lon="3.57475">
        <ele>559.14</ele>
        <time>2015-11-30T13:15:11Z</time>
      </trkpt>
      <trkpt lat="43.81943" lon="3.57477">
        <ele>558.66</ele>
        <time>2015-11-30T13:15:14Z</time>
      </trkpt>
      <trkpt lat="43.81952" lon="3.57481">
        <ele>557.22</ele>
        <time>2015-11-30T13:15:26Z</time>
      </trkpt>
      <trkpt lat="43.81948" lon="3.57483">
        <ele>556.26</ele>
        <time>2015-11-30T13:15:30Z</time>
      </trkpt>
      <trkpt lat="43.81941" lon="3.57484">
        <ele>555.3</ele>
        <time>2015-11-30T13:15:36Z</time>
      </trkpt>
      <trkpt lat="43.81938" lon="3.57482">
        <ele>555.3</ele>
        <time>2015-11-30T13:15:39Z</time>
      </trkpt>
      <trkpt lat="43.81932" lon="3.57481">
        <ele>554.34</ele>
        <time>2015-11-30T13:15:45Z</time>
      </trkpt>
      <trkpt lat="43.8193" lon="3.5748">
        <ele>553.86</ele>
        <time>2015-11-30T13:15:47Z</time>
      </trkpt>
      <trkpt lat="43.81915" lon="3.57474">
        <ele>550.97</ele>
        <time>2015-11-30T13:16:02Z</time>
      </trkpt>
      <trkpt lat="43.81907" lon="3.57473">
        <ele>549.05</ele>
        <time>2015-11-30T13:16:11Z</time>
      </trkpt>
      <trkpt lat="43.81904" lon="3.57475">
        <ele>548.57</ele>
        <time>2015-11-30T13:16:13Z</time>
      </trkpt>
      <trkpt lat="43.81895" lon="3.57491">
        <ele>546.65</ele>
        <time>2015-11-30T13:16:26Z</time>
      </trkpt>
      <trkpt lat="43.81893" lon="3.57506">
        <ele>543.28</ele>
        <time>2015-11-30T13:16:40Z</time>
      </trkpt>
      <trkpt lat="43.81893" lon="3.57509">
        <ele>543.28</ele>
        <time>2015-11-30T13:16:42Z</time>
      </trkpt>
      <trkpt lat="43.8189" lon="3.57522">
        <ele>540.88</ele>
        <time>2015-11-30T13:16:53Z</time>
      </trkpt>
      <trkpt lat="43.81886" lon="3.57535">
        <ele>538.96</ele>
        <time>2015-11-30T13:17:03Z</time>
      </trkpt>
      <trkpt lat="43.81883" lon="3.57543">
        <ele>537.51</ele>
        <time>2015-11-30T13:17:10Z</time>
      </trkpt>
      <trkpt lat="43.81879" lon="3.5755">
        <ele>535.59</ele>
        <time>2015-11-30T13:17:20Z</time>
      </trkpt>
      <trkpt lat="43.81876" lon="3.57557">
        <ele>534.63</ele>
        <time>2015-11-30T13:17:25Z</time>
      </trkpt>
      <trkpt lat="43.81872" lon="3.57564">
        <ele>533.67</ele>
        <time>2015-11-30T13:17:31Z</time>
      </trkpt>
      <trkpt lat="43.8187" lon="3.57569">
        <ele>533.19</ele>
        <time>2015-11-30T13:17:35Z</time>
      </trkpt>
      <trkpt lat="43.81855" lon="3.57576">
        <ele>530.3</ele>
        <time>2015-11-30T13:17:50Z</time>
      </trkpt>
      <trkpt lat="43.81853" lon="3.57575">
        <ele>529.82</ele>
        <time>2015-11-30T13:17:52Z</time>
      </trkpt>
      <trkpt lat="43.81847" lon="3.57578">
        <ele>528.86</ele>
        <time>2015-11-30T13:17:58Z</time>
      </trkpt>
      <trkpt lat="43.81841" lon="3.57583">
        <ele>527.42</ele>
        <time>2015-11-30T13:18:05Z</time>
      </trkpt>
      <trkpt lat="43.81837" lon="3.57585">
        <ele>526.94</ele>
        <time>2015-11-30T13:18:09Z</time>
      </trkpt>
      <trkpt lat="43.81833" lon="3.57588">
        <ele>525.98</ele>
        <time>2015-11-30T13:18:12Z</time>
      </trkpt>
      <trkpt lat="43.8182" lon="3.57595">
        <ele>523.58</ele>
        <time>2015-11-30T13:18:25Z</time>
      </trkpt>
      <trkpt lat="43.81817" lon="3.57599">
        <ele>522.61</ele>
        <time>2015-11-30T13:18:32Z</time>
      </trkpt>
      <trkpt lat="43.81825" lon="3.57599">
        <ele>520.21</ele>
        <time>2015-11-30T13:18:42Z</time>
      </trkpt>
      <trkpt lat="43.81831" lon="3.57598">
        <ele>519.73</ele>
        <time>2015-11-30T13:18:48Z</time>
      </trkpt>
      <trkpt lat="43.81835" lon="3.576">
        <ele>519.25</ele>
        <time>2015-11-30T13:18:51Z</time>
      </trkpt>
      <trkpt lat="43.8185" lon="3.57603">
        <ele>517.33</ele>
        <time>2015-11-30T13:19:05Z</time>
      </trkpt>
      <trkpt lat="43.81852" lon="3.57603">
        <ele>517.33</ele>
        <time>2015-11-30T13:19:07Z</time>
      </trkpt>
      <trkpt lat="43.81855" lon="3.57604">
        <ele>517.33</ele>
        <time>2015-11-30T13:19:09Z</time>
      </trkpt>
      <trkpt lat="43.81863" lon="3.57607">
        <ele>515.88</ele>
        <time>2015-11-30T13:19:17Z</time>
      </trkpt>
      <trkpt lat="43.81873" lon="3.57611">
        <ele>514.44</ele>
        <time>2015-11-30T13:19:27Z</time>
      </trkpt>
      <trkpt lat="43.8187" lon="3.57617">
        <ele>513.48</ele>
        <time>2015-11-30T13:19:33Z</time>
      </trkpt>
      <trkpt lat="43.8186" lon="3.57622">
        <ele>511.08</ele>
        <time>2015-11-30T13:19:43Z</time>
      </trkpt>
      <trkpt lat="43.81858" lon="3.57623">
        <ele>511.08</ele>
        <time>2015-11-30T13:19:45Z</time>
      </trkpt>
      <trkpt lat="43.81854" lon="3.57628">
        <ele>510.12</ele>
        <time>2015-11-30T13:19:50Z</time>
      </trkpt>
      <trkpt lat="43.81851" lon="3.57633">
        <ele>507.23</ele>
        <time>2015-11-30T13:20:03Z</time>
      </trkpt>
      <trkpt lat="43.81862" lon="3.57642">
        <ele>504.35</ele>
        <time>2015-11-30T13:20:16Z</time>
      </trkpt>
      <trkpt lat="43.81872" lon="3.57649">
        <ele>501.46</ele>
        <time>2015-11-30T13:20:28Z</time>
      </trkpt>
      <trkpt lat="43.81874" lon="3.57649">
        <ele>501.46</ele>
        <time>2015-11-30T13:20:30Z</time>
      </trkpt>
      <trkpt lat="43.8188" lon="3.5765">
        <ele>500.98</ele>
        <time>2015-11-30T13:20:35Z</time>
      </trkpt>
      <trkpt lat="43.81888" lon="3.57646">
        <ele>500.02</ele>
        <time>2015-11-30T13:20:43Z</time>
      </trkpt>
      <trkpt lat="43.81889" lon="3.5765">
        <ele>499.54</ele>
        <time>2015-11-30T13:20:45Z</time>
      </trkpt>
      <trkpt lat="43.8188" lon="3.57666">
        <ele>496.18</ele>
        <time>2015-11-30T13:21:00Z</time>
      </trkpt>
      <trkpt lat="43.81877" lon="3.57672">
        <ele>495.22</ele>
        <time>2015-11-30T13:21:07Z</time>
      </trkpt>
      <trkpt lat="43.81881" lon="3.5767">
        <ele>494.74</ele>
        <time>2015-11-30T13:21:13Z</time>
      </trkpt>
      <trkpt lat="43.81886" lon="3.57673">
        <ele>492.33</ele>
        <time>2015-11-30T13:21:24Z</time>
      </trkpt>
      <trkpt lat="43.81886" lon="3.57674">
        <ele>492.33</ele>
        <time>2015-11-30T13:21:25Z</time>
      </trkpt>
      <trkpt lat="43.8188" lon="3.57683">
        <ele>490.41</ele>
        <time>2015-11-30T13:21:34Z</time>
      </trkpt>
      <trkpt lat="43.81877" lon="3.57687">
        <ele>489.45</ele>
        <time>2015-11-30T13:21:39Z</time>
      </trkpt>
      <trkpt lat="43.81864" lon="3.57695">
        <ele>486.56</ele>
        <time>2015-11-30T13:21:52Z</time>
      </trkpt>
      <trkpt lat="43.81854" lon="3.57699">
        <ele>484.64</ele>
        <time>2015-11-30T13:22:04Z</time>
      </trkpt>
      <trkpt lat="43.81851" lon="3.57699">
        <ele>483.68</ele>
        <time>2015-11-30T13:22:07Z</time>
      </trkpt>
      <trkpt lat="43.81846" lon="3.57697">
        <ele>482.72</ele>
        <time>2015-11-30T13:22:13Z</time>
      </trkpt>
      <trkpt lat="43.81832" lon="3.577">
        <ele>479.84</ele>
        <time>2015-11-30T13:22:27Z</time>
      </trkpt>
      <trkpt lat="43.81828" lon="3.57702">
        <ele>478.87</ele>
        <time>2015-11-30T13:22:32Z</time>
      </trkpt>
      <trkpt lat="43.81833" lon="3.57706">
        <ele>476.47</ele>
        <time>2015-11-30T13:22:44Z</time>
      </trkpt>
      <trkpt lat="43.81836" lon="3.57712">
        <ele>475.03</ele>
        <time>2015-11-30T13:22:50Z</time>
      </trkpt>
      <trkpt lat="43.81835" lon="3.57717">
        <ele>474.55</ele>
        <time>2015-11-30T13:22:54Z</time>
      </trkpt>
      <trkpt lat="43.81828" lon="3.5773">
        <ele>471.18</ele>
        <time>2015-11-30T13:23:08Z</time>
      </trkpt>
      <trkpt lat="43.8183" lon="3.57736">
        <ele>469.26</ele>
        <time>2015-11-30T13:23:14Z</time>
      </trkpt>
      <trkpt lat="43.81831" lon="3.57747">
        <ele>465.9</ele>
        <time>2015-11-30T13:23:27Z</time>
      </trkpt>
      <trkpt lat="43.8183" lon="3.57762">
        <ele>463.01</ele>
        <time>2015-11-30T13:23:40Z</time>
      </trkpt>
      <trkpt lat="43.81835" lon="3.5776">
        <ele>461.57</ele>
        <time>2015-11-30T13:23:47Z</time>
      </trkpt>
      <trkpt lat="43.81841" lon="3.57757">
        <ele>460.61</ele>
        <time>2015-11-30T13:23:55Z</time>
      </trkpt>
      <trkpt lat="43.81845" lon="3.57761">
        <ele>459.65</ele>
        <time>2015-11-30T13:24:00Z</time>
      </trkpt>
      <trkpt lat="43.81856" lon="3.57763">
        <ele>459.17</ele>
        <time>2015-11-30T13:24:12Z</time>
      </trkpt>
      <trkpt lat="43.81862" lon="3.5777">
        <ele>457.72</ele>
        <time>2015-11-30T13:24:19Z</time>
      </trkpt>
      <trkpt lat="43.81868" lon="3.57773">
        <ele>456.76</ele>
        <time>2015-11-30T13:24:25Z</time>
      </trkpt>
      <trkpt lat="43.81872" lon="3.57774">
        <ele>456.28</ele>
        <time>2015-11-30T13:24:28Z</time>
      </trkpt>
      <trkpt lat="43.81872" lon="3.57779">
        <ele>455.32</ele>
        <time>2015-11-30T13:24:32Z</time>
      </trkpt>
      <trkpt lat="43.81862" lon="3.57785">
        <ele>452.92</ele>
        <time>2015-11-30T13:24:45Z</time>
      </trkpt>
      <trkpt lat="43.81855" lon="3.57789">
        <ele>451</ele>
        <time>2015-11-30T13:24:53Z</time>
      </trkpt>
      <trkpt lat="43.81854" lon="3.57791">
        <ele>450.52</ele>
        <time>2015-11-30T13:24:55Z</time>
      </trkpt>
      <trkpt lat="43.8185" lon="3.57794">
        <ele>450.03</ele>
        <time>2015-11-30T13:25:00Z</time>
      </trkpt>
      <trkpt lat="43.81849" lon="3.57798">
        <ele>449.55</ele>
        <time>2015-11-30T13:25:04Z</time>
      </trkpt>
      <trkpt lat="43.81848" lon="3.578">
        <ele>449.07</ele>
        <time>2015-11-30T13:25:06Z</time>
      </trkpt>
      <trkpt lat="43.81845" lon="3.57805">
        <ele>448.59</ele>
        <time>2015-11-30T13:25:11Z</time>
      </trkpt>
      <trkpt lat="43.81841" lon="3.57821">
        <ele>445.23</ele>
        <time>2015-11-30T13:25:23Z</time>
      </trkpt>
      <trkpt lat="43.81841" lon="3.57825">
        <ele>444.27</ele>
        <time>2015-11-30T13:25:27Z</time>
      </trkpt>
      <trkpt lat="43.81839" lon="3.57833">
        <ele>443.31</ele>
        <time>2015-11-30T13:25:33Z</time>
      </trkpt>
      <trkpt lat="43.81831" lon="3.5785">
        <ele>440.9</ele>
        <time>2015-11-30T13:25:48Z</time>
      </trkpt>
      <trkpt lat="43.81836" lon="3.5785">
        <ele>438.98</ele>
        <time>2015-11-30T13:26:00Z</time>
      </trkpt>
      <trkpt lat="43.81842" lon="3.57855">
        <ele>437.06</ele>
        <time>2015-11-30T13:26:11Z</time>
      </trkpt>
      <trkpt lat="43.81839" lon="3.57862">
        <ele>435.61</ele>
        <time>2015-11-30T13:26:17Z</time>
      </trkpt>
      <trkpt lat="43.81833" lon="3.57878">
        <ele>433.69</ele>
        <time>2015-11-30T13:26:30Z</time>
      </trkpt>
      <trkpt lat="43.8183" lon="3.57885">
        <ele>431.77</ele>
        <time>2015-11-30T13:26:35Z</time>
      </trkpt>
      <trkpt lat="43.8182" lon="3.57903">
        <ele>428.89</ele>
        <time>2015-11-30T13:26:49Z</time>
      </trkpt>
      <trkpt lat="43.81817" lon="3.57905">
        <ele>428.89</ele>
        <time>2015-11-30T13:26:53Z</time>
      </trkpt>
      <trkpt lat="43.81813" lon="3.57909">
        <ele>427.44</ele>
        <time>2015-11-30T13:26:58Z</time>
      </trkpt>
      <trkpt lat="43.81801" lon="3.57922">
        <ele>424.56</ele>
        <time>2015-11-30T13:27:11Z</time>
      </trkpt>
      <trkpt lat="43.81797" lon="3.57923">
        <ele>423.6</ele>
        <time>2015-11-30T13:27:15Z</time>
      </trkpt>
      <trkpt lat="43.81798" lon="3.57929">
        <ele>422.16</ele>
        <time>2015-11-30T13:27:24Z</time>
      </trkpt>
      <trkpt lat="43.81801" lon="3.57934">
        <ele>421.19</ele>
        <time>2015-11-30T13:27:30Z</time>
      </trkpt>
      <trkpt lat="43.81803" lon="3.57937">
        <ele>420.23</ele>
        <time>2015-11-30T13:27:33Z</time>
      </trkpt>
      <trkpt lat="43.8181" lon="3.57939">
        <ele>419.27</ele>
        <time>2015-11-30T13:27:41Z</time>
      </trkpt>
      <trkpt lat="43.81813" lon="3.57939">
        <ele>418.79</ele>
        <time>2015-11-30T13:27:44Z</time>
      </trkpt>
      <trkpt lat="43.8182" lon="3.57941">
        <ele>416.87</ele>
        <time>2015-11-30T13:27:51Z</time>
      </trkpt>
      <trkpt lat="43.81823" lon="3.5794">
        <ele>416.39</ele>
        <time>2015-11-30T13:27:54Z</time>
      </trkpt>
      <trkpt lat="43.81823" lon="3.57945">
        <ele>415.43</ele>
        <time>2015-11-30T13:27:58Z</time>
      </trkpt>
      <trkpt lat="43.8182" lon="3.57949">
        <ele>415.91</ele>
        <time>2015-11-30T13:28:02Z</time>
      </trkpt>
      <trkpt lat="43.81818" lon="3.57955">
        <ele>414.95</ele>
        <time>2015-11-30T13:28:06Z</time>
      </trkpt>
      <trkpt lat="43.81815" lon="3.57959">
        <ele>413.5</ele>
        <time>2015-11-30T13:28:10Z</time>
      </trkpt>
      <trkpt lat="43.81803" lon="3.5797">
        <ele>410.14</ele>
        <time>2015-11-30T13:28:23Z</time>
      </trkpt>
      <trkpt lat="43.8179" lon="3.57973">
        <ele>407.74</ele>
        <time>2015-11-30T13:28:36Z</time>
      </trkpt>
      <trkpt lat="43.81779" lon="3.57976">
        <ele>404.85</ele>
        <time>2015-11-30T13:28:47Z</time>
      </trkpt>
      <trkpt lat="43.81771" lon="3.57988">
        <ele>401.49</ele>
        <time>2015-11-30T13:28:59Z</time>
      </trkpt>
      <trkpt lat="43.81769" lon="3.57996">
        <ele>400.53</ele>
        <time>2015-11-30T13:29:06Z</time>
      </trkpt>
      <trkpt lat="43.8177" lon="3.58005">
        <ele>398.6</ele>
        <time>2015-11-30T13:29:14Z</time>
      </trkpt>
      <trkpt lat="43.81773" lon="3.58003">
        <ele>397.64</ele>
        <time>2015-11-30T13:29:18Z</time>
      </trkpt>
      <trkpt lat="43.81787" lon="3.58009">
        <ele>394.28</ele>
        <time>2015-11-30T13:29:33Z</time>
      </trkpt>
      <trkpt lat="43.81788" lon="3.58011">
        <ele>394.28</ele>
        <time>2015-11-30T13:29:35Z</time>
      </trkpt>
      <trkpt lat="43.81781" lon="3.58025">
        <ele>390.91</ele>
        <time>2015-11-30T13:29:48Z</time>
      </trkpt>
      <trkpt lat="43.8178" lon="3.58026">
        <ele>390.91</ele>
        <time>2015-11-30T13:29:50Z</time>
      </trkpt>
      <trkpt lat="43.81777" lon="3.5803">
        <ele>389.47</ele>
        <time>2015-11-30T13:29:53Z</time>
      </trkpt>
      <trkpt lat="43.81776" lon="3.58036">
        <ele>388.99</ele>
        <time>2015-11-30T13:29:57Z</time>
      </trkpt>
      <trkpt lat="43.81768" lon="3.58054">
        <ele>386.59</ele>
        <time>2015-11-30T13:30:10Z</time>
      </trkpt>
      <trkpt lat="43.81762" lon="3.58069">
        <ele>385.15</ele>
        <time>2015-11-30T13:30:23Z</time>
      </trkpt>
      <trkpt lat="43.81761" lon="3.58071">
        <ele>384.66</ele>
        <time>2015-11-30T13:30:25Z</time>
      </trkpt>
      <trkpt lat="43.81771" lon="3.58062">
        <ele>382.26</ele>
        <time>2015-11-30T13:30:37Z</time>
      </trkpt>
      <trkpt lat="43.81772" lon="3.58062">
        <ele>382.26</ele>
        <time>2015-11-30T13:30:38Z</time>
      </trkpt>
      <trkpt lat="43.8178" lon="3.58064">
        <ele>380.82</ele>
        <time>2015-11-30T13:30:45Z</time>
      </trkpt>
      <trkpt lat="43.8179" lon="3.58063">
        <ele>378.9</ele>
        <time>2015-11-30T13:30:56Z</time>
      </trkpt>
      <trkpt lat="43.81802" lon="3.58067">
        <ele>377.94</ele>
        <time>2015-11-30T13:31:08Z</time>
      </trkpt>
      <trkpt lat="43.81814" lon="3.58076">
        <ele>376.49</ele>
        <time>2015-11-30T13:31:20Z</time>
      </trkpt>
      <trkpt lat="43.81804" lon="3.58085">
        <ele>374.09</ele>
        <time>2015-11-30T13:31:32Z</time>
      </trkpt>
      <trkpt lat="43.81799" lon="3.58095">
        <ele>371.69</ele>
        <time>2015-11-30T13:31:44Z</time>
      </trkpt>
      <trkpt lat="43.81795" lon="3.58105">
        <ele>369.76</ele>
        <time>2015-11-30T13:31:53Z</time>
      </trkpt>
      <trkpt lat="43.81796" lon="3.58107">
        <ele>369.28</ele>
        <time>2015-11-30T13:31:55Z</time>
      </trkpt>
      <trkpt lat="43.81792" lon="3.58115">
        <ele>368.32</ele>
        <time>2015-11-30T13:32:01Z</time>
      </trkpt>
      <trkpt lat="43.81787" lon="3.58123">
        <ele>366.88</ele>
        <time>2015-11-30T13:32:09Z</time>
      </trkpt>
      <trkpt lat="43.81781" lon="3.5814">
        <ele>364.96</ele>
        <time>2015-11-30T13:32:22Z</time>
      </trkpt>
      <trkpt lat="43.81774" lon="3.58152">
        <ele>362.07</ele>
        <time>2015-11-30T13:32:34Z</time>
      </trkpt>
      <trkpt lat="43.81771" lon="3.58156">
        <ele>362.07</ele>
        <time>2015-11-30T13:32:38Z</time>
      </trkpt>
      <trkpt lat="43.81769" lon="3.58157">
        <ele>361.11</ele>
        <time>2015-11-30T13:32:40Z</time>
      </trkpt>
      <trkpt lat="43.81768" lon="3.5816">
        <ele>361.11</ele>
        <time>2015-11-30T13:32:42Z</time>
      </trkpt>
      <trkpt lat="43.81763" lon="3.58167">
        <ele>359.67</ele>
        <time>2015-11-30T13:32:49Z</time>
      </trkpt>
      <trkpt lat="43.81761" lon="3.58172">
        <ele>358.71</ele>
        <time>2015-11-30T13:32:54Z</time>
      </trkpt>
      <trkpt lat="43.81752" lon="3.58187">
        <ele>356.79</ele>
        <time>2015-11-30T13:33:07Z</time>
      </trkpt>
      <trkpt lat="43.81751" lon="3.58188">
        <ele>356.79</ele>
        <time>2015-11-30T13:33:10Z</time>
      </trkpt>
      <trkpt lat="43.81749" lon="3.58192">
        <ele>356.31</ele>
        <time>2015-11-30T13:33:13Z</time>
      </trkpt>
      <trkpt lat="43.81744" lon="3.58202">
        <ele>354.38</ele>
        <time>2015-11-30T13:33:21Z</time>
      </trkpt>
      <trkpt lat="43.81742" lon="3.58205">
        <ele>354.38</ele>
        <time>2015-11-30T13:33:24Z</time>
      </trkpt>
      <trkpt lat="43.81737" lon="3.58212">
        <ele>352.94</ele>
        <time>2015-11-30T13:33:31Z</time>
      </trkpt>
      <trkpt lat="43.8173" lon="3.58226">
        <ele>350.54</ele>
        <time>2015-11-30T13:33:43Z</time>
      </trkpt>
      <trkpt lat="43.81728" lon="3.5823">
        <ele>349.58</ele>
        <time>2015-11-30T13:33:47Z</time>
      </trkpt>
      <trkpt lat="43.81726" lon="3.58233">
        <ele>349.1</ele>
        <time>2015-11-30T13:33:50Z</time>
      </trkpt>
      <trkpt lat="43.81721" lon="3.58242">
        <ele>347.65</ele>
        <time>2015-11-30T13:33:58Z</time>
      </trkpt>
      <trkpt lat="43.81713" lon="3.58259">
        <ele>344.77</ele>
        <time>2015-11-30T13:34:12Z</time>
      </trkpt>
      <trkpt lat="43.81701" lon="3.58276">
        <ele>341.41</ele>
        <time>2015-11-30T13:34:29Z</time>
      </trkpt>
      <trkpt lat="43.81701" lon="3.58282">
        <ele>339.96</ele>
        <time>2015-11-30T13:34:35Z</time>
      </trkpt>
      <trkpt lat="43.81695" lon="3.58292">
        <ele>338.52</ele>
        <time>2015-11-30T13:34:43Z</time>
      </trkpt>
      <trkpt lat="43.81685" lon="3.58302">
        <ele>335.64</ele>
        <time>2015-11-30T13:34:55Z</time>
      </trkpt>
      <trkpt lat="43.81683" lon="3.58305">
        <ele>335.16</ele>
        <time>2015-11-30T13:34:58Z</time>
      </trkpt>
      <trkpt lat="43.81671" lon="3.58313">
        <ele>332.27</ele>
        <time>2015-11-30T13:35:13Z</time>
      </trkpt>
      <trkpt lat="43.81665" lon="3.58322">
        <ele>328.91</ele>
        <time>2015-11-30T13:35:25Z</time>
      </trkpt>
      <trkpt lat="43.81664" lon="3.58324">
        <ele>329.39</ele>
        <time>2015-11-30T13:35:27Z</time>
      </trkpt>
      <trkpt lat="43.81659" lon="3.58336">
        <ele>325.06</ele>
        <time>2015-11-30T13:35:40Z</time>
      </trkpt>
      <trkpt lat="43.8166" lon="3.58344">
        <ele>322.18</ele>
        <time>2015-11-30T13:35:50Z</time>
      </trkpt>
      <trkpt lat="43.81659" lon="3.58343">
        <ele>321.7</ele>
        <time>2015-11-30T13:36:02Z</time>
      </trkpt>
      <trkpt lat="43.81659" lon="3.58344">
        <ele>321.22</ele>
        <time>2015-11-30T13:36:27Z</time>
      </trkpt>
      <trkpt lat="43.81659" lon="3.58344">
        <ele>321.22</ele>
        <time>2015-11-30T13:36:56Z</time>
      </trkpt>
      <trkpt lat="43.81659" lon="3.58345">
        <ele>321.22</ele>
        <time>2015-11-30T13:37:29Z</time>
      </trkpt>
      <trkpt lat="43.81659" lon="3.58345">
        <ele>321.22</ele>
        <time>2015-11-30T13:38:00Z</time>
      </trkpt>
      <trkpt lat="43.81659" lon="3.58344">
        <ele>321.7</ele>
        <time>2015-11-30T13:38:37Z</time>
      </trkpt>
      <trkpt lat="43.81659" lon="3.58343">
        <ele>322.66</ele>
        <time>2015-11-30T13:38:52Z</time>
      </trkpt>
      <trkpt lat="43.81659" lon="3.58344">
        <ele>322.18</ele>
        <time>2015-11-30T13:39:06Z</time>
      </trkpt>
      <trkpt lat="43.81652" lon="3.58353">
        <ele>320.26</ele>
        <time>2015-11-30T13:39:16Z</time>
      </trkpt>
      <trkpt lat="43.8165" lon="3.58359">
        <ele>318.81</ele>
        <time>2015-11-30T13:39:21Z</time>
      </trkpt>
      <trkpt lat="43.81643" lon="3.58367">
        <ele>315.45</ele>
        <time>2015-11-30T13:39:34Z</time>
      </trkpt>
      <trkpt lat="43.81643" lon="3.58371">
        <ele>314.49</ele>
        <time>2015-11-30T13:39:50Z</time>
      </trkpt>
      <trkpt lat="43.81647" lon="3.58378">
        <ele>311.6</ele>
        <time>2015-11-30T13:40:01Z</time>
      </trkpt>
      <trkpt lat="43.8165" lon="3.58391">
        <ele>308.24</ele>
        <time>2015-11-30T13:40:13Z</time>
      </trkpt>
      <trkpt lat="43.81652" lon="3.58403">
        <ele>305.36</ele>
        <time>2015-11-30T13:40:23Z</time>
      </trkpt>
      <trkpt lat="43.81662" lon="3.58416">
        <ele>301.99</ele>
        <time>2015-11-30T13:40:36Z</time>
      </trkpt>
      <trkpt lat="43.81662" lon="3.58416">
        <ele>301.51</ele>
        <time>2015-11-30T13:40:37Z</time>
      </trkpt>
      <trkpt lat="43.81666" lon="3.58422">
        <ele>300.07</ele>
        <time>2015-11-30T13:40:49Z</time>
      </trkpt>
      <trkpt lat="43.81665" lon="3.58431">
        <ele>297.67</ele>
        <time>2015-11-30T13:41:01Z</time>
      </trkpt>
      <trkpt lat="43.81664" lon="3.58434">
        <ele>297.67</ele>
        <time>2015-11-30T13:41:16Z</time>
      </trkpt>
      <trkpt lat="43.81657" lon="3.58442">
        <ele>295.26</ele>
        <time>2015-11-30T13:41:28Z</time>
      </trkpt>
      <trkpt lat="43.81652" lon="3.58456">
        <ele>291.9</ele>
        <time>2015-11-30T13:41:41Z</time>
      </trkpt>
      <trkpt lat="43.81644" lon="3.58463">
        <ele>289.97</ele>
        <time>2015-11-30T13:41:49Z</time>
      </trkpt>
      <trkpt lat="43.81642" lon="3.58466">
        <ele>289.49</ele>
        <time>2015-11-30T13:41:51Z</time>
      </trkpt>
      <trkpt lat="43.81635" lon="3.58481">
        <ele>287.09</ele>
        <time>2015-11-30T13:42:03Z</time>
      </trkpt>
      <trkpt lat="43.81628" lon="3.5849">
        <ele>284.69</ele>
        <time>2015-11-30T13:42:12Z</time>
      </trkpt>
      <trkpt lat="43.81615" lon="3.58504">
        <ele>281.32</ele>
        <time>2015-11-30T13:42:27Z</time>
      </trkpt>
      <trkpt lat="43.81609" lon="3.58513">
        <ele>279.4</ele>
        <time>2015-11-30T13:42:39Z</time>
      </trkpt>
      <trkpt lat="43.81608" lon="3.58513">
        <ele>282.77</ele>
        <time>2015-11-30T13:42:53Z</time>
      </trkpt>
      <trkpt lat="43.81607" lon="3.58513">
        <ele>279.4</ele>
        <time>2015-11-30T13:42:54Z</time>
      </trkpt>
      <trkpt lat="43.81607" lon="3.58514">
        <ele>278.92</ele>
        <time>2015-11-30T13:43:16Z</time>
      </trkpt>
      <trkpt lat="43.81603" lon="3.58519">
        <ele>277.96</ele>
        <time>2015-11-30T13:43:27Z</time>
      </trkpt>
      <trkpt lat="43.816" lon="3.58529">
        <ele>277</ele>
        <time>2015-11-30T13:43:38Z</time>
      </trkpt>
      <trkpt lat="43.81594" lon="3.58532">
        <ele>275.56</ele>
        <time>2015-11-30T13:43:47Z</time>
      </trkpt>
      <trkpt lat="43.81586" lon="3.5854">
        <ele>273.63</ele>
        <time>2015-11-30T13:43:57Z</time>
      </trkpt>
      <trkpt lat="43.8158" lon="3.58546">
        <ele>271.71</ele>
        <time>2015-11-30T13:44:05Z</time>
      </trkpt>
      <trkpt lat="43.81573" lon="3.58556">
        <ele>268.83</ele>
        <time>2015-11-30T13:44:17Z</time>
      </trkpt>
      <trkpt lat="43.81567" lon="3.58563">
        <ele>266.9</ele>
        <time>2015-11-30T13:44:23Z</time>
      </trkpt>
      <trkpt lat="43.81561" lon="3.5857">
        <ele>265.46</ele>
        <time>2015-11-30T13:44:31Z</time>
      </trkpt>
      <trkpt lat="43.81557" lon="3.58575">
        <ele>264.02</ele>
        <time>2015-11-30T13:44:37Z</time>
      </trkpt>
      <trkpt lat="43.81554" lon="3.58577">
        <ele>263.06</ele>
        <time>2015-11-30T13:44:39Z</time>
      </trkpt>
      <trkpt lat="43.8155" lon="3.58581">
        <ele>261.62</ele>
        <time>2015-11-30T13:44:45Z</time>
      </trkpt>
      <trkpt lat="43.81545" lon="3.58581">
        <ele>260.65</ele>
        <time>2015-11-30T13:44:49Z</time>
      </trkpt>
      <trkpt lat="43.81538" lon="3.58589">
        <ele>257.77</ele>
        <time>2015-11-30T13:44:58Z</time>
      </trkpt>
      <trkpt lat="43.8153" lon="3.58596">
        <ele>255.37</ele>
        <time>2015-11-30T13:45:06Z</time>
      </trkpt>
      <trkpt lat="43.81525" lon="3.58603">
        <ele>253.44</ele>
        <time>2015-11-30T13:45:17Z</time>
      </trkpt>
      <trkpt lat="43.81519" lon="3.58605">
        <ele>252.48</ele>
        <time>2015-11-30T13:45:22Z</time>
      </trkpt>
      <trkpt lat="43.81501" lon="3.58608">
        <ele>249.6</ele>
        <time>2015-11-30T13:45:36Z</time>
      </trkpt>
      <trkpt lat="43.81499" lon="3.58609">
        <ele>249.12</ele>
        <time>2015-11-30T13:45:38Z</time>
      </trkpt>
      <trkpt lat="43.81487" lon="3.58611">
        <ele>245.75</ele>
        <time>2015-11-30T13:45:50Z</time>
      </trkpt>
      <trkpt lat="43.81477" lon="3.58618">
        <ele>242.39</ele>
        <time>2015-11-30T13:46:02Z</time>
      </trkpt>
      <trkpt lat="43.8147" lon="3.58627">
        <ele>239.02</ele>
        <time>2015-11-30T13:46:14Z</time>
      </trkpt>
      <trkpt lat="43.81456" lon="3.5863">
        <ele>237.1</ele>
        <time>2015-11-30T13:46:28Z</time>
      </trkpt>
      <trkpt lat="43.81452" lon="3.58631">
        <ele>236.14</ele>
        <time>2015-11-30T13:46:32Z</time>
      </trkpt>
      <trkpt lat="43.81446" lon="3.58635">
        <ele>234.7</ele>
        <time>2015-11-30T13:46:38Z</time>
      </trkpt>
      <trkpt lat="43.8144" lon="3.58635">
        <ele>233.26</ele>
        <time>2015-11-30T13:46:45Z</time>
      </trkpt>
      <trkpt lat="43.8143" lon="3.58643">
        <ele>231.33</ele>
        <time>2015-11-30T13:46:57Z</time>
      </trkpt>
      <trkpt lat="43.81429" lon="3.58643">
        <ele>231.33</ele>
        <time>2015-11-30T13:46:58Z</time>
      </trkpt>
      <trkpt lat="43.81416" lon="3.58646">
        <ele>229.41</ele>
        <time>2015-11-30T13:47:09Z</time>
      </trkpt>
      <trkpt lat="43.81406" lon="3.58649">
        <ele>227.97</ele>
        <time>2015-11-30T13:47:20Z</time>
      </trkpt>
      <trkpt lat="43.81398" lon="3.5866">
        <ele>226.53</ele>
        <time>2015-11-30T13:47:30Z</time>
      </trkpt>
      <trkpt lat="43.81396" lon="3.58665">
        <ele>225.57</ele>
        <time>2015-11-30T13:47:34Z</time>
      </trkpt>
      <trkpt lat="43.81382" lon="3.58677">
        <ele>224.12</ele>
        <time>2015-11-30T13:47:48Z</time>
      </trkpt>
      <trkpt lat="43.81374" lon="3.58684">
        <ele>223.16</ele>
        <time>2015-11-30T13:47:55Z</time>
      </trkpt>
      <trkpt lat="43.81361" lon="3.58694">
        <ele>221.72</ele>
        <time>2015-11-30T13:48:08Z</time>
      </trkpt>
      <trkpt lat="43.81348" lon="3.58705">
        <ele>219.8</ele>
        <time>2015-11-30T13:48:20Z</time>
      </trkpt>
      <trkpt lat="43.8133" lon="3.58716">
        <ele>218.36</ele>
        <time>2015-11-30T13:48:35Z</time>
      </trkpt>
      <trkpt lat="43.81329" lon="3.58718">
        <ele>217.88</ele>
        <time>2015-11-30T13:48:38Z</time>
      </trkpt>
      <trkpt lat="43.81316" lon="3.58736">
        <ele>216.43</ele>
        <time>2015-11-30T13:48:53Z</time>
      </trkpt>
      <trkpt lat="43.81311" lon="3.58741">
        <ele>215.95</ele>
        <time>2015-11-30T13:48:58Z</time>
      </trkpt>
      <trkpt lat="43.81308" lon="3.58743">
        <ele>214.99</ele>
        <time>2015-11-30T13:49:01Z</time>
      </trkpt>
      <trkpt lat="43.813" lon="3.58749">
        <ele>214.03</ele>
        <time>2015-11-30T13:49:12Z</time>
      </trkpt>
      <trkpt lat="43.81296" lon="3.58756">
        <ele>213.55</ele>
        <time>2015-11-30T13:49:18Z</time>
      </trkpt>
      <trkpt lat="43.81289" lon="3.58759">
        <ele>212.59</ele>
        <time>2015-11-30T13:49:33Z</time>
      </trkpt>
      <trkpt lat="43.81288" lon="3.5876">
        <ele>212.59</ele>
        <time>2015-11-30T13:49:36Z</time>
      </trkpt>
      <trkpt lat="43.81286" lon="3.58766">
        <ele>212.11</ele>
        <time>2015-11-30T13:49:40Z</time>
      </trkpt>
      <trkpt lat="43.8128" lon="3.58785">
        <ele>210.19</ele>
        <time>2015-11-30T13:49:53Z</time>
      </trkpt>
      <trkpt lat="43.81272" lon="3.58792">
        <ele>208.74</ele>
        <time>2015-11-30T13:49:59Z</time>
      </trkpt>
      <trkpt lat="43.81267" lon="3.58795">
        <ele>207.78</ele>
        <time>2015-11-30T13:50:03Z</time>
      </trkpt>
      <trkpt lat="43.81266" lon="3.58805">
        <ele>206.82</ele>
        <time>2015-11-30T13:50:08Z</time>
      </trkpt>
      <trkpt lat="43.81268" lon="3.58813">
        <ele>205.86</ele>
        <time>2015-11-30T13:50:14Z</time>
      </trkpt>
      <trkpt lat="43.81273" lon="3.5883">
        <ele>203.94</ele>
        <time>2015-11-30T13:50:28Z</time>
      </trkpt>
      <trkpt lat="43.8127" lon="3.58835">
        <ele>203.46</ele>
        <time>2015-11-30T13:50:33Z</time>
      </trkpt>
      <trkpt lat="43.81268" lon="3.58838">
        <ele>202.49</ele>
        <time>2015-11-30T13:50:35Z</time>
      </trkpt>
      <trkpt lat="43.81263" lon="3.58854">
        <ele>200.57</ele>
        <time>2015-11-30T13:50:50Z</time>
      </trkpt>
      <trkpt lat="43.81262" lon="3.58861">
        <ele>199.61</ele>
        <time>2015-11-30T13:51:08Z</time>
      </trkpt>
      <trkpt lat="43.81261" lon="3.58867">
        <ele>197.69</ele>
        <time>2015-11-30T13:51:21Z</time>
      </trkpt>
      <trkpt lat="43.81261" lon="3.58868">
        <ele>197.69</ele>
        <time>2015-11-30T13:51:23Z</time>
      </trkpt>
      <trkpt lat="43.81262" lon="3.58879">
        <ele>195.28</ele>
        <time>2015-11-30T13:51:35Z</time>
      </trkpt>
      <trkpt lat="43.81263" lon="3.58888">
        <ele>193.36</ele>
        <time>2015-11-30T13:51:41Z</time>
      </trkpt>
      <trkpt lat="43.81265" lon="3.58905">
        <ele>190.48</ele>
        <time>2015-11-30T13:51:55Z</time>
      </trkpt>
      <trkpt lat="43.81266" lon="3.58921">
        <ele>188.08</ele>
        <time>2015-11-30T13:52:09Z</time>
      </trkpt>
      <trkpt lat="43.81271" lon="3.58934">
        <ele>187.11</ele>
        <time>2015-11-30T13:52:19Z</time>
      </trkpt>
      <trkpt lat="43.81271" lon="3.58937">
        <ele>186.63</ele>
        <time>2015-11-30T13:52:21Z</time>
      </trkpt>
      <trkpt lat="43.81277" lon="3.5895">
        <ele>185.19</ele>
        <time>2015-11-30T13:52:32Z</time>
      </trkpt>
      <trkpt lat="43.81275" lon="3.58956">
        <ele>185.19</ele>
        <time>2015-11-30T13:52:35Z</time>
      </trkpt>
      <trkpt lat="43.81273" lon="3.58965">
        <ele>183.75</ele>
        <time>2015-11-30T13:52:40Z</time>
      </trkpt>
      <trkpt lat="43.81274" lon="3.5897">
        <ele>183.75</ele>
        <time>2015-11-30T13:52:43Z</time>
      </trkpt>
      <trkpt lat="43.81273" lon="3.58992">
        <ele>181.35</ele>
        <time>2015-11-30T13:52:57Z</time>
      </trkpt>
      <trkpt lat="43.81273" lon="3.58993">
        <ele>181.35</ele>
        <time>2015-11-30T13:52:58Z</time>
      </trkpt>
      <trkpt lat="43.81272" lon="3.59001">
        <ele>180.38</ele>
        <time>2015-11-30T13:53:13Z</time>
      </trkpt>
      <trkpt lat="43.81272" lon="3.59002">
        <ele>180.38</ele>
        <time>2015-11-30T13:53:18Z</time>
      </trkpt>
      <trkpt lat="43.81272" lon="3.59007">
        <ele>179.9</ele>
        <time>2015-11-30T13:53:22Z</time>
      </trkpt>
      <trkpt lat="43.81269" lon="3.59026">
        <ele>178.46</ele>
        <time>2015-11-30T13:53:34Z</time>
      </trkpt>
      <trkpt lat="43.81263" lon="3.59038">
        <ele>176.54</ele>
        <time>2015-11-30T13:53:50Z</time>
      </trkpt>
      <trkpt lat="43.81265" lon="3.5904">
        <ele>177.5</ele>
        <time>2015-11-30T13:54:02Z</time>
      </trkpt>
      <trkpt lat="43.8128" lon="3.59044">
        <ele>175.1</ele>
        <time>2015-11-30T13:54:16Z</time>
      </trkpt>
      <trkpt lat="43.81294" lon="3.5905">
        <ele>174.14</ele>
        <time>2015-11-30T13:54:29Z</time>
      </trkpt>
      <trkpt lat="43.81295" lon="3.59049">
        <ele>174.14</ele>
        <time>2015-11-30T13:54:30Z</time>
      </trkpt>
      <trkpt lat="43.81297" lon="3.59048">
        <ele>173.66</ele>
        <time>2015-11-30T13:54:32Z</time>
      </trkpt>
      <trkpt lat="43.81303" lon="3.59045">
        <ele>173.17</ele>
        <time>2015-11-30T13:54:37Z</time>
      </trkpt>
      <trkpt lat="43.81309" lon="3.59044">
        <ele>172.69</ele>
        <time>2015-11-30T13:54:41Z</time>
      </trkpt>
      <trkpt lat="43.81326" lon="3.59047">
        <ele>171.73</ele>
        <time>2015-11-30T13:54:54Z</time>
      </trkpt>
      <trkpt lat="43.81342" lon="3.59059">
        <ele>171.73</ele>
        <time>2015-11-30T13:55:06Z</time>
      </trkpt>
      <trkpt lat="43.81346" lon="3.59069">
        <ele>171.73</ele>
        <time>2015-11-30T13:55:13Z</time>
      </trkpt>
      <trkpt lat="43.81353" lon="3.59091">
        <ele>171.25</ele>
        <time>2015-11-30T13:55:27Z</time>
      </trkpt>
      <trkpt lat="43.81359" lon="3.59109">
        <ele>170.77</ele>
        <time>2015-11-30T13:55:41Z</time>
      </trkpt>
      <trkpt lat="43.81364" lon="3.59129">
        <ele>171.25</ele>
        <time>2015-11-30T13:55:55Z</time>
      </trkpt>
      <trkpt lat="43.81368" lon="3.59143">
        <ele>171.73</ele>
        <time>2015-11-30T13:56:11Z</time>
      </trkpt>
      <trkpt lat="43.81371" lon="3.59146">
        <ele>171.73</ele>
        <time>2015-11-30T13:56:28Z</time>
      </trkpt>
      <trkpt lat="43.81377" lon="3.59152">
        <ele>171.25</ele>
        <time>2015-11-30T13:56:37Z</time>
      </trkpt>
      <trkpt lat="43.81389" lon="3.59158">
        <ele>171.73</ele>
        <time>2015-11-30T13:56:53Z</time>
      </trkpt>
      <trkpt lat="43.81403" lon="3.59176">
        <ele>173.17</ele>
        <time>2015-11-30T13:57:10Z</time>
      </trkpt>
      <trkpt lat="43.81409" lon="3.59185">
        <ele>174.14</ele>
        <time>2015-11-30T13:57:21Z</time>
      </trkpt>
      <trkpt lat="43.81416" lon="3.59202">
        <ele>174.62</ele>
        <time>2015-11-30T13:57:35Z</time>
      </trkpt>
      <trkpt lat="43.81423" lon="3.59215">
        <ele>177.02</ele>
        <time>2015-11-30T13:57:48Z</time>
      </trkpt>
      <trkpt lat="43.81429" lon="3.59225">
        <ele>178.46</ele>
        <time>2015-11-30T13:57:59Z</time>
      </trkpt>
      <trkpt lat="43.8143" lon="3.59226">
        <ele>178.46</ele>
        <time>2015-11-30T13:58:00Z</time>
      </trkpt>
      <trkpt lat="43.81434" lon="3.59241">
        <ele>179.9</ele>
        <time>2015-11-30T13:58:12Z</time>
      </trkpt>
      <trkpt lat="43.8144" lon="3.59258">
        <ele>180.87</ele>
        <time>2015-11-30T13:58:27Z</time>
      </trkpt>
      <trkpt lat="43.81445" lon="3.59274">
        <ele>182.31</ele>
        <time>2015-11-30T13:58:41Z</time>
      </trkpt>
      <trkpt lat="43.81446" lon="3.59281">
        <ele>183.27</ele>
        <time>2015-11-30T13:58:53Z</time>
      </trkpt>
      <trkpt lat="43.81446" lon="3.59287">
        <ele>183.75</ele>
        <time>2015-11-30T13:59:23Z</time>
      </trkpt>
      <trkpt lat="43.8145" lon="3.59293">
        <ele>184.71</ele>
        <time>2015-11-30T13:59:34Z</time>
      </trkpt>
      <trkpt lat="43.81456" lon="3.59304">
        <ele>186.63</ele>
        <time>2015-11-30T13:59:48Z</time>
      </trkpt>
      <trkpt lat="43.81456" lon="3.59307">
        <ele>187.59</ele>
        <time>2015-11-30T14:00:03Z</time>
      </trkpt>
      <trkpt lat="43.81456" lon="3.5931">
        <ele>188.08</ele>
        <time>2015-11-30T14:00:29Z</time>
      </trkpt>
      <trkpt lat="43.81457" lon="3.59309">
        <ele>188.08</ele>
        <time>2015-11-30T14:00:59Z</time>
      </trkpt>
      <trkpt lat="43.81456" lon="3.5931">
        <ele>187.59</ele>
        <time>2015-11-30T14:01:25Z</time>
      </trkpt>
      <trkpt lat="43.81456" lon="3.59311">
        <ele>187.11</ele>
        <time>2015-11-30T14:01:50Z</time>
      </trkpt>
      <trkpt lat="43.81456" lon="3.59312">
        <ele>187.59</ele>
        <time>2015-11-30T14:02:13Z</time>
      </trkpt>
      <trkpt lat="43.81456" lon="3.59313">
        <ele>187.11</ele>
        <time>2015-11-30T14:02:49Z</time>
      </trkpt>
      <trkpt lat="43.81457" lon="3.59313">
        <ele>186.63</ele>
        <time>2015-11-30T14:03:16Z</time>
      </trkpt>
      <trkpt lat="43.81458" lon="3.59313">
        <ele>186.63</ele>
        <time>2015-11-30T14:03:39Z</time>
      </trkpt>
      <trkpt lat="43.81453" lon="3.59305">
        <ele>185.19</ele>
        <time>2015-11-30T14:03:55Z</time>
      </trkpt>
      <trkpt lat="43.81447" lon="3.59287">
        <ele>182.31</ele>
        <time>2015-11-30T14:04:09Z</time>
      </trkpt>
      <trkpt lat="43.81445" lon="3.59282">
        <ele>181.83</ele>
        <time>2015-11-30T14:04:12Z</time>
      </trkpt>
      <trkpt lat="43.81438" lon="3.59262">
        <ele>179.9</ele>
        <time>2015-11-30T14:04:26Z</time>
      </trkpt>
      <trkpt lat="43.81432" lon="3.59244">
        <ele>178.46</ele>
        <time>2015-11-30T14:04:40Z</time>
      </trkpt>
      <trkpt lat="43.81425" lon="3.59225">
        <ele>176.54</ele>
        <time>2015-11-30T14:04:55Z</time>
      </trkpt>
      <trkpt lat="43.81419" lon="3.59212">
        <ele>173.66</ele>
        <time>2015-11-30T14:05:07Z</time>
      </trkpt>
      <trkpt lat="43.81418" lon="3.59212">
        <ele>173.66</ele>
        <time>2015-11-30T14:05:14Z</time>
      </trkpt>
      <trkpt lat="43.81416" lon="3.59195">
        <ele>173.17</ele>
        <time>2015-11-30T14:05:27Z</time>
      </trkpt>
      <trkpt lat="43.81402" lon="3.5918">
        <ele>171.73</ele>
        <time>2015-11-30T14:05:42Z</time>
      </trkpt>
      <trkpt lat="43.81398" lon="3.59179">
        <ele>169.81</ele>
        <time>2015-11-30T14:05:57Z</time>
      </trkpt>
      <trkpt lat="43.81404" lon="3.59192">
        <ele>168.37</ele>
        <time>2015-11-30T14:06:09Z</time>
      </trkpt>
      <trkpt lat="43.81412" lon="3.59204">
        <ele>167.89</ele>
        <time>2015-11-30T14:06:20Z</time>
      </trkpt>
      <trkpt lat="43.81412" lon="3.59218">
        <ele>167.89</ele>
        <time>2015-11-30T14:06:29Z</time>
      </trkpt>
      <trkpt lat="43.81412" lon="3.5923">
        <ele>168.37</ele>
        <time>2015-11-30T14:06:40Z</time>
      </trkpt>
      <trkpt lat="43.81413" lon="3.59235">
        <ele>167.89</ele>
        <time>2015-11-30T14:06:43Z</time>
      </trkpt>
      <trkpt lat="43.81414" lon="3.59243">
        <ele>168.37</ele>
        <time>2015-11-30T14:06:47Z</time>
      </trkpt>
      <trkpt lat="43.81419" lon="3.59262">
        <ele>168.37</ele>
        <time>2015-11-30T14:06:58Z</time>
      </trkpt>
      <trkpt lat="43.81415" lon="3.59277">
        <ele>168.85</ele>
        <time>2015-11-30T14:07:06Z</time>
      </trkpt>
      <trkpt lat="43.81413" lon="3.5928">
        <ele>168.85</ele>
        <time>2015-11-30T14:07:08Z</time>
      </trkpt>
      <trkpt lat="43.81409" lon="3.59286">
        <ele>168.37</ele>
        <time>2015-11-30T14:07:12Z</time>
      </trkpt>
      <trkpt lat="43.81399" lon="3.59308">
        <ele>167.89</ele>
        <time>2015-11-30T14:07:28Z</time>
      </trkpt>
      <trkpt lat="43.81391" lon="3.5932">
        <ele>167.41</ele>
        <time>2015-11-30T14:07:39Z</time>
      </trkpt>
      <trkpt lat="43.81388" lon="3.59326">
        <ele>167.41</ele>
        <time>2015-11-30T14:07:42Z</time>
      </trkpt>
      <trkpt lat="43.81378" lon="3.59337">
        <ele>165.48</ele>
        <time>2015-11-30T14:07:55Z</time>
      </trkpt>
      <trkpt lat="43.81374" lon="3.5934">
        <ele>165</ele>
        <time>2015-11-30T14:08:00Z</time>
      </trkpt>
      <trkpt lat="43.81373" lon="3.59346">
        <ele>165</ele>
        <time>2015-11-30T14:08:13Z</time>
      </trkpt>
      <trkpt lat="43.81374" lon="3.59357">
        <ele>164.04</ele>
        <time>2015-11-30T14:08:22Z</time>
      </trkpt>
      <trkpt lat="43.81368" lon="3.59368">
        <ele>163.56</ele>
        <time>2015-11-30T14:08:35Z</time>
      </trkpt>
      <trkpt lat="43.81364" lon="3.59374">
        <ele>163.56</ele>
        <time>2015-11-30T14:08:46Z</time>
      </trkpt>
      <trkpt lat="43.81368" lon="3.59383">
        <ele>164.04</ele>
        <time>2015-11-30T14:09:00Z</time>
      </trkpt>
      <trkpt lat="43.81368" lon="3.59385">
        <ele>164.52</ele>
        <time>2015-11-30T14:09:03Z</time>
      </trkpt>
      <trkpt lat="43.8137" lon="3.59394">
        <ele>165.48</ele>
        <time>2015-11-30T14:09:08Z</time>
      </trkpt>
      <trkpt lat="43.81369" lon="3.59403">
        <ele>165.48</ele>
        <time>2015-11-30T14:09:17Z</time>
      </trkpt>
      <trkpt lat="43.81364" lon="3.59423">
        <ele>165</ele>
        <time>2015-11-30T14:09:30Z</time>
      </trkpt>
      <trkpt lat="43.81365" lon="3.59426">
        <ele>165</ele>
        <time>2015-11-30T14:09:32Z</time>
      </trkpt>
      <trkpt lat="43.81362" lon="3.59438">
        <ele>165</ele>
        <time>2015-11-30T14:09:40Z</time>
      </trkpt>
      <trkpt lat="43.81359" lon="3.59462">
        <ele>165</ele>
        <time>2015-11-30T14:09:55Z</time>
      </trkpt>
      <trkpt lat="43.81358" lon="3.59465">
        <ele>165</ele>
        <time>2015-11-30T14:09:58Z</time>
      </trkpt>
      <trkpt lat="43.81357" lon="3.59481">
        <ele>165.48</ele>
        <time>2015-11-30T14:10:11Z</time>
      </trkpt>
      <trkpt lat="43.81351" lon="3.59497">
        <ele>165.48</ele>
        <time>2015-11-30T14:10:22Z</time>
      </trkpt>
      <trkpt lat="43.81349" lon="3.59512">
        <ele>165.48</ele>
        <time>2015-11-30T14:10:35Z</time>
      </trkpt>
      <trkpt lat="43.81349" lon="3.59518">
        <ele>165</ele>
        <time>2015-11-30T14:10:39Z</time>
      </trkpt>
      <trkpt lat="43.81351" lon="3.59535">
        <ele>166.45</ele>
        <time>2015-11-30T14:10:50Z</time>
      </trkpt>
      <trkpt lat="43.8135" lon="3.5954">
        <ele>166.45</ele>
        <time>2015-11-30T14:10:53Z</time>
      </trkpt>
      <trkpt lat="43.81349" lon="3.59547">
        <ele>165.96</ele>
        <time>2015-11-30T14:10:57Z</time>
      </trkpt>
      <trkpt lat="43.81349" lon="3.59566">
        <ele>165.96</ele>
        <time>2015-11-30T14:11:08Z</time>
      </trkpt>
      <trkpt lat="43.8135" lon="3.59573">
        <ele>165.96</ele>
        <time>2015-11-30T14:11:12Z</time>
      </trkpt>
      <trkpt lat="43.8135" lon="3.59586">
        <ele>165.96</ele>
        <time>2015-11-30T14:11:20Z</time>
      </trkpt>
      <trkpt lat="43.81348" lon="3.5959">
        <ele>165.96</ele>
        <time>2015-11-30T14:11:23Z</time>
      </trkpt>
      <trkpt lat="43.81347" lon="3.59598">
        <ele>165.48</ele>
        <time>2015-11-30T14:11:28Z</time>
      </trkpt>
      <trkpt lat="43.81344" lon="3.59608">
        <ele>165.48</ele>
        <time>2015-11-30T14:11:33Z</time>
      </trkpt>
      <trkpt lat="43.81342" lon="3.59613">
        <ele>165.48</ele>
        <time>2015-11-30T14:11:37Z</time>
      </trkpt>
      <trkpt lat="43.81337" lon="3.59624">
        <ele>165.96</ele>
        <time>2015-11-30T14:11:50Z</time>
      </trkpt>
      <trkpt lat="43.81336" lon="3.59627">
        <ele>166.45</ele>
        <time>2015-11-30T14:12:05Z</time>
      </trkpt>
      <trkpt lat="43.81335" lon="3.59628">
        <ele>165.96</ele>
        <time>2015-11-30T14:12:06Z</time>
      </trkpt>
      <trkpt lat="43.81335" lon="3.59635">
        <ele>165.48</ele>
        <time>2015-11-30T14:12:10Z</time>
      </trkpt>
      <trkpt lat="43.81333" lon="3.59645">
        <ele>165</ele>
        <time>2015-11-30T14:12:16Z</time>
      </trkpt>
      <trkpt lat="43.81331" lon="3.59657">
        <ele>164.52</ele>
        <time>2015-11-30T14:12:22Z</time>
      </trkpt>
      <trkpt lat="43.8133" lon="3.59667">
        <ele>164.04</ele>
        <time>2015-11-30T14:12:28Z</time>
      </trkpt>
      <trkpt lat="43.81327" lon="3.59671">
        <ele>164.04</ele>
        <time>2015-11-30T14:12:31Z</time>
      </trkpt>
      <trkpt lat="43.8132" lon="3.59679">
        <ele>163.56</ele>
        <time>2015-11-30T14:12:38Z</time>
      </trkpt>
      <trkpt lat="43.8132" lon="3.59683">
        <ele>163.56</ele>
        <time>2015-11-30T14:12:40Z</time>
      </trkpt>
      <trkpt lat="43.81319" lon="3.59694">
        <ele>163.08</ele>
        <time>2015-11-30T14:12:45Z</time>
      </trkpt>
      <trkpt lat="43.81312" lon="3.59699">
        <ele>163.08</ele>
        <time>2015-11-30T14:12:50Z</time>
      </trkpt>
      <trkpt lat="43.8131" lon="3.59706">
        <ele>163.08</ele>
        <time>2015-11-30T14:12:54Z</time>
      </trkpt>
      <trkpt lat="43.81311" lon="3.5971">
        <ele>163.08</ele>
        <time>2015-11-30T14:12:56Z</time>
      </trkpt>
      <trkpt lat="43.81309" lon="3.59719">
        <ele>163.08</ele>
        <time>2015-11-30T14:13:01Z</time>
      </trkpt>
      <trkpt lat="43.81304" lon="3.59744">
        <ele>162.6</ele>
        <time>2015-11-30T14:13:15Z</time>
      </trkpt>
      <trkpt lat="43.81301" lon="3.59755">
        <ele>162.6</ele>
        <time>2015-11-30T14:13:21Z</time>
      </trkpt>
      <trkpt lat="43.81298" lon="3.59767">
        <ele>162.6</ele>
        <time>2015-11-30T14:13:28Z</time>
      </trkpt>
      <trkpt lat="43.81294" lon="3.59777">
        <ele>162.6</ele>
        <time>2015-11-30T14:13:34Z</time>
      </trkpt>
      <trkpt lat="43.81293" lon="3.59781">
        <ele>162.12</ele>
        <time>2015-11-30T14:13:37Z</time>
      </trkpt>
      <trkpt lat="43.81293" lon="3.59796">
        <ele>162.12</ele>
        <time>2015-11-30T14:13:45Z</time>
      </trkpt>
      <trkpt lat="43.81293" lon="3.59808">
        <ele>162.12</ele>
        <time>2015-11-30T14:13:52Z</time>
      </trkpt>
      <trkpt lat="43.81297" lon="3.59818">
        <ele>162.12</ele>
        <time>2015-11-30T14:13:57Z</time>
      </trkpt>
      <trkpt lat="43.81299" lon="3.59828">
        <ele>161.64</ele>
        <time>2015-11-30T14:14:03Z</time>
      </trkpt>
      <trkpt lat="43.81306" lon="3.59844">
        <ele>161.64</ele>
        <time>2015-11-30T14:14:15Z</time>
      </trkpt>
      <trkpt lat="43.81307" lon="3.59845">
        <ele>161.64</ele>
        <time>2015-11-30T14:14:16Z</time>
      </trkpt>
      <trkpt lat="43.8131" lon="3.59851">
        <ele>162.12</ele>
        <time>2015-11-30T14:14:28Z</time>
      </trkpt>
      <trkpt lat="43.81312" lon="3.59853">
        <ele>162.12</ele>
        <time>2015-11-30T14:14:53Z</time>
      </trkpt>
      <trkpt lat="43.81317" lon="3.59867">
        <ele>161.64</ele>
        <time>2015-11-30T14:15:05Z</time>
      </trkpt>
      <trkpt lat="43.81326" lon="3.5988">
        <ele>161.16</ele>
        <time>2015-11-30T14:15:17Z</time>
      </trkpt>
      <trkpt lat="43.8134" lon="3.59906">
        <ele>161.16</ele>
        <time>2015-11-30T14:15:35Z</time>
      </trkpt>
      <trkpt lat="43.81346" lon="3.59914">
        <ele>161.16</ele>
        <time>2015-11-30T14:15:43Z</time>
      </trkpt>
      <trkpt lat="43.81352" lon="3.59926">
        <ele>161.64</ele>
        <time>2015-11-30T14:15:51Z</time>
      </trkpt>
      <trkpt lat="43.81366" lon="3.59943">
        <ele>161.64</ele>
        <time>2015-11-30T14:16:05Z</time>
      </trkpt>
      <trkpt lat="43.81371" lon="3.59955">
        <ele>162.12</ele>
        <time>2015-11-30T14:16:13Z</time>
      </trkpt>
      <trkpt lat="43.81374" lon="3.5996">
        <ele>161.64</ele>
        <time>2015-11-30T14:16:18Z</time>
      </trkpt>
      <trkpt lat="43.8138" lon="3.59967">
        <ele>162.12</ele>
        <time>2015-11-30T14:16:25Z</time>
      </trkpt>
      <trkpt lat="43.81383" lon="3.59975">
        <ele>162.6</ele>
        <time>2015-11-30T14:16:37Z</time>
      </trkpt>
      <trkpt lat="43.81384" lon="3.59979">
        <ele>163.08</ele>
        <time>2015-11-30T14:16:44Z</time>
      </trkpt>
      <trkpt lat="43.81387" lon="3.59994">
        <ele>164.52</ele>
        <time>2015-11-30T14:16:54Z</time>
      </trkpt>
      <trkpt lat="43.81383" lon="3.60004">
        <ele>164.04</ele>
        <time>2015-11-30T14:16:59Z</time>
      </trkpt>
      <trkpt lat="43.81381" lon="3.60016">
        <ele>163.56</ele>
        <time>2015-11-30T14:17:05Z</time>
      </trkpt>
      <trkpt lat="43.81382" lon="3.60026">
        <ele>163.08</ele>
        <time>2015-11-30T14:17:11Z</time>
      </trkpt>
      <trkpt lat="43.81383" lon="3.60034">
        <ele>162.6</ele>
        <time>2015-11-30T14:17:17Z</time>
      </trkpt>
      <trkpt lat="43.81386" lon="3.60047">
        <ele>163.56</ele>
        <time>2015-11-30T14:17:24Z</time>
      </trkpt>
      <trkpt lat="43.81383" lon="3.6007">
        <ele>162.6</ele>
        <time>2015-11-30T14:17:37Z</time>
      </trkpt>
      <trkpt lat="43.81384" lon="3.60081">
        <ele>161.64</ele>
        <time>2015-11-30T14:17:47Z</time>
      </trkpt>
      <trkpt lat="43.81384" lon="3.60085">
        <ele>161.64</ele>
        <time>2015-11-30T14:17:49Z</time>
      </trkpt>
      <trkpt lat="43.81384" lon="3.60089">
        <ele>161.16</ele>
        <time>2015-11-30T14:17:51Z</time>
      </trkpt>
      <trkpt lat="43.81388" lon="3.60098">
        <ele>161.64</ele>
        <time>2015-11-30T14:17:58Z</time>
      </trkpt>
      <trkpt lat="43.81389" lon="3.60107">
        <ele>161.64</ele>
        <time>2015-11-30T14:18:03Z</time>
      </trkpt>
      <trkpt lat="43.8139" lon="3.60113">
        <ele>161.64</ele>
        <time>2015-11-30T14:18:06Z</time>
      </trkpt>
      <trkpt lat="43.81389" lon="3.60123">
        <ele>162.12</ele>
        <time>2015-11-30T14:18:11Z</time>
      </trkpt>
      <trkpt lat="43.81389" lon="3.60126">
        <ele>162.12</ele>
        <time>2015-11-30T14:18:13Z</time>
      </trkpt>
      <trkpt lat="43.81389" lon="3.60134">
        <ele>161.64</ele>
        <time>2015-11-30T14:18:19Z</time>
      </trkpt>
      <trkpt lat="43.81388" lon="3.60146">
        <ele>160.68</ele>
        <time>2015-11-30T14:18:25Z</time>
      </trkpt>
      <trkpt lat="43.8139" lon="3.60158">
        <ele>160.2</ele>
        <time>2015-11-30T14:18:32Z</time>
      </trkpt>
      <trkpt lat="43.81394" lon="3.60171">
        <ele>160.2</ele>
        <time>2015-11-30T14:18:39Z</time>
      </trkpt>
      <trkpt lat="43.81393" lon="3.60186">
        <ele>159.24</ele>
        <time>2015-11-30T14:18:53Z</time>
      </trkpt>
      <trkpt lat="43.81393" lon="3.60199">
        <ele>159.24</ele>
        <time>2015-11-30T14:19:03Z</time>
      </trkpt>
      <trkpt lat="43.81391" lon="3.60214">
        <ele>159.24</ele>
        <time>2015-11-30T14:19:13Z</time>
      </trkpt>
      <trkpt lat="43.81394" lon="3.60225">
        <ele>159.72</ele>
        <time>2015-11-30T14:19:20Z</time>
      </trkpt>
      <trkpt lat="43.81396" lon="3.6023">
        <ele>159.72</ele>
        <time>2015-11-30T14:19:24Z</time>
      </trkpt>
      <trkpt lat="43.81399" lon="3.60251">
        <ele>159.72</ele>
        <time>2015-11-30T14:19:37Z</time>
      </trkpt>
      <trkpt lat="43.81403" lon="3.60261">
        <ele>160.2</ele>
        <time>2015-11-30T14:19:44Z</time>
      </trkpt>
      <trkpt lat="43.81408" lon="3.60264">
        <ele>160.2</ele>
        <time>2015-11-30T14:19:50Z</time>
      </trkpt>
      <trkpt lat="43.81412" lon="3.60265">
        <ele>161.16</ele>
        <time>2015-11-30T14:19:56Z</time>
      </trkpt>
      <trkpt lat="43.81423" lon="3.60274">
        <ele>161.16</ele>
        <time>2015-11-30T14:20:07Z</time>
      </trkpt>
      <trkpt lat="43.81432" lon="3.60285">
        <ele>161.64</ele>
        <time>2015-11-30T14:20:17Z</time>
      </trkpt>
      <trkpt lat="43.81439" lon="3.60297">
        <ele>161.64</ele>
        <time>2015-11-30T14:20:27Z</time>
      </trkpt>
      <trkpt lat="43.81442" lon="3.60303">
        <ele>161.16</ele>
        <time>2015-11-30T14:20:31Z</time>
      </trkpt>
      <trkpt lat="43.81446" lon="3.60308">
        <ele>161.16</ele>
        <time>2015-11-30T14:20:35Z</time>
      </trkpt>
      <trkpt lat="43.81454" lon="3.60326">
        <ele>161.16</ele>
        <time>2015-11-30T14:20:48Z</time>
      </trkpt>
      <trkpt lat="43.81457" lon="3.60332">
        <ele>161.16</ele>
        <time>2015-11-30T14:20:53Z</time>
      </trkpt>
      <trkpt lat="43.81458" lon="3.60335">
        <ele>161.16</ele>
        <time>2015-11-30T14:20:55Z</time>
      </trkpt>
      <trkpt lat="43.81468" lon="3.60361">
        <ele>161.64</ele>
        <time>2015-11-30T14:21:09Z</time>
      </trkpt>
      <trkpt lat="43.81479" lon="3.60379">
        <ele>161.16</ele>
        <time>2015-11-30T14:21:22Z</time>
      </trkpt>
      <trkpt lat="43.8148" lon="3.60381">
        <ele>161.16</ele>
        <time>2015-11-30T14:21:23Z</time>
      </trkpt>
      <trkpt lat="43.81485" lon="3.60393">
        <ele>160.68</ele>
        <time>2015-11-30T14:21:30Z</time>
      </trkpt>
      <trkpt lat="43.8149" lon="3.604">
        <ele>160.68</ele>
        <time>2015-11-30T14:21:35Z</time>
      </trkpt>
      <trkpt lat="43.81491" lon="3.60409">
        <ele>160.68</ele>
        <time>2015-11-30T14:21:40Z</time>
      </trkpt>
      <trkpt lat="43.81498" lon="3.6043">
        <ele>160.2</ele>
        <time>2015-11-30T14:21:52Z</time>
      </trkpt>
      <trkpt lat="43.815" lon="3.6045">
        <ele>160.2</ele>
        <time>2015-11-30T14:22:06Z</time>
      </trkpt>
      <trkpt lat="43.81501" lon="3.60451">
        <ele>160.2</ele>
        <time>2015-11-30T14:22:07Z</time>
      </trkpt>
      <trkpt lat="43.81503" lon="3.60455">
        <ele>160.2</ele>
        <time>2015-11-30T14:22:09Z</time>
      </trkpt>
      <trkpt lat="43.81511" lon="3.60473">
        <ele>160.68</ele>
        <time>2015-11-30T14:22:18Z</time>
      </trkpt>
      <trkpt lat="43.81513" lon="3.6048">
        <ele>160.68</ele>
        <time>2015-11-30T14:22:23Z</time>
      </trkpt>
      <trkpt lat="43.81515" lon="3.60487">
        <ele>160.68</ele>
        <time>2015-11-30T14:22:28Z</time>
      </trkpt>
      <trkpt lat="43.81523" lon="3.60506">
        <ele>160.68</ele>
        <time>2015-11-30T14:22:39Z</time>
      </trkpt>
      <trkpt lat="43.81527" lon="3.60523">
        <ele>161.64</ele>
        <time>2015-11-30T14:22:50Z</time>
      </trkpt>
      <trkpt lat="43.81541" lon="3.6054">
        <ele>160.68</ele>
        <time>2015-11-30T14:23:01Z</time>
      </trkpt>
      <trkpt lat="43.81555" lon="3.60554">
        <ele>160.68</ele>
        <time>2015-11-30T14:23:15Z</time>
      </trkpt>
      <trkpt lat="43.81562" lon="3.60557">
        <ele>160.2</ele>
        <time>2015-11-30T14:23:21Z</time>
      </trkpt>
      <trkpt lat="43.81567" lon="3.60558">
        <ele>161.16</ele>
        <time>2015-11-30T14:23:25Z</time>
      </trkpt>
      <trkpt lat="43.81588" lon="3.60557">
        <ele>161.16</ele>
        <time>2015-11-30T14:23:41Z</time>
      </trkpt>
      <trkpt lat="43.8161" lon="3.60568">
        <ele>162.12</ele>
        <time>2015-11-30T14:23:57Z</time>
      </trkpt>
      <trkpt lat="43.81626" lon="3.60578">
        <ele>162.12</ele>
        <time>2015-11-30T14:24:11Z</time>
      </trkpt>
      <trkpt lat="43.81642" lon="3.60587">
        <ele>162.12</ele>
        <time>2015-11-30T14:24:23Z</time>
      </trkpt>
      <trkpt lat="43.81653" lon="3.606">
        <ele>162.6</ele>
        <time>2015-11-30T14:24:34Z</time>
      </trkpt>
      <trkpt lat="43.81657" lon="3.60607">
        <ele>163.08</ele>
        <time>2015-11-30T14:24:38Z</time>
      </trkpt>
      <trkpt lat="43.81673" lon="3.60636">
        <ele>164.52</ele>
        <time>2015-11-30T14:24:57Z</time>
      </trkpt>
      <trkpt lat="43.81687" lon="3.60648">
        <ele>164.52</ele>
        <time>2015-11-30T14:25:10Z</time>
      </trkpt>
      <trkpt lat="43.81692" lon="3.6065">
        <ele>165</ele>
        <time>2015-11-30T14:25:14Z</time>
      </trkpt>
      <trkpt lat="43.81708" lon="3.60655">
        <ele>165</ele>
        <time>2015-11-30T14:25:28Z</time>
      </trkpt>
      <trkpt lat="43.81728" lon="3.6067">
        <ele>165.48</ele>
        <time>2015-11-30T14:25:42Z</time>
      </trkpt>
      <trkpt lat="43.81739" lon="3.60684">
        <ele>165.96</ele>
        <time>2015-11-30T14:25:55Z</time>
      </trkpt>
      <trkpt lat="43.81753" lon="3.60709">
        <ele>165</ele>
        <time>2015-11-30T14:26:10Z</time>
      </trkpt>
      <trkpt lat="43.81764" lon="3.60731">
        <ele>165</ele>
        <time>2015-11-30T14:26:23Z</time>
      </trkpt>
      <trkpt lat="43.81771" lon="3.60759">
        <ele>165</ele>
        <time>2015-11-30T14:26:38Z</time>
      </trkpt>
      <trkpt lat="43.81777" lon="3.60783">
        <ele>165</ele>
        <time>2015-11-30T14:26:51Z</time>
      </trkpt>
      <trkpt lat="43.8178" lon="3.60795">
        <ele>164.52</ele>
        <time>2015-11-30T14:26:57Z</time>
      </trkpt>
      <trkpt lat="43.81781" lon="3.60798">
        <ele>164.52</ele>
        <time>2015-11-30T14:26:59Z</time>
      </trkpt>
      <trkpt lat="43.81791" lon="3.60821">
        <ele>164.52</ele>
        <time>2015-11-30T14:27:14Z</time>
      </trkpt>
      <trkpt lat="43.81795" lon="3.60827">
        <ele>165</ele>
        <time>2015-11-30T14:27:18Z</time>
      </trkpt>
      <trkpt lat="43.81807" lon="3.6085">
        <ele>165.48</ele>
        <time>2015-11-30T14:27:33Z</time>
      </trkpt>
      <trkpt lat="43.81819" lon="3.60873">
        <ele>165.96</ele>
        <time>2015-11-30T14:27:48Z</time>
      </trkpt>
      <trkpt lat="43.81833" lon="3.60896">
        <ele>165</ele>
        <time>2015-11-30T14:28:04Z</time>
      </trkpt>
      <trkpt lat="43.8185" lon="3.60915">
        <ele>164.52</ele>
        <time>2015-11-30T14:28:20Z</time>
      </trkpt>
      <trkpt lat="43.81864" lon="3.60923">
        <ele>164.52</ele>
        <time>2015-11-30T14:28:31Z</time>
      </trkpt>
      <trkpt lat="43.81876" lon="3.6093">
        <ele>165</ele>
        <time>2015-11-30T14:28:43Z</time>
      </trkpt>
      <trkpt lat="43.8189" lon="3.60933">
        <ele>164.52</ele>
        <time>2015-11-30T14:28:55Z</time>
      </trkpt>
      <trkpt lat="43.81895" lon="3.60937">
        <ele>165.48</ele>
        <time>2015-11-30T14:28:59Z</time>
      </trkpt>
      <trkpt lat="43.81898" lon="3.60938">
        <ele>165.96</ele>
        <time>2015-11-30T14:29:01Z</time>
      </trkpt>
      <trkpt lat="43.81901" lon="3.60938">
        <ele>165.96</ele>
        <time>2015-11-30T14:29:03Z</time>
      </trkpt>
      <trkpt lat="43.81907" lon="3.60943">
        <ele>166.45</ele>
        <time>2015-11-30T14:29:08Z</time>
      </trkpt>
      <trkpt lat="43.81912" lon="3.60946">
        <ele>167.89</ele>
        <time>2015-11-30T14:29:12Z</time>
      </trkpt>
      <trkpt lat="43.81925" lon="3.60954">
        <ele>167.89</ele>
        <time>2015-11-30T14:29:25Z</time>
      </trkpt>
      <trkpt lat="43.8193" lon="3.60957">
        <ele>168.37</ele>
        <time>2015-11-30T14:29:29Z</time>
      </trkpt>
      <trkpt lat="43.81948" lon="3.60979">
        <ele>169.33</ele>
        <time>2015-11-30T14:29:43Z</time>
      </trkpt>
      <trkpt lat="43.81949" lon="3.60985">
        <ele>168.85</ele>
        <time>2015-11-30T14:29:46Z</time>
      </trkpt>
      <trkpt lat="43.81956" lon="3.61011">
        <ele>167.89</ele>
        <time>2015-11-30T14:30:00Z</time>
      </trkpt>
      <trkpt lat="43.81961" lon="3.61036">
        <ele>165.96</ele>
        <time>2015-11-30T14:30:13Z</time>
      </trkpt>
      <trkpt lat="43.81962" lon="3.61044">
        <ele>166.93</ele>
        <time>2015-11-30T14:30:17Z</time>
      </trkpt>
      <trkpt lat="43.81963" lon="3.61049">
        <ele>166.45</ele>
        <time>2015-11-30T14:30:20Z</time>
      </trkpt>
      <trkpt lat="43.81966" lon="3.61055">
        <ele>165.96</ele>
        <time>2015-11-30T14:30:24Z</time>
      </trkpt>
      <trkpt lat="43.8197" lon="3.61073">
        <ele>164.52</ele>
        <time>2015-11-30T14:30:35Z</time>
      </trkpt>
      <trkpt lat="43.81975" lon="3.6109">
        <ele>163.56</ele>
        <time>2015-11-30T14:30:44Z</time>
      </trkpt>
      <trkpt lat="43.81985" lon="3.61117">
        <ele>163.08</ele>
        <time>2015-11-30T14:30:59Z</time>
      </trkpt>
      <trkpt lat="43.81989" lon="3.61126">
        <ele>164.04</ele>
        <time>2015-11-30T14:31:05Z</time>
      </trkpt>
      <trkpt lat="43.8199" lon="3.61132">
        <ele>163.08</ele>
        <time>2015-11-30T14:31:08Z</time>
      </trkpt>
      <trkpt lat="43.81992" lon="3.61138">
        <ele>162.6</ele>
        <time>2015-11-30T14:31:11Z</time>
      </trkpt>
      <trkpt lat="43.81996" lon="3.61147">
        <ele>163.56</ele>
        <time>2015-11-30T14:31:16Z</time>
      </trkpt>
      <trkpt lat="43.81997" lon="3.61149">
        <ele>162.12</ele>
        <time>2015-11-30T14:31:18Z</time>
      </trkpt>
      <trkpt lat="43.81999" lon="3.61152">
        <ele>162.12</ele>
        <time>2015-11-30T14:31:34Z</time>
      </trkpt>
      <trkpt lat="43.81999" lon="3.61152">
        <ele>163.08</ele>
        <time>2015-11-30T14:31:36Z</time>
      </trkpt>
      <trkpt lat="43.82" lon="3.61152">
        <ele>162.6</ele>
        <time>2015-11-30T14:32:02Z</time>
      </trkpt>
      <trkpt lat="43.81998" lon="3.61159">
        <ele>162.6</ele>
        <time>2015-11-30T14:32:29Z</time>
      </trkpt>
      <trkpt lat="43.81998" lon="3.61163">
        <ele>160.68</ele>
        <time>2015-11-30T14:32:31Z</time>
      </trkpt>
      <trkpt lat="43.81995" lon="3.6118">
        <ele>162.6</ele>
        <time>2015-11-30T14:32:39Z</time>
      </trkpt>
      <trkpt lat="43.81994" lon="3.61187">
        <ele>161.64</ele>
        <time>2015-11-30T14:32:42Z</time>
      </trkpt>
      <trkpt lat="43.81994" lon="3.612">
        <ele>161.16</ele>
        <time>2015-11-30T14:32:49Z</time>
      </trkpt>
      <trkpt lat="43.8199" lon="3.61216">
        <ele>160.68</ele>
        <time>2015-11-30T14:32:58Z</time>
      </trkpt>
      <trkpt lat="43.8199" lon="3.61243">
        <ele>160.68</ele>
        <time>2015-11-30T14:33:12Z</time>
      </trkpt>
      <trkpt lat="43.81991" lon="3.61248">
        <ele>160.68</ele>
        <time>2015-11-30T14:33:15Z</time>
      </trkpt>
      <trkpt lat="43.81992" lon="3.61252">
        <ele>160.2</ele>
        <time>2015-11-30T14:33:18Z</time>
      </trkpt>
      <trkpt lat="43.81994" lon="3.61276">
        <ele>160.2</ele>
        <time>2015-11-30T14:33:30Z</time>
      </trkpt>
      <trkpt lat="43.81995" lon="3.61303">
        <ele>160.2</ele>
        <time>2015-11-30T14:33:45Z</time>
      </trkpt>
      <trkpt lat="43.82004" lon="3.61324">
        <ele>160.68</ele>
        <time>2015-11-30T14:33:56Z</time>
      </trkpt>
      <trkpt lat="43.82008" lon="3.61345">
        <ele>161.16</ele>
        <time>2015-11-30T14:34:09Z</time>
      </trkpt>
      <trkpt lat="43.82016" lon="3.61368">
        <ele>160.68</ele>
        <time>2015-11-30T14:34:22Z</time>
      </trkpt>
      <trkpt lat="43.82018" lon="3.61376">
        <ele>160.2</ele>
        <time>2015-11-30T14:34:26Z</time>
      </trkpt>
      <trkpt lat="43.82019" lon="3.61388">
        <ele>160.68</ele>
        <time>2015-11-30T14:34:33Z</time>
      </trkpt>
      <trkpt lat="43.8202" lon="3.61391">
        <ele>160.68</ele>
        <time>2015-11-30T14:34:35Z</time>
      </trkpt>
      <trkpt lat="43.8202" lon="3.61394">
        <ele>160.68</ele>
        <time>2015-11-30T14:34:37Z</time>
      </trkpt>
      <trkpt lat="43.82024" lon="3.61419">
        <ele>160.68</ele>
        <time>2015-11-30T14:34:49Z</time>
      </trkpt>
      <trkpt lat="43.82026" lon="3.6143">
        <ele>160.68</ele>
        <time>2015-11-30T14:34:55Z</time>
      </trkpt>
      <trkpt lat="43.8203" lon="3.61452">
        <ele>160.2</ele>
        <time>2015-11-30T14:35:06Z</time>
      </trkpt>
      <trkpt lat="43.8204" lon="3.61472">
        <ele>160.2</ele>
        <time>2015-11-30T14:35:20Z</time>
      </trkpt>
      <trkpt lat="43.82045" lon="3.61477">
        <ele>159.72</ele>
        <time>2015-11-30T14:35:26Z</time>
      </trkpt>
      <trkpt lat="43.8206" lon="3.61484">
        <ele>159.24</ele>
        <time>2015-11-30T14:35:39Z</time>
      </trkpt>
      <trkpt lat="43.82062" lon="3.61484">
        <ele>158.75</ele>
        <time>2015-11-30T14:35:40Z</time>
      </trkpt>
      <trkpt lat="43.82067" lon="3.61481">
        <ele>160.68</ele>
        <time>2015-11-30T14:35:44Z</time>
      </trkpt>
      <trkpt lat="43.82075" lon="3.61476">
        <ele>159.72</ele>
        <time>2015-11-30T14:35:50Z</time>
      </trkpt>
      <trkpt lat="43.82091" lon="3.61466">
        <ele>159.24</ele>
        <time>2015-11-30T14:36:04Z</time>
      </trkpt>
      <trkpt lat="43.821" lon="3.6146">
        <ele>158.75</ele>
        <time>2015-11-30T14:36:12Z</time>
      </trkpt>
      <trkpt lat="43.82116" lon="3.6146">
        <ele>158.75</ele>
        <time>2015-11-30T14:36:25Z</time>
      </trkpt>
      <trkpt lat="43.82116" lon="3.61461">
        <ele>158.75</ele>
        <time>2015-11-30T14:36:26Z</time>
      </trkpt>
      <trkpt lat="43.82126" lon="3.61466">
        <ele>159.72</ele>
        <time>2015-11-30T14:36:32Z</time>
      </trkpt>
      <trkpt lat="43.82143" lon="3.61477">
        <ele>158.27</ele>
        <time>2015-11-30T14:36:43Z</time>
      </trkpt>
      <trkpt lat="43.82153" lon="3.61485">
        <ele>160.2</ele>
        <time>2015-11-30T14:36:51Z</time>
      </trkpt>
      <trkpt lat="43.8216" lon="3.615">
        <ele>158.75</ele>
        <time>2015-11-30T14:36:59Z</time>
      </trkpt>
      <trkpt lat="43.82166" lon="3.61518">
        <ele>159.24</ele>
        <time>2015-11-30T14:37:08Z</time>
      </trkpt>
      <trkpt lat="43.82174" lon="3.6154">
        <ele>159.24</ele>
        <time>2015-11-30T14:37:22Z</time>
      </trkpt>
      <trkpt lat="43.8218" lon="3.61557">
        <ele>159.24</ele>
        <time>2015-11-30T14:37:32Z</time>
      </trkpt>
      <trkpt lat="43.82189" lon="3.61571">
        <ele>159.24</ele>
        <time>2015-11-30T14:37:43Z</time>
      </trkpt>
      <trkpt lat="43.82193" lon="3.61573">
        <ele>159.72</ele>
        <time>2015-11-30T14:37:46Z</time>
      </trkpt>
      <trkpt lat="43.82198" lon="3.61578">
        <ele>159.24</ele>
        <time>2015-11-30T14:37:50Z</time>
      </trkpt>
      <trkpt lat="43.82201" lon="3.61586">
        <ele>158.75</ele>
        <time>2015-11-30T14:37:55Z</time>
      </trkpt>
      <trkpt lat="43.82203" lon="3.6159">
        <ele>160.2</ele>
        <time>2015-11-30T14:37:58Z</time>
      </trkpt>
      <trkpt lat="43.82207" lon="3.61596">
        <ele>159.24</ele>
        <time>2015-11-30T14:38:02Z</time>
      </trkpt>
      <trkpt lat="43.82212" lon="3.61603">
        <ele>159.24</ele>
        <time>2015-11-30T14:38:07Z</time>
      </trkpt>
      <trkpt lat="43.82221" lon="3.61617">
        <ele>158.75</ele>
        <time>2015-11-30T14:38:16Z</time>
      </trkpt>
      <trkpt lat="43.82227" lon="3.61627">
        <ele>157.79</ele>
        <time>2015-11-30T14:38:22Z</time>
      </trkpt>
      <trkpt lat="43.82232" lon="3.61638">
        <ele>158.75</ele>
        <time>2015-11-30T14:38:28Z</time>
      </trkpt>
      <trkpt lat="43.82233" lon="3.61641">
        <ele>158.27</ele>
        <time>2015-11-30T14:38:30Z</time>
      </trkpt>
      <trkpt lat="43.82238" lon="3.6165">
        <ele>158.27</ele>
        <time>2015-11-30T14:38:36Z</time>
      </trkpt>
      <trkpt lat="43.82247" lon="3.61674">
        <ele>157.79</ele>
        <time>2015-11-30T14:38:50Z</time>
      </trkpt>
      <trkpt lat="43.82263" lon="3.61699">
        <ele>157.31</ele>
        <time>2015-11-30T14:39:07Z</time>
      </trkpt>
      <trkpt lat="43.82271" lon="3.61716">
        <ele>156.83</ele>
        <time>2015-11-30T14:39:18Z</time>
      </trkpt>
      <trkpt lat="43.82272" lon="3.61723">
        <ele>157.31</ele>
        <time>2015-11-30T14:39:22Z</time>
      </trkpt>
      <trkpt lat="43.82277" lon="3.6173">
        <ele>156.83</ele>
        <time>2015-11-30T14:39:26Z</time>
      </trkpt>
      <trkpt lat="43.82285" lon="3.61743">
        <ele>156.83</ele>
        <time>2015-11-30T14:39:35Z</time>
      </trkpt>
      <trkpt lat="43.82293" lon="3.61752">
        <ele>157.79</ele>
        <time>2015-11-30T14:39:43Z</time>
      </trkpt>
      <trkpt lat="43.82295" lon="3.61754">
        <ele>156.83</ele>
        <time>2015-11-30T14:39:45Z</time>
      </trkpt>
      <trkpt lat="43.8231" lon="3.61768">
        <ele>156.83</ele>
        <time>2015-11-30T14:39:59Z</time>
      </trkpt>
      <trkpt lat="43.82322" lon="3.61778">
        <ele>156.83</ele>
        <time>2015-11-30T14:40:09Z</time>
      </trkpt>
      <trkpt lat="43.82323" lon="3.61781">
        <ele>155.87</ele>
        <time>2015-11-30T14:40:17Z</time>
      </trkpt>
      <trkpt lat="43.82341" lon="3.61783">
        <ele>154.91</ele>
        <time>2015-11-30T14:40:33Z</time>
      </trkpt>
      <trkpt lat="43.82354" lon="3.6178">
        <ele>155.87</ele>
        <time>2015-11-30T14:40:42Z</time>
      </trkpt>
      <trkpt lat="43.8236" lon="3.61778">
        <ele>155.39</ele>
        <time>2015-11-30T14:40:46Z</time>
      </trkpt>
      <trkpt lat="43.82361" lon="3.61776">
        <ele>154.91</ele>
        <time>2015-11-30T14:40:48Z</time>
      </trkpt>
      <trkpt lat="43.82365" lon="3.61772">
        <ele>155.87</ele>
        <time>2015-11-30T14:40:51Z</time>
      </trkpt>
      <trkpt lat="43.82384" lon="3.61764">
        <ele>154.91</ele>
        <time>2015-11-30T14:41:05Z</time>
      </trkpt>
      <trkpt lat="43.82391" lon="3.61763">
        <ele>154.43</ele>
        <time>2015-11-30T14:41:10Z</time>
      </trkpt>
      <trkpt lat="43.82406" lon="3.61759">
        <ele>154.91</ele>
        <time>2015-11-30T14:41:22Z</time>
      </trkpt>
      <trkpt lat="43.82414" lon="3.61757">
        <ele>154.91</ele>
        <time>2015-11-30T14:41:27Z</time>
      </trkpt>
      <trkpt lat="43.82418" lon="3.61754">
        <ele>155.39</ele>
        <time>2015-11-30T14:41:31Z</time>
      </trkpt>
      <trkpt lat="43.82436" lon="3.61744">
        <ele>156.35</ele>
        <time>2015-11-30T14:41:45Z</time>
      </trkpt>
      <trkpt lat="43.82445" lon="3.61742">
        <ele>154.91</ele>
        <time>2015-11-30T14:41:52Z</time>
      </trkpt>
      <trkpt lat="43.82458" lon="3.61741">
        <ele>156.35</ele>
        <time>2015-11-30T14:42:01Z</time>
      </trkpt>
      <trkpt lat="43.82465" lon="3.6174">
        <ele>155.39</ele>
        <time>2015-11-30T14:42:06Z</time>
      </trkpt>
      <trkpt lat="43.82474" lon="3.61735">
        <ele>156.83</ele>
        <time>2015-11-30T14:42:13Z</time>
      </trkpt>
      <trkpt lat="43.82475" lon="3.61735">
        <ele>156.35</ele>
        <time>2015-11-30T14:42:14Z</time>
      </trkpt>
      <trkpt lat="43.82485" lon="3.61737">
        <ele>156.35</ele>
        <time>2015-11-30T14:42:21Z</time>
      </trkpt>
      <trkpt lat="43.8249" lon="3.61737">
        <ele>156.83</ele>
        <time>2015-11-30T14:42:25Z</time>
      </trkpt>
      <trkpt lat="43.82493" lon="3.61737">
        <ele>156.83</ele>
        <time>2015-11-30T14:42:27Z</time>
      </trkpt>
      <trkpt lat="43.82511" lon="3.61734">
        <ele>156.83</ele>
        <time>2015-11-30T14:42:41Z</time>
      </trkpt>
      <trkpt lat="43.82522" lon="3.61735">
        <ele>156.83</ele>
        <time>2015-11-30T14:42:50Z</time>
      </trkpt>
      <trkpt lat="43.8254" lon="3.61742">
        <ele>156.83</ele>
        <time>2015-11-30T14:43:04Z</time>
      </trkpt>
      <trkpt lat="43.82558" lon="3.6175">
        <ele>157.31</ele>
        <time>2015-11-30T14:43:19Z</time>
      </trkpt>
      <trkpt lat="43.82561" lon="3.61751">
        <ele>156.83</ele>
        <time>2015-11-30T14:43:21Z</time>
      </trkpt>
      <trkpt lat="43.82563" lon="3.61752">
        <ele>157.79</ele>
        <time>2015-11-30T14:43:23Z</time>
      </trkpt>
      <trkpt lat="43.82566" lon="3.61753">
        <ele>156.83</ele>
        <time>2015-11-30T14:43:25Z</time>
      </trkpt>
      <trkpt lat="43.82569" lon="3.61753">
        <ele>157.31</ele>
        <time>2015-11-30T14:43:30Z</time>
      </trkpt>
      <trkpt lat="43.82572" lon="3.61753">
        <ele>157.31</ele>
        <time>2015-11-30T14:43:32Z</time>
      </trkpt>
      <trkpt lat="43.82577" lon="3.61753">
        <ele>157.79</ele>
        <time>2015-11-30T14:43:36Z</time>
      </trkpt>
      <trkpt lat="43.82592" lon="3.61754">
        <ele>158.27</ele>
        <time>2015-11-30T14:43:50Z</time>
      </trkpt>
      <trkpt lat="43.826" lon="3.61757">
        <ele>157.79</ele>
        <time>2015-11-30T14:44:03Z</time>
      </trkpt>
      <trkpt lat="43.82616" lon="3.61766">
        <ele>158.75</ele>
        <time>2015-11-30T14:44:17Z</time>
      </trkpt>
      <trkpt lat="43.82618" lon="3.61766">
        <ele>157.31</ele>
        <time>2015-11-30T14:44:20Z</time>
      </trkpt>
      <trkpt lat="43.8262" lon="3.61766">
        <ele>158.27</ele>
        <time>2015-11-30T14:44:22Z</time>
      </trkpt>
      <trkpt lat="43.82621" lon="3.61766">
        <ele>157.31</ele>
        <time>2015-11-30T14:44:23Z</time>
      </trkpt>
      <trkpt lat="43.82636" lon="3.6178">
        <ele>157.31</ele>
        <time>2015-11-30T14:44:38Z</time>
      </trkpt>
      <trkpt lat="43.82652" lon="3.61793">
        <ele>157.31</ele>
        <time>2015-11-30T14:44:51Z</time>
      </trkpt>
      <trkpt lat="43.82669" lon="3.618">
        <ele>156.83</ele>
        <time>2015-11-30T14:45:03Z</time>
      </trkpt>
      <trkpt lat="43.82672" lon="3.618">
        <ele>156.83</ele>
        <time>2015-11-30T14:45:07Z</time>
      </trkpt>
      <trkpt lat="43.82693" lon="3.61795">
        <ele>156.35</ele>
        <time>2015-11-30T14:45:24Z</time>
      </trkpt>
      <trkpt lat="43.8271" lon="3.61792">
        <ele>156.35</ele>
        <time>2015-11-30T14:45:37Z</time>
      </trkpt>
      <trkpt lat="43.82718" lon="3.61788">
        <ele>156.83</ele>
        <time>2015-11-30T14:45:43Z</time>
      </trkpt>
      <trkpt lat="43.82723" lon="3.61782">
        <ele>157.31</ele>
        <time>2015-11-30T14:45:49Z</time>
      </trkpt>
      <trkpt lat="43.82732" lon="3.61768">
        <ele>157.79</ele>
        <time>2015-11-30T14:46:02Z</time>
      </trkpt>
      <trkpt lat="43.82749" lon="3.61757">
        <ele>158.27</ele>
        <time>2015-11-30T14:46:14Z</time>
      </trkpt>
      <trkpt lat="43.82753" lon="3.61756">
        <ele>158.27</ele>
        <time>2015-11-30T14:46:17Z</time>
      </trkpt>
      <trkpt lat="43.82764" lon="3.61752">
        <ele>159.24</ele>
        <time>2015-11-30T14:46:30Z</time>
      </trkpt>
      <trkpt lat="43.82777" lon="3.61746">
        <ele>159.72</ele>
        <time>2015-11-30T14:46:41Z</time>
      </trkpt>
      <trkpt lat="43.82784" lon="3.61746">
        <ele>158.75</ele>
        <time>2015-11-30T14:46:45Z</time>
      </trkpt>
      <trkpt lat="43.82792" lon="3.61748">
        <ele>159.72</ele>
        <time>2015-11-30T14:46:51Z</time>
      </trkpt>
      <trkpt lat="43.82801" lon="3.61749">
        <ele>159.24</ele>
        <time>2015-11-30T14:47:00Z</time>
      </trkpt>
      <trkpt lat="43.82803" lon="3.6175">
        <ele>158.75</ele>
        <time>2015-11-30T14:47:02Z</time>
      </trkpt>
      <trkpt lat="43.82807" lon="3.6175">
        <ele>160.2</ele>
        <time>2015-11-30T14:47:05Z</time>
      </trkpt>
      <trkpt lat="43.82825" lon="3.61746">
        <ele>160.68</ele>
        <time>2015-11-30T14:47:16Z</time>
      </trkpt>
      <trkpt lat="43.82843" lon="3.61754">
        <ele>160.2</ele>
        <time>2015-11-30T14:47:27Z</time>
      </trkpt>
      <trkpt lat="43.82845" lon="3.61756">
        <ele>159.24</ele>
        <time>2015-11-30T14:47:31Z</time>
      </trkpt>
      <trkpt lat="43.82846" lon="3.61762">
        <ele>160.2</ele>
        <time>2015-11-30T14:47:36Z</time>
      </trkpt>
      <trkpt lat="43.82846" lon="3.61765">
        <ele>159.72</ele>
        <time>2015-11-30T14:47:37Z</time>
      </trkpt>
      <trkpt lat="43.82848" lon="3.61769">
        <ele>159.24</ele>
        <time>2015-11-30T14:47:41Z</time>
      </trkpt>
      <trkpt lat="43.82863" lon="3.61772">
        <ele>160.68</ele>
        <time>2015-11-30T14:47:54Z</time>
      </trkpt>
      <trkpt lat="43.82865" lon="3.61769">
        <ele>160.68</ele>
        <time>2015-11-30T14:47:59Z</time>
      </trkpt>
      <trkpt lat="43.82873" lon="3.61761">
        <ele>160.2</ele>
        <time>2015-11-30T14:48:08Z</time>
      </trkpt>
      <trkpt lat="43.82888" lon="3.61751">
        <ele>161.16</ele>
        <time>2015-11-30T14:48:21Z</time>
      </trkpt>
      <trkpt lat="43.82903" lon="3.61743">
        <ele>161.64</ele>
        <time>2015-11-30T14:48:34Z</time>
      </trkpt>
      <trkpt lat="43.82908" lon="3.61741">
        <ele>161.64</ele>
        <time>2015-11-30T14:48:39Z</time>
      </trkpt>
      <trkpt lat="43.82912" lon="3.61739">
        <ele>161.64</ele>
        <time>2015-11-30T14:48:42Z</time>
      </trkpt>
      <trkpt lat="43.82917" lon="3.61737">
        <ele>163.08</ele>
        <time>2015-11-30T14:48:46Z</time>
      </trkpt>
      <trkpt lat="43.82924" lon="3.61728">
        <ele>163.08</ele>
        <time>2015-11-30T14:48:54Z</time>
      </trkpt>
      <trkpt lat="43.82932" lon="3.61722">
        <ele>163.08</ele>
        <time>2015-11-30T14:49:03Z</time>
      </trkpt>
      <trkpt lat="43.82936" lon="3.6172">
        <ele>163.56</ele>
        <time>2015-11-30T14:49:08Z</time>
      </trkpt>
      <trkpt lat="43.82941" lon="3.61728">
        <ele>162.6</ele>
        <time>2015-11-30T14:49:12Z</time>
      </trkpt>
      <trkpt lat="43.82944" lon="3.61737">
        <ele>162.6</ele>
        <time>2015-11-30T14:49:16Z</time>
      </trkpt>
      <trkpt lat="43.82948" lon="3.61747">
        <ele>163.08</ele>
        <time>2015-11-30T14:49:28Z</time>
      </trkpt>
      <trkpt lat="43.82949" lon="3.61748">
        <ele>163.08</ele>
        <time>2015-11-30T14:49:42Z</time>
      </trkpt>
      <trkpt lat="43.8295" lon="3.61748">
        <ele>163.08</ele>
        <time>2015-11-30T14:49:59Z</time>
      </trkpt>
      <trkpt lat="43.8295" lon="3.61747">
        <ele>163.08</ele>
        <time>2015-11-30T14:50:30Z</time>
      </trkpt>
    </trkseg>
  </trk>
</gpx>